<?xml version='1.0' encoding='UTF-8'?>
<gpx version="1.1" creator="https://www.komoot.de" xmlns="http://www.topografix.com/GPX/1/1" xmlns:xsi="http://www.w3.org/2001/XMLSchema-instance" xsi:schemaLocation="http://www.topografix.com/GPX/1/1 http://www.topografix.com/GPX/1/1/gpx.xsd">
  <metadata>
    <name>ADFC Mauerweg Tour Nord</name>
    <author>
      <link href="https://www.komoot.de">
        <text>komoot</text>
        <type>text/html</type>
      </link>
    </author>
  </metadata>
  <trk>
    <name>ADFC Mauerweg Tour Nord</name>
    <trkseg>
      <trkpt lat="52.516276" lon="13.376892">
        <ele>36.671583</ele>
        <time>2024-04-24T10:46:12.794Z</time>
      </trkpt>
      <trkpt lat="52.516399" lon="13.376934">
        <ele>36.671583</ele>
        <time>2024-04-24T10:46:15.493Z</time>
      </trkpt>
      <trkpt lat="52.516520" lon="13.377051">
        <ele>36.671583</ele>
        <time>2024-04-24T10:46:18.139Z</time>
      </trkpt>
      <trkpt lat="52.516663" lon="13.377270">
        <ele>36.671583</ele>
        <time>2024-04-24T10:46:22.688Z</time>
      </trkpt>
      <trkpt lat="52.516834" lon="13.377356">
        <ele>36.671583</ele>
        <time>2024-04-24T10:46:26.157Z</time>
      </trkpt>
      <trkpt lat="52.516964" lon="13.377351">
        <ele>36.671583</ele>
        <time>2024-04-24T10:46:29.489Z</time>
      </trkpt>
      <trkpt lat="52.516995" lon="13.377344">
        <ele>36.671583</ele>
        <time>2024-04-24T10:46:30.283Z</time>
      </trkpt>
      <trkpt lat="52.517682" lon="13.377021">
        <ele>36.455692</ele>
        <time>2024-04-24T10:46:47.137Z</time>
      </trkpt>
      <trkpt lat="52.517782" lon="13.376970">
        <ele>36.419048</ele>
        <time>2024-04-24T10:46:49.301Z</time>
      </trkpt>
      <trkpt lat="52.517888" lon="13.376915">
        <ele>36.380147</ele>
        <time>2024-04-24T10:46:51.529Z</time>
      </trkpt>
      <trkpt lat="52.517973" lon="13.376918">
        <ele>36.350392</ele>
        <time>2024-04-24T10:46:53.947Z</time>
      </trkpt>
      <trkpt lat="52.519189" lon="13.376945">
        <ele>35.725954</ele>
        <time>2024-04-24T10:47:26.377Z</time>
      </trkpt>
      <trkpt lat="52.519363" lon="13.376951">
        <ele>35.561820</ele>
        <time>2024-04-24T10:47:30.395Z</time>
      </trkpt>
      <trkpt lat="52.519347" lon="13.377039">
        <ele>35.509114</ele>
        <time>2024-04-24T10:47:31.664Z</time>
      </trkpt>
      <trkpt lat="52.519314" lon="13.377224">
        <ele>35.398482</ele>
        <time>2024-04-24T10:47:34.725Z</time>
      </trkpt>
      <trkpt lat="52.519183" lon="13.377664">
        <ele>35.117377</ele>
        <time>2024-04-24T10:47:41.409Z</time>
      </trkpt>
      <trkpt lat="52.519152" lon="13.377804">
        <ele>35.031882</ele>
        <time>2024-04-24T10:47:43.792Z</time>
      </trkpt>
      <trkpt lat="52.519029" lon="13.378385">
        <ele>34.678862</ele>
        <time>2024-04-24T10:47:51.493Z</time>
      </trkpt>
      <trkpt lat="52.518940" lon="13.378989">
        <ele>34.319470</ele>
        <time>2024-04-24T10:47:58.523Z</time>
      </trkpt>
      <trkpt lat="52.518902" lon="13.379392">
        <ele>34.058100</ele>
        <time>2024-04-24T10:48:02.949Z</time>
      </trkpt>
      <trkpt lat="52.518897" lon="13.380154">
        <ele>33.569696</ele>
        <time>2024-04-24T10:48:11.803Z</time>
      </trkpt>
      <trkpt lat="52.518906" lon="13.380295">
        <ele>33.478832</ele>
        <time>2024-04-24T10:48:13.561Z</time>
      </trkpt>
      <trkpt lat="52.518960" lon="13.380282">
        <ele>33.421348</ele>
        <time>2024-04-24T10:48:14.530Z</time>
      </trkpt>
      <trkpt lat="52.519498" lon="13.380176">
        <ele>32.850633</ele>
        <time>2024-04-24T10:48:25.599Z</time>
      </trkpt>
      <trkpt lat="52.519581" lon="13.380161">
        <ele>32.762685</ele>
        <time>2024-04-24T10:48:27.253Z</time>
      </trkpt>
      <trkpt lat="52.519577" lon="13.380037">
        <ele>32.683102</ele>
        <time>2024-04-24T10:48:29.369Z</time>
      </trkpt>
      <trkpt lat="52.519565" lon="13.379517">
        <ele>32.438592</ele>
        <time>2024-04-24T10:48:38.232Z</time>
      </trkpt>
      <trkpt lat="52.519564" lon="13.378685">
        <ele>32.371576</ele>
        <time>2024-04-24T10:48:52.320Z</time>
      </trkpt>
      <trkpt lat="52.519682" lon="13.378144">
        <ele>32.325284</ele>
        <time>2024-04-24T10:49:02.350Z</time>
      </trkpt>
      <trkpt lat="52.519691" lon="13.378023">
        <ele>32.315465</ele>
        <time>2024-04-24T10:49:04.616Z</time>
      </trkpt>
      <trkpt lat="52.519709" lon="13.377969">
        <ele>32.310506</ele>
        <time>2024-04-24T10:49:05.680Z</time>
      </trkpt>
      <trkpt lat="52.519806" lon="13.377704">
        <ele>32.285596</ele>
        <time>2024-04-24T10:49:11.177Z</time>
      </trkpt>
      <trkpt lat="52.520015" lon="13.377288">
        <ele>32.242143</ele>
        <time>2024-04-24T10:49:21.215Z</time>
      </trkpt>
      <trkpt lat="52.520305" lon="13.376930">
        <ele>32.143359</ele>
        <time>2024-04-24T10:49:31.789Z</time>
      </trkpt>
      <trkpt lat="52.520451" lon="13.376870">
        <ele>32.070651</ele>
        <time>2024-04-24T10:49:36.352Z</time>
      </trkpt>
      <trkpt lat="52.520839" lon="13.376785">
        <ele>31.881539</ele>
        <time>2024-04-24T10:49:47.238Z</time>
      </trkpt>
      <trkpt lat="52.521320" lon="13.376660">
        <ele>31.646267</ele>
        <time>2024-04-24T10:50:00.355Z</time>
      </trkpt>
      <trkpt lat="52.521716" lon="13.376428">
        <ele>31.443157</ele>
        <time>2024-04-24T10:50:11.701Z</time>
      </trkpt>
      <trkpt lat="52.522083" lon="13.376123">
        <ele>31.363665</ele>
        <time>2024-04-24T10:50:22.735Z</time>
      </trkpt>
      <trkpt lat="52.522259" lon="13.375891">
        <ele>31.384786</ele>
        <time>2024-04-24T10:50:28.775Z</time>
      </trkpt>
      <trkpt lat="52.522469" lon="13.375532">
        <ele>31.413151</ele>
        <time>2024-04-24T10:50:36.870Z</time>
      </trkpt>
      <trkpt lat="52.522676" lon="13.375120">
        <ele>31.443584</ele>
        <time>2024-04-24T10:50:46.511Z</time>
      </trkpt>
      <trkpt lat="52.522751" lon="13.374970">
        <ele>31.454643</ele>
        <time>2024-04-24T10:50:50.170Z</time>
      </trkpt>
      <trkpt lat="52.522804" lon="13.375061">
        <ele>31.461818</ele>
        <time>2024-04-24T10:50:52.657Z</time>
      </trkpt>
      <trkpt lat="52.522954" lon="13.374728">
        <ele>31.485417</ele>
        <time>2024-04-24T10:51:00.980Z</time>
      </trkpt>
      <trkpt lat="52.523107" lon="13.374334">
        <ele>31.512040</ele>
        <time>2024-04-24T10:51:10.421Z</time>
      </trkpt>
      <trkpt lat="52.523246" lon="13.373832">
        <ele>31.852330</ele>
        <time>2024-04-24T10:51:21.282Z</time>
      </trkpt>
      <trkpt lat="52.523281" lon="13.373686">
        <ele>31.951017</ele>
        <time>2024-04-24T10:51:24.489Z</time>
      </trkpt>
      <trkpt lat="52.523322" lon="13.373708">
        <ele>31.995597</ele>
        <time>2024-04-24T10:51:26.078Z</time>
      </trkpt>
      <trkpt lat="52.523398" lon="13.373748">
        <ele>32.078081</ele>
        <time>2024-04-24T10:51:29.019Z</time>
      </trkpt>
      <trkpt lat="52.523485" lon="13.373762">
        <ele>32.168435</ele>
        <time>2024-04-24T10:51:31.385Z</time>
      </trkpt>
      <trkpt lat="52.523728" lon="13.373765">
        <ele>32.419610</ele>
        <time>2024-04-24T10:51:38.273Z</time>
      </trkpt>
      <trkpt lat="52.524173" lon="13.373761">
        <ele>32.879574</ele>
        <time>2024-04-24T10:51:50.262Z</time>
      </trkpt>
      <trkpt lat="52.524437" lon="13.373758">
        <ele>33.152454</ele>
        <time>2024-04-24T10:51:56.995Z</time>
      </trkpt>
      <trkpt lat="52.524608" lon="13.373757">
        <ele>33.329203</ele>
        <time>2024-04-24T10:52:01.152Z</time>
      </trkpt>
      <trkpt lat="52.524712" lon="13.373753">
        <ele>33.387984</ele>
        <time>2024-04-24T10:52:03.872Z</time>
      </trkpt>
      <trkpt lat="52.524826" lon="13.373753">
        <ele>33.417365</ele>
        <time>2024-04-24T10:52:06.899Z</time>
      </trkpt>
      <trkpt lat="52.525056" lon="13.373754">
        <ele>33.476642</ele>
        <time>2024-04-24T10:52:12.528Z</time>
      </trkpt>
      <trkpt lat="52.525221" lon="13.373755">
        <ele>33.519166</ele>
        <time>2024-04-24T10:52:16.334Z</time>
      </trkpt>
      <trkpt lat="52.525741" lon="13.373757">
        <ele>33.653184</ele>
        <time>2024-04-24T10:52:27.882Z</time>
      </trkpt>
      <trkpt lat="52.525950" lon="13.373758">
        <ele>33.707048</ele>
        <time>2024-04-24T10:52:32.500Z</time>
      </trkpt>
      <trkpt lat="52.526014" lon="13.373758">
        <ele>33.723543</ele>
        <time>2024-04-24T10:52:33.812Z</time>
      </trkpt>
      <trkpt lat="52.526189" lon="13.374028">
        <ele>33.785401</ele>
        <time>2024-04-24T10:52:39.652Z</time>
      </trkpt>
      <trkpt lat="52.526365" lon="13.374234">
        <ele>33.840555</ele>
        <time>2024-04-24T10:52:44.716Z</time>
      </trkpt>
      <trkpt lat="52.526643" lon="13.374453">
        <ele>33.912656</ele>
        <time>2024-04-24T10:52:51.922Z</time>
      </trkpt>
      <trkpt lat="52.526667" lon="13.374470">
        <ele>33.918768</ele>
        <time>2024-04-24T10:52:52.465Z</time>
      </trkpt>
      <trkpt lat="52.526691" lon="13.374484">
        <ele>33.924724</ele>
        <time>2024-04-24T10:52:52.947Z</time>
      </trkpt>
      <trkpt lat="52.526699" lon="13.374488">
        <ele>33.926679</ele>
        <time>2024-04-24T10:52:53.103Z</time>
      </trkpt>
      <trkpt lat="52.526843" lon="13.374558">
        <ele>33.961800</ele>
        <time>2024-04-24T10:52:56.316Z</time>
      </trkpt>
      <trkpt lat="52.527131" lon="13.374596">
        <ele>34.029374</ele>
        <time>2024-04-24T10:53:02.609Z</time>
      </trkpt>
      <trkpt lat="52.527450" lon="13.374543">
        <ele>34.104361</ele>
        <time>2024-04-24T10:53:10.460Z</time>
      </trkpt>
      <trkpt lat="52.527837" lon="13.374394">
        <ele>34.197322</ele>
        <time>2024-04-24T10:53:20.338Z</time>
      </trkpt>
      <trkpt lat="52.527849" lon="13.374389">
        <ele>34.200217</ele>
        <time>2024-04-24T10:53:20.651Z</time>
      </trkpt>
      <trkpt lat="52.527866" lon="13.374377">
        <ele>34.204544</ele>
        <time>2024-04-24T10:53:21.096Z</time>
      </trkpt>
      <trkpt lat="52.527912" lon="13.374339">
        <ele>34.216585</ele>
        <time>2024-04-24T10:53:22.349Z</time>
      </trkpt>
      <trkpt lat="52.528011" lon="13.374264">
        <ele>34.242080</ele>
        <time>2024-04-24T10:53:25.009Z</time>
      </trkpt>
      <trkpt lat="52.528051" lon="13.374231">
        <ele>34.252547</ele>
        <time>2024-04-24T10:53:26.117Z</time>
      </trkpt>
      <trkpt lat="52.528002" lon="13.374058">
        <ele>34.207952</ele>
        <time>2024-04-24T10:53:29.272Z</time>
      </trkpt>
      <trkpt lat="52.528021" lon="13.374044">
        <ele>34.198072</ele>
        <time>2024-04-24T10:53:29.805Z</time>
      </trkpt>
      <trkpt lat="52.528032" lon="13.374035">
        <ele>34.192241</ele>
        <time>2024-04-24T10:53:30.106Z</time>
      </trkpt>
      <trkpt lat="52.528350" lon="13.373717">
        <ele>34.015613</ele>
        <time>2024-04-24T10:53:38.604Z</time>
      </trkpt>
      <trkpt lat="52.528901" lon="13.372995">
        <ele>33.681243</ele>
        <time>2024-04-24T10:53:53.716Z</time>
      </trkpt>
      <trkpt lat="52.528937" lon="13.372951">
        <ele>33.659956</ele>
        <time>2024-04-24T10:53:54.548Z</time>
      </trkpt>
      <trkpt lat="52.529213" lon="13.372621">
        <ele>33.498007</ele>
        <time>2024-04-24T10:54:00.860Z</time>
      </trkpt>
      <trkpt lat="52.530001" lon="13.371802">
        <ele>33.203647</ele>
        <time>2024-04-24T10:54:19.575Z</time>
      </trkpt>
      <trkpt lat="52.530766" lon="13.371153">
        <ele>32.969464</ele>
        <time>2024-04-24T10:54:37.881Z</time>
      </trkpt>
      <trkpt lat="52.531150" lon="13.370881">
        <ele>33.050314</ele>
        <time>2024-04-24T10:54:48.160Z</time>
      </trkpt>
      <trkpt lat="52.531253" lon="13.371121">
        <ele>33.166149</ele>
        <time>2024-04-24T10:54:53.342Z</time>
      </trkpt>
      <trkpt lat="52.531261" lon="13.371114">
        <ele>33.172025</ele>
        <time>2024-04-24T10:54:53.583Z</time>
      </trkpt>
      <trkpt lat="52.531345" lon="13.371048">
        <ele>33.232383</ele>
        <time>2024-04-24T10:54:55.908Z</time>
      </trkpt>
      <trkpt lat="52.531623" lon="13.370828">
        <ele>33.432407</ele>
        <time>2024-04-24T10:55:04.733Z</time>
      </trkpt>
      <trkpt lat="52.532190" lon="13.370322">
        <ele>33.850667</ele>
        <time>2024-04-24T10:55:20.126Z</time>
      </trkpt>
      <trkpt lat="52.532808" lon="13.369735">
        <ele>34.246377</ele>
        <time>2024-04-24T10:55:37.572Z</time>
      </trkpt>
      <trkpt lat="52.532856" lon="13.369773">
        <ele>34.271029</ele>
        <time>2024-04-24T10:55:39.043Z</time>
      </trkpt>
      <trkpt lat="52.532909" lon="13.369716">
        <ele>34.300335</ele>
        <time>2024-04-24T10:55:40.721Z</time>
      </trkpt>
      <trkpt lat="52.532923" lon="13.369700">
        <ele>34.308224</ele>
        <time>2024-04-24T10:55:41.151Z</time>
      </trkpt>
      <trkpt lat="52.532886" lon="13.369500">
        <ele>34.367065</ele>
        <time>2024-04-24T10:55:44.436Z</time>
      </trkpt>
      <trkpt lat="52.532910" lon="13.369444">
        <ele>34.386347</ele>
        <time>2024-04-24T10:55:45.518Z</time>
      </trkpt>
      <trkpt lat="52.533400" lon="13.368948">
        <ele>34.652614</ele>
        <time>2024-04-24T10:56:03.224Z</time>
      </trkpt>
      <trkpt lat="52.533465" lon="13.368964">
        <ele>34.683026</ele>
        <time>2024-04-24T10:56:04.676Z</time>
      </trkpt>
      <trkpt lat="52.533645" lon="13.369029">
        <ele>34.768301</ele>
        <time>2024-04-24T10:56:10.657Z</time>
      </trkpt>
      <trkpt lat="52.533800" lon="13.369082">
        <ele>34.841557</ele>
        <time>2024-04-24T10:56:15.218Z</time>
      </trkpt>
      <trkpt lat="52.533819" lon="13.369060">
        <ele>34.852311</ele>
        <time>2024-04-24T10:56:15.742Z</time>
      </trkpt>
      <trkpt lat="52.533892" lon="13.368981">
        <ele>34.892751</ele>
        <time>2024-04-24T10:56:17.720Z</time>
      </trkpt>
      <trkpt lat="52.533864" lon="13.368909">
        <ele>34.921874</ele>
        <time>2024-04-24T10:56:19.123Z</time>
      </trkpt>
      <trkpt lat="52.533849" lon="13.368878">
        <ele>34.943808</ele>
        <time>2024-04-24T10:56:19.805Z</time>
      </trkpt>
      <trkpt lat="52.533653" lon="13.368366">
        <ele>35.278778</ele>
        <time>2024-04-24T10:56:28.798Z</time>
      </trkpt>
      <trkpt lat="52.533849" lon="13.368878">
        <ele>35.613749</ele>
        <time>2024-04-24T10:56:38.979Z</time>
      </trkpt>
      <trkpt lat="52.533864" lon="13.368909">
        <ele>35.635683</ele>
        <time>2024-04-24T10:56:39.777Z</time>
      </trkpt>
      <trkpt lat="52.533892" lon="13.368981">
        <ele>35.683001</ele>
        <time>2024-04-24T10:56:41.417Z</time>
      </trkpt>
      <trkpt lat="52.533819" lon="13.369060">
        <ele>35.762557</ele>
        <time>2024-04-24T10:56:43.985Z</time>
      </trkpt>
      <trkpt lat="52.533853" lon="13.369151">
        <ele>35.821691</ele>
        <time>2024-04-24T10:56:45.692Z</time>
      </trkpt>
      <trkpt lat="52.533904" lon="13.369290">
        <ele>35.911574</ele>
        <time>2024-04-24T10:56:48.076Z</time>
      </trkpt>
      <trkpt lat="52.533943" lon="13.369380">
        <ele>35.972761</ele>
        <time>2024-04-24T10:56:50.029Z</time>
      </trkpt>
      <trkpt lat="52.534019" lon="13.369549">
        <ele>36.089134</ele>
        <time>2024-04-24T10:56:53.611Z</time>
      </trkpt>
      <trkpt lat="52.534038" lon="13.369594">
        <ele>36.119466</ele>
        <time>2024-04-24T10:56:54.454Z</time>
      </trkpt>
      <trkpt lat="52.534317" lon="13.370243">
        <ele>36.548238</ele>
        <time>2024-04-24T10:57:06.512Z</time>
      </trkpt>
      <trkpt lat="52.534352" lon="13.370320">
        <ele>36.545298</ele>
        <time>2024-04-24T10:57:08.194Z</time>
      </trkpt>
      <trkpt lat="52.534426" lon="13.370236">
        <ele>36.540778</ele>
        <time>2024-04-24T10:57:10.777Z</time>
      </trkpt>
      <trkpt lat="52.534490" lon="13.370162">
        <ele>36.536845</ele>
        <time>2024-04-24T10:57:12.726Z</time>
      </trkpt>
      <trkpt lat="52.534931" lon="13.369655">
        <ele>36.509793</ele>
        <time>2024-04-24T10:57:26.493Z</time>
      </trkpt>
      <trkpt lat="52.535006" lon="13.369568">
        <ele>36.505179</ele>
        <time>2024-04-24T10:57:28.704Z</time>
      </trkpt>
      <trkpt lat="52.535278" lon="13.369251">
        <ele>36.488419</ele>
        <time>2024-04-24T10:57:35.281Z</time>
      </trkpt>
      <trkpt lat="52.535498" lon="13.368990">
        <ele>36.474781</ele>
        <time>2024-04-24T10:57:40.528Z</time>
      </trkpt>
      <trkpt lat="52.535527" lon="13.368958">
        <ele>36.473025</ele>
        <time>2024-04-24T10:57:41.189Z</time>
      </trkpt>
      <trkpt lat="52.535685" lon="13.368780">
        <ele>36.463397</ele>
        <time>2024-04-24T10:57:44.866Z</time>
      </trkpt>
      <trkpt lat="52.535802" lon="13.368660">
        <ele>36.465700</ele>
        <time>2024-04-24T10:57:47.341Z</time>
      </trkpt>
      <trkpt lat="52.535863" lon="13.368613">
        <ele>36.478373</ele>
        <time>2024-04-24T10:57:48.532Z</time>
      </trkpt>
      <trkpt lat="52.535887" lon="13.368664">
        <ele>36.485751</ele>
        <time>2024-04-24T10:57:49.290Z</time>
      </trkpt>
      <trkpt lat="52.536031" lon="13.368973">
        <ele>36.530293</ele>
        <time>2024-04-24T10:57:54.630Z</time>
      </trkpt>
      <trkpt lat="52.536327" lon="13.369606">
        <ele>36.621655</ele>
        <time>2024-04-24T10:58:05.630Z</time>
      </trkpt>
      <trkpt lat="52.536401" lon="13.369761">
        <ele>36.644202</ele>
        <time>2024-04-24T10:58:08.860Z</time>
      </trkpt>
      <trkpt lat="52.536758" lon="13.370525">
        <ele>36.754441</ele>
        <time>2024-04-24T10:58:23.106Z</time>
      </trkpt>
      <trkpt lat="52.537005" lon="13.371055">
        <ele>36.943276</ele>
        <time>2024-04-24T10:58:33.507Z</time>
      </trkpt>
      <trkpt lat="52.537087" lon="13.371229">
        <ele>37.051587</ele>
        <time>2024-04-24T10:58:36.674Z</time>
      </trkpt>
      <trkpt lat="52.537720" lon="13.372570">
        <ele>37.886835</ele>
        <time>2024-04-24T10:59:04.196Z</time>
      </trkpt>
      <trkpt lat="52.537976" lon="13.373127">
        <ele>38.230357</ele>
        <time>2024-04-24T10:59:14.523Z</time>
      </trkpt>
      <trkpt lat="52.538051" lon="13.373270">
        <ele>38.294121</ele>
        <time>2024-04-24T10:59:17.047Z</time>
      </trkpt>
      <trkpt lat="52.537990" lon="13.373363">
        <ele>38.333956</ele>
        <time>2024-04-24T10:59:19.093Z</time>
      </trkpt>
      <trkpt lat="52.537716" lon="13.373785">
        <ele>38.513730</ele>
        <time>2024-04-24T10:59:27.980Z</time>
      </trkpt>
      <trkpt lat="52.537563" lon="13.374024">
        <ele>38.614787</ele>
        <time>2024-04-24T10:59:32.989Z</time>
      </trkpt>
      <trkpt lat="52.537528" lon="13.374078">
        <ele>38.637770</ele>
        <time>2024-04-24T10:59:34.214Z</time>
      </trkpt>
      <trkpt lat="52.537489" lon="13.374144">
        <ele>38.664570</ele>
        <time>2024-04-24T10:59:35.748Z</time>
      </trkpt>
      <trkpt lat="52.537385" lon="13.374322">
        <ele>38.736455</ele>
        <time>2024-04-24T10:59:39.218Z</time>
      </trkpt>
      <trkpt lat="52.537265" lon="13.374527">
        <ele>38.819318</ele>
        <time>2024-04-24T10:59:43.506Z</time>
      </trkpt>
      <trkpt lat="52.537388" lon="13.374739">
        <ele>38.904648</ele>
        <time>2024-04-24T10:59:47.578Z</time>
      </trkpt>
      <trkpt lat="52.537633" lon="13.375160">
        <ele>39.074344</ele>
        <time>2024-04-24T10:59:56.334Z</time>
      </trkpt>
      <trkpt lat="52.537721" lon="13.375307">
        <ele>39.132915</ele>
        <time>2024-04-24T10:59:59.638Z</time>
      </trkpt>
      <trkpt lat="52.537808" lon="13.375453">
        <ele>39.188257</ele>
        <time>2024-04-24T11:00:02.671Z</time>
      </trkpt>
      <trkpt lat="52.537830" lon="13.375490">
        <ele>39.202267</ele>
        <time>2024-04-24T11:00:03.368Z</time>
      </trkpt>
      <trkpt lat="52.537969" lon="13.375724">
        <ele>39.290828</ele>
        <time>2024-04-24T11:00:08.042Z</time>
      </trkpt>
      <trkpt lat="52.537989" lon="13.375758">
        <ele>39.303635</ele>
        <time>2024-04-24T11:00:08.753Z</time>
      </trkpt>
      <trkpt lat="52.538032" lon="13.375829">
        <ele>39.330764</ele>
        <time>2024-04-24T11:00:10.252Z</time>
      </trkpt>
      <trkpt lat="52.538135" lon="13.376001">
        <ele>39.396118</ele>
        <time>2024-04-24T11:00:13.456Z</time>
      </trkpt>
      <trkpt lat="52.538721" lon="13.376984">
        <ele>39.768797</ele>
        <time>2024-04-24T11:00:34.181Z</time>
      </trkpt>
      <trkpt lat="52.539009" lon="13.377468">
        <ele>39.910484</ele>
        <time>2024-04-24T11:00:44.148Z</time>
      </trkpt>
      <trkpt lat="52.539868" lon="13.378911">
        <ele>39.863480</ele>
        <time>2024-04-24T11:01:10.561Z</time>
      </trkpt>
      <trkpt lat="52.540102" lon="13.379300">
        <ele>39.850744</ele>
        <time>2024-04-24T11:01:18.036Z</time>
      </trkpt>
      <trkpt lat="52.540205" lon="13.379474">
        <ele>39.845092</ele>
        <time>2024-04-24T11:01:21.425Z</time>
      </trkpt>
      <trkpt lat="52.540215" lon="13.379844">
        <ele>39.778778</ele>
        <time>2024-04-24T11:01:26.392Z</time>
      </trkpt>
      <trkpt lat="52.540126" lon="13.379884">
        <ele>39.751190</ele>
        <time>2024-04-24T11:01:28.432Z</time>
      </trkpt>
      <trkpt lat="52.539646" lon="13.380343">
        <ele>39.585157</ele>
        <time>2024-04-24T11:01:40.016Z</time>
      </trkpt>
      <trkpt lat="52.539514" lon="13.380475">
        <ele>39.538961</ele>
        <time>2024-04-24T11:01:43.166Z</time>
      </trkpt>
      <trkpt lat="52.539368" lon="13.380622">
        <ele>39.487770</ele>
        <time>2024-04-24T11:01:46.751Z</time>
      </trkpt>
      <trkpt lat="52.538902" lon="13.381099">
        <ele>39.323635</ele>
        <time>2024-04-24T11:01:58.152Z</time>
      </trkpt>
      <trkpt lat="52.538326" lon="13.381690">
        <ele>39.304482</ele>
        <time>2024-04-24T11:02:12.735Z</time>
      </trkpt>
      <trkpt lat="52.538291" lon="13.381728">
        <ele>39.304304</ele>
        <time>2024-04-24T11:02:13.670Z</time>
      </trkpt>
      <trkpt lat="52.537725" lon="13.382338">
        <ele>39.301433</ele>
        <time>2024-04-24T11:02:28.343Z</time>
      </trkpt>
      <trkpt lat="52.536735" lon="13.383495">
        <ele>39.451906</ele>
        <time>2024-04-24T11:02:57.980Z</time>
      </trkpt>
      <trkpt lat="52.536654" lon="13.383586">
        <ele>39.471620</ele>
        <time>2024-04-24T11:03:00.297Z</time>
      </trkpt>
      <trkpt lat="52.536493" lon="13.383778">
        <ele>39.511586</ele>
        <time>2024-04-24T11:03:05.024Z</time>
      </trkpt>
      <trkpt lat="52.536207" lon="13.384132">
        <ele>39.583523</ele>
        <time>2024-04-24T11:03:13.164Z</time>
      </trkpt>
      <trkpt lat="52.536009" lon="13.384375">
        <ele>39.633173</ele>
        <time>2024-04-24T11:03:18.584Z</time>
      </trkpt>
      <trkpt lat="52.535214" lon="13.385333">
        <ele>38.893044</ele>
        <time>2024-04-24T11:03:38.783Z</time>
      </trkpt>
      <trkpt lat="52.534656" lon="13.385949">
        <ele>38.284128</ele>
        <time>2024-04-24T11:03:51.121Z</time>
      </trkpt>
      <trkpt lat="52.533796" lon="13.387027">
        <ele>37.361510</ele>
        <time>2024-04-24T11:04:11.641Z</time>
      </trkpt>
      <trkpt lat="52.533544" lon="13.387356">
        <ele>37.092887</ele>
        <time>2024-04-24T11:04:17.950Z</time>
      </trkpt>
      <trkpt lat="52.533507" lon="13.387406">
        <ele>37.052906</ele>
        <time>2024-04-24T11:04:18.896Z</time>
      </trkpt>
      <trkpt lat="52.533476" lon="13.387450">
        <ele>37.018718</ele>
        <time>2024-04-24T11:04:19.703Z</time>
      </trkpt>
      <trkpt lat="52.533383" lon="13.387578">
        <ele>36.917471</ele>
        <time>2024-04-24T11:04:22.124Z</time>
      </trkpt>
      <trkpt lat="52.533353" lon="13.387618">
        <ele>36.885227</ele>
        <time>2024-04-24T11:04:22.906Z</time>
      </trkpt>
      <trkpt lat="52.533410" lon="13.387766">
        <ele>36.796279</ele>
        <time>2024-04-24T11:04:25.001Z</time>
      </trkpt>
      <trkpt lat="52.533403" lon="13.387775">
        <ele>36.788861</ele>
        <time>2024-04-24T11:04:25.586Z</time>
      </trkpt>
      <trkpt lat="52.533389" lon="13.387795">
        <ele>36.773379</ele>
        <time>2024-04-24T11:04:26.861Z</time>
      </trkpt>
      <trkpt lat="52.533479" lon="13.387965">
        <ele>36.658943</ele>
        <time>2024-04-24T11:04:36.380Z</time>
      </trkpt>
      <trkpt lat="52.533389" lon="13.387795">
        <ele>36.544507</ele>
        <time>2024-04-24T11:04:45.899Z</time>
      </trkpt>
      <trkpt lat="52.533403" lon="13.387775">
        <ele>36.530449</ele>
        <time>2024-04-24T11:04:47.174Z</time>
      </trkpt>
      <trkpt lat="52.533410" lon="13.387766">
        <ele>36.533520</ele>
        <time>2024-04-24T11:04:47.759Z</time>
      </trkpt>
      <trkpt lat="52.533423" lon="13.387795">
        <ele>36.541091</ele>
        <time>2024-04-24T11:04:48.207Z</time>
      </trkpt>
      <trkpt lat="52.533621" lon="13.388136">
        <ele>36.640167</ele>
        <time>2024-04-24T11:04:56.464Z</time>
      </trkpt>
      <trkpt lat="52.535361" lon="13.390118">
        <ele>38.087473</ele>
        <time>2024-04-24T11:06:03.005Z</time>
      </trkpt>
      <trkpt lat="52.535420" lon="13.390206">
        <ele>38.204531</ele>
        <time>2024-04-24T11:06:05.102Z</time>
      </trkpt>
      <trkpt lat="52.535488" lon="13.390310">
        <ele>38.341004</ele>
        <time>2024-04-24T11:06:07.566Z</time>
      </trkpt>
      <trkpt lat="52.535500" lon="13.390329">
        <ele>38.365485</ele>
        <time>2024-04-24T11:06:08.066Z</time>
      </trkpt>
      <trkpt lat="52.535548" lon="13.390446">
        <ele>38.491623</ele>
        <time>2024-04-24T11:06:11.333Z</time>
      </trkpt>
      <trkpt lat="52.535829" lon="13.390886">
        <ele>39.061846</ele>
        <time>2024-04-24T11:06:25.340Z</time>
      </trkpt>
      <trkpt lat="52.536125" lon="13.391348">
        <ele>39.661590</ele>
        <time>2024-04-24T11:06:40.706Z</time>
      </trkpt>
      <trkpt lat="52.536177" lon="13.391430">
        <ele>39.767468</ele>
        <time>2024-04-24T11:06:43.466Z</time>
      </trkpt>
      <trkpt lat="52.537314" lon="13.393187">
        <ele>43.884290</ele>
        <time>2024-04-24T11:07:46.805Z</time>
      </trkpt>
      <trkpt lat="52.537328" lon="13.393215">
        <ele>43.942762</ele>
        <time>2024-04-24T11:07:47.549Z</time>
      </trkpt>
      <trkpt lat="52.537383" lon="13.393330">
        <ele>44.178759</ele>
        <time>2024-04-24T11:07:50.480Z</time>
      </trkpt>
      <trkpt lat="52.537432" lon="13.393444">
        <ele>44.403946</ele>
        <time>2024-04-24T11:07:53.412Z</time>
      </trkpt>
      <trkpt lat="52.537443" lon="13.393476">
        <ele>44.463241</ele>
        <time>2024-04-24T11:07:54.173Z</time>
      </trkpt>
      <trkpt lat="52.537781" lon="13.394683">
        <ele>45.842325</ele>
        <time>2024-04-24T11:08:25.177Z</time>
      </trkpt>
      <trkpt lat="52.537959" lon="13.395314">
        <ele>46.544313</ele>
        <time>2024-04-24T11:08:40.415Z</time>
      </trkpt>
      <trkpt lat="52.538031" lon="13.395573">
        <ele>46.831714</ele>
        <time>2024-04-24T11:08:46.205Z</time>
      </trkpt>
      <trkpt lat="52.538077" lon="13.395683">
        <ele>46.966437</ele>
        <time>2024-04-24T11:08:48.936Z</time>
      </trkpt>
      <trkpt lat="52.538131" lon="13.395867">
        <ele>47.172623</ele>
        <time>2024-04-24T11:08:52.998Z</time>
      </trkpt>
      <trkpt lat="52.538152" lon="13.395937">
        <ele>47.251396</ele>
        <time>2024-04-24T11:08:54.206Z</time>
      </trkpt>
      <trkpt lat="52.538169" lon="13.395997">
        <ele>47.318198</ele>
        <time>2024-04-24T11:08:55.203Z</time>
      </trkpt>
      <trkpt lat="52.538213" lon="13.396143">
        <ele>47.482641</ele>
        <time>2024-04-24T11:08:57.567Z</time>
      </trkpt>
      <trkpt lat="52.538227" lon="13.396188">
        <ele>47.533653</ele>
        <time>2024-04-24T11:08:58.351Z</time>
      </trkpt>
      <trkpt lat="52.538248" lon="13.396259">
        <ele>47.549015</ele>
        <time>2024-04-24T11:08:59.578Z</time>
      </trkpt>
      <trkpt lat="52.538295" lon="13.396518">
        <ele>47.547970</ele>
        <time>2024-04-24T11:09:04.740Z</time>
      </trkpt>
      <trkpt lat="52.538528" lon="13.397346">
        <ele>47.544441</ele>
        <time>2024-04-24T11:09:21.444Z</time>
      </trkpt>
      <trkpt lat="52.538698" lon="13.397952">
        <ele>47.541859</ele>
        <time>2024-04-24T11:09:32.819Z</time>
      </trkpt>
      <trkpt lat="52.538715" lon="13.398013">
        <ele>47.541600</ele>
        <time>2024-04-24T11:09:33.950Z</time>
      </trkpt>
      <trkpt lat="52.538757" lon="13.398166">
        <ele>47.540950</ele>
        <time>2024-04-24T11:09:36.888Z</time>
      </trkpt>
      <trkpt lat="52.538992" lon="13.399010">
        <ele>47.535296</ele>
        <time>2024-04-24T11:09:52.473Z</time>
      </trkpt>
      <trkpt lat="52.539011" lon="13.399078">
        <ele>47.533713</ele>
        <time>2024-04-24T11:09:53.692Z</time>
      </trkpt>
      <trkpt lat="52.539037" lon="13.399169">
        <ele>47.531587</ele>
        <time>2024-04-24T11:09:55.337Z</time>
      </trkpt>
      <trkpt lat="52.539063" lon="13.399261">
        <ele>47.529441</ele>
        <time>2024-04-24T11:09:57.090Z</time>
      </trkpt>
      <trkpt lat="52.539336" lon="13.400215">
        <ele>47.507144</ele>
        <time>2024-04-24T11:10:15.496Z</time>
      </trkpt>
      <trkpt lat="52.539360" lon="13.400302">
        <ele>47.505124</ele>
        <time>2024-04-24T11:10:17.296Z</time>
      </trkpt>
      <trkpt lat="52.539372" lon="13.400344">
        <ele>47.504142</ele>
        <time>2024-04-24T11:10:18.144Z</time>
      </trkpt>
      <trkpt lat="52.539387" lon="13.400400">
        <ele>47.502848</ele>
        <time>2024-04-24T11:10:19.265Z</time>
      </trkpt>
      <trkpt lat="52.539690" lon="13.401404">
        <ele>47.479145</ele>
        <time>2024-04-24T11:10:39.643Z</time>
      </trkpt>
      <trkpt lat="52.539708" lon="13.401467">
        <ele>47.477673</ele>
        <time>2024-04-24T11:10:40.679Z</time>
      </trkpt>
      <trkpt lat="52.539749" lon="13.401614">
        <ele>47.478673</ele>
        <time>2024-04-24T11:10:42.901Z</time>
      </trkpt>
      <trkpt lat="52.539793" lon="13.401767">
        <ele>47.490487</ele>
        <time>2024-04-24T11:10:45.432Z</time>
      </trkpt>
      <trkpt lat="52.539802" lon="13.401800">
        <ele>47.493012</ele>
        <time>2024-04-24T11:10:45.989Z</time>
      </trkpt>
      <trkpt lat="52.539838" lon="13.401992">
        <ele>47.507038</ele>
        <time>2024-04-24T11:10:49.793Z</time>
      </trkpt>
      <trkpt lat="52.540486" lon="13.404235">
        <ele>47.680383</ele>
        <time>2024-04-24T11:11:34.282Z</time>
      </trkpt>
      <trkpt lat="52.540509" lon="13.404328">
        <ele>47.689332</ele>
        <time>2024-04-24T11:11:35.618Z</time>
      </trkpt>
      <trkpt lat="52.540579" lon="13.404286">
        <ele>47.700814</ele>
        <time>2024-04-24T11:11:37.162Z</time>
      </trkpt>
      <trkpt lat="52.540682" lon="13.404228">
        <ele>47.717590</ele>
        <time>2024-04-24T11:11:39.617Z</time>
      </trkpt>
      <trkpt lat="52.540706" lon="13.404214">
        <ele>47.721514</ele>
        <time>2024-04-24T11:11:40.285Z</time>
      </trkpt>
      <trkpt lat="52.540767" lon="13.404180">
        <ele>47.731438</ele>
        <time>2024-04-24T11:11:41.884Z</time>
      </trkpt>
      <trkpt lat="52.540975" lon="13.404071">
        <ele>47.765076</ele>
        <time>2024-04-24T11:11:46.786Z</time>
      </trkpt>
      <trkpt lat="52.541648" lon="13.403722">
        <ele>47.873810</ele>
        <time>2024-04-24T11:12:03.888Z</time>
      </trkpt>
      <trkpt lat="52.541759" lon="13.403666">
        <ele>47.891701</ele>
        <time>2024-04-24T11:12:07.055Z</time>
      </trkpt>
      <trkpt lat="52.542110" lon="13.403488">
        <ele>47.948298</ele>
        <time>2024-04-24T11:12:15.617Z</time>
      </trkpt>
      <trkpt lat="52.542249" lon="13.403417">
        <ele>47.966986</ele>
        <time>2024-04-24T11:12:18.755Z</time>
      </trkpt>
      <trkpt lat="52.543173" lon="13.402961">
        <ele>48.068765</ele>
        <time>2024-04-24T11:12:42.209Z</time>
      </trkpt>
      <trkpt lat="52.543300" lon="13.402898">
        <ele>48.082760</ele>
        <time>2024-04-24T11:12:45.570Z</time>
      </trkpt>
      <trkpt lat="52.543711" lon="13.402687">
        <ele>48.128185</ele>
        <time>2024-04-24T11:12:55.850Z</time>
      </trkpt>
      <trkpt lat="52.544025" lon="13.402528">
        <ele>48.116330</ele>
        <time>2024-04-24T11:13:03.156Z</time>
      </trkpt>
      <trkpt lat="52.544415" lon="13.402343">
        <ele>48.019097</ele>
        <time>2024-04-24T11:13:11.713Z</time>
      </trkpt>
      <trkpt lat="52.544579" lon="13.402264">
        <ele>47.978161</ele>
        <time>2024-04-24T11:13:15.362Z</time>
      </trkpt>
      <trkpt lat="52.544901" lon="13.402108">
        <ele>47.897749</ele>
        <time>2024-04-24T11:13:22.106Z</time>
      </trkpt>
      <trkpt lat="52.545036" lon="13.402045">
        <ele>47.864133</ele>
        <time>2024-04-24T11:13:24.925Z</time>
      </trkpt>
      <trkpt lat="52.546511" lon="13.401312">
        <ele>47.949077</ele>
        <time>2024-04-24T11:14:03.314Z</time>
      </trkpt>
      <trkpt lat="52.546606" lon="13.401259">
        <ele>47.974031</ele>
        <time>2024-04-24T11:14:05.887Z</time>
      </trkpt>
      <trkpt lat="52.546656" lon="13.401240">
        <ele>47.986797</ele>
        <time>2024-04-24T11:14:07.127Z</time>
      </trkpt>
      <trkpt lat="52.546688" lon="13.401229">
        <ele>47.994929</ele>
        <time>2024-04-24T11:14:07.930Z</time>
      </trkpt>
      <trkpt lat="52.546713" lon="13.401219">
        <ele>48.001329</ele>
        <time>2024-04-24T11:14:08.560Z</time>
      </trkpt>
      <trkpt lat="52.547119" lon="13.401073">
        <ele>48.104710</ele>
        <time>2024-04-24T11:14:18.526Z</time>
      </trkpt>
      <trkpt lat="52.547478" lon="13.400898">
        <ele>48.026207</ele>
        <time>2024-04-24T11:14:26.695Z</time>
      </trkpt>
      <trkpt lat="52.548255" lon="13.400587">
        <ele>47.179851</ele>
        <time>2024-04-24T11:14:42.604Z</time>
      </trkpt>
      <trkpt lat="52.548382" lon="13.400537">
        <ele>47.041640</ele>
        <time>2024-04-24T11:14:45.091Z</time>
      </trkpt>
      <trkpt lat="52.548623" lon="13.400446">
        <ele>46.779937</ele>
        <time>2024-04-24T11:14:49.564Z</time>
      </trkpt>
      <trkpt lat="52.548684" lon="13.400423">
        <ele>46.713702</ele>
        <time>2024-04-24T11:14:50.655Z</time>
      </trkpt>
      <trkpt lat="52.548761" lon="13.400394">
        <ele>46.630098</ele>
        <time>2024-04-24T11:14:52.064Z</time>
      </trkpt>
      <trkpt lat="52.548846" lon="13.400375">
        <ele>46.539310</ele>
        <time>2024-04-24T11:14:53.654Z</time>
      </trkpt>
      <trkpt lat="52.549006" lon="13.400362">
        <ele>46.369766</ele>
        <time>2024-04-24T11:14:56.573Z</time>
      </trkpt>
      <trkpt lat="52.549040" lon="13.400388">
        <ele>46.330081</ele>
        <time>2024-04-24T11:14:57.489Z</time>
      </trkpt>
      <trkpt lat="52.549056" lon="13.400329">
        <ele>46.288505</ele>
        <time>2024-04-24T11:14:58.439Z</time>
      </trkpt>
      <trkpt lat="52.549067" lon="13.400354">
        <ele>46.268646</ele>
        <time>2024-04-24T11:14:58.884Z</time>
      </trkpt>
      <trkpt lat="52.550164" lon="13.399910">
        <ele>45.018991</ele>
        <time>2024-04-24T11:15:19.421Z</time>
      </trkpt>
      <trkpt lat="52.550975" lon="13.399593">
        <ele>44.464082</ele>
        <time>2024-04-24T11:15:36.417Z</time>
      </trkpt>
      <trkpt lat="52.551032" lon="13.399571">
        <ele>44.535450</ele>
        <time>2024-04-24T11:15:37.857Z</time>
      </trkpt>
      <trkpt lat="52.551074" lon="13.400039">
        <ele>44.886079</ele>
        <time>2024-04-24T11:15:45.088Z</time>
      </trkpt>
      <trkpt lat="52.551079" lon="13.400103">
        <ele>44.933904</ele>
        <time>2024-04-24T11:15:46.340Z</time>
      </trkpt>
      <trkpt lat="52.551019" lon="13.400152">
        <ele>45.015561</ele>
        <time>2024-04-24T11:15:48.063Z</time>
      </trkpt>
      <trkpt lat="52.550651" lon="13.400451">
        <ele>45.515887</ele>
        <time>2024-04-24T11:16:03.419Z</time>
      </trkpt>
      <trkpt lat="52.550615" lon="13.400336">
        <ele>45.611756</ele>
        <time>2024-04-24T11:16:06.285Z</time>
      </trkpt>
      <trkpt lat="52.551182" lon="13.399911">
        <ele>46.371293</ele>
        <time>2024-04-24T11:16:29.001Z</time>
      </trkpt>
      <trkpt lat="52.551521" lon="13.399832">
        <ele>46.777979</ele>
        <time>2024-04-24T11:16:41.049Z</time>
      </trkpt>
      <trkpt lat="52.551569" lon="13.399897">
        <ele>46.851281</ele>
        <time>2024-04-24T11:16:42.816Z</time>
      </trkpt>
      <trkpt lat="52.551595" lon="13.399930">
        <ele>46.889999</ele>
        <time>2024-04-24T11:16:43.729Z</time>
      </trkpt>
      <trkpt lat="52.551827" lon="13.399820">
        <ele>47.174647</ele>
        <time>2024-04-24T11:16:50.292Z</time>
      </trkpt>
      <trkpt lat="52.551885" lon="13.399836">
        <ele>47.243979</ele>
        <time>2024-04-24T11:16:52.028Z</time>
      </trkpt>
      <trkpt lat="52.552420" lon="13.399591">
        <ele>47.898693</ele>
        <time>2024-04-24T11:17:07.720Z</time>
      </trkpt>
      <trkpt lat="52.552653" lon="13.399493">
        <ele>48.182221</ele>
        <time>2024-04-24T11:17:14.250Z</time>
      </trkpt>
      <trkpt lat="52.553563" lon="13.399198">
        <ele>48.236481</ele>
        <time>2024-04-24T11:17:35.913Z</time>
      </trkpt>
      <trkpt lat="52.553631" lon="13.399151">
        <ele>48.192721</ele>
        <time>2024-04-24T11:17:37.272Z</time>
      </trkpt>
      <trkpt lat="52.554397" lon="13.398931">
        <ele>47.731399</ele>
        <time>2024-04-24T11:17:52.208Z</time>
      </trkpt>
      <trkpt lat="52.554496" lon="13.398937">
        <ele>47.672625</ele>
        <time>2024-04-24T11:17:54.159Z</time>
      </trkpt>
      <trkpt lat="52.554779" lon="13.398912">
        <ele>47.487908</ele>
        <time>2024-04-24T11:17:59.437Z</time>
      </trkpt>
      <trkpt lat="52.554851" lon="13.398905">
        <ele>47.389695</ele>
        <time>2024-04-24T11:18:00.873Z</time>
      </trkpt>
      <trkpt lat="52.554991" lon="13.398907">
        <ele>47.199050</ele>
        <time>2024-04-24T11:18:03.506Z</time>
      </trkpt>
      <trkpt lat="52.555172" lon="13.398957">
        <ele>46.949130</ele>
        <time>2024-04-24T11:18:06.878Z</time>
      </trkpt>
      <trkpt lat="52.555757" lon="13.398899">
        <ele>46.151090</ele>
        <time>2024-04-24T11:18:17.814Z</time>
      </trkpt>
      <trkpt lat="52.556468" lon="13.398810">
        <ele>45.180122</ele>
        <time>2024-04-24T11:18:30.870Z</time>
      </trkpt>
      <trkpt lat="52.557200" lon="13.398881">
        <ele>44.757655</ele>
        <time>2024-04-24T11:18:44.527Z</time>
      </trkpt>
      <trkpt lat="52.557542" lon="13.398953">
        <ele>44.593243</ele>
        <time>2024-04-24T11:18:51.624Z</time>
      </trkpt>
      <trkpt lat="52.557783" lon="13.399044">
        <ele>44.475334</ele>
        <time>2024-04-24T11:18:57.067Z</time>
      </trkpt>
      <trkpt lat="52.558456" lon="13.399442">
        <ele>44.350894</ele>
        <time>2024-04-24T11:19:13.754Z</time>
      </trkpt>
      <trkpt lat="52.558459" lon="13.399413">
        <ele>44.366640</ele>
        <time>2024-04-24T11:19:14.170Z</time>
      </trkpt>
      <trkpt lat="52.558507" lon="13.399034">
        <ele>44.573853</ele>
        <time>2024-04-24T11:19:19.861Z</time>
      </trkpt>
      <trkpt lat="52.558531" lon="13.398843">
        <ele>44.678246</ele>
        <time>2024-04-24T11:19:22.913Z</time>
      </trkpt>
      <trkpt lat="52.558539" lon="13.398790">
        <ele>44.707475</ele>
        <time>2024-04-24T11:19:23.704Z</time>
      </trkpt>
      <trkpt lat="52.558536" lon="13.398615">
        <ele>44.801180</ele>
        <time>2024-04-24T11:19:26.271Z</time>
      </trkpt>
      <trkpt lat="52.558569" lon="13.398565">
        <ele>44.840681</ele>
        <time>2024-04-24T11:19:27.495Z</time>
      </trkpt>
      <trkpt lat="52.558586" lon="13.398452">
        <ele>44.902988</ele>
        <time>2024-04-24T11:19:29.417Z</time>
      </trkpt>
      <trkpt lat="52.558572" lon="13.398361">
        <ele>44.953231</ele>
        <time>2024-04-24T11:19:31.009Z</time>
      </trkpt>
      <trkpt lat="52.558618" lon="13.398083">
        <ele>45.107442</ele>
        <time>2024-04-24T11:19:35.761Z</time>
      </trkpt>
      <trkpt lat="52.558631" lon="13.397948">
        <ele>45.180601</ele>
        <time>2024-04-24T11:19:38.207Z</time>
      </trkpt>
      <trkpt lat="52.558611" lon="13.397700">
        <ele>45.314504</ele>
        <time>2024-04-24T11:19:42.531Z</time>
      </trkpt>
      <trkpt lat="52.558329" lon="13.397044">
        <ele>45.744536</ele>
        <time>2024-04-24T11:19:55.654Z</time>
      </trkpt>
      <trkpt lat="52.557990" lon="13.396456">
        <ele>45.982080</ele>
        <time>2024-04-24T11:20:08.449Z</time>
      </trkpt>
      <trkpt lat="52.557896" lon="13.396347">
        <ele>46.031647</ele>
        <time>2024-04-24T11:20:11.204Z</time>
      </trkpt>
      <trkpt lat="52.557787" lon="13.396219">
        <ele>46.089367</ele>
        <time>2024-04-24T11:20:14.624Z</time>
      </trkpt>
      <trkpt lat="52.557686" lon="13.396035">
        <ele>46.154321</ele>
        <time>2024-04-24T11:20:18.329Z</time>
      </trkpt>
      <trkpt lat="52.557604" lon="13.395886">
        <ele>46.206981</ele>
        <time>2024-04-24T11:20:21.343Z</time>
      </trkpt>
      <trkpt lat="52.557728" lon="13.395692">
        <ele>46.280736</ele>
        <time>2024-04-24T11:20:25.395Z</time>
      </trkpt>
      <trkpt lat="52.557806" lon="13.395569">
        <ele>46.327305</ele>
        <time>2024-04-24T11:20:27.832Z</time>
      </trkpt>
      <trkpt lat="52.557850" lon="13.395500">
        <ele>46.353505</ele>
        <time>2024-04-24T11:20:29.353Z</time>
      </trkpt>
      <trkpt lat="52.558008" lon="13.395722">
        <ele>46.443061</ele>
        <time>2024-04-24T11:20:34.359Z</time>
      </trkpt>
      <trkpt lat="52.558119" lon="13.395856">
        <ele>46.502401</ele>
        <time>2024-04-24T11:20:37.424Z</time>
      </trkpt>
      <trkpt lat="52.558468" lon="13.396176">
        <ele>46.494193</ele>
        <time>2024-04-24T11:20:46.585Z</time>
      </trkpt>
      <trkpt lat="52.558903" lon="13.396433">
        <ele>46.352714</ele>
        <time>2024-04-24T11:20:56.216Z</time>
      </trkpt>
      <trkpt lat="52.559088" lon="13.396507">
        <ele>46.294437</ele>
        <time>2024-04-24T11:20:59.931Z</time>
      </trkpt>
      <trkpt lat="52.559434" lon="13.396573">
        <ele>46.187819</ele>
        <time>2024-04-24T11:21:07.056Z</time>
      </trkpt>
      <trkpt lat="52.559774" lon="13.396552">
        <ele>46.083675</ele>
        <time>2024-04-24T11:21:14.131Z</time>
      </trkpt>
      <trkpt lat="52.560033" lon="13.396459">
        <ele>46.039681</ele>
        <time>2024-04-24T11:21:19.787Z</time>
      </trkpt>
      <trkpt lat="52.560766" lon="13.395930">
        <ele>46.362398</ele>
        <time>2024-04-24T11:21:38.036Z</time>
      </trkpt>
      <trkpt lat="52.561107" lon="13.395674">
        <ele>46.513521</ele>
        <time>2024-04-24T11:21:47.145Z</time>
      </trkpt>
      <trkpt lat="52.561441" lon="13.395424">
        <ele>46.661465</ele>
        <time>2024-04-24T11:21:56.205Z</time>
      </trkpt>
      <trkpt lat="52.561782" lon="13.395169">
        <ele>46.907653</ele>
        <time>2024-04-24T11:22:05.939Z</time>
      </trkpt>
      <trkpt lat="52.561940" lon="13.395053">
        <ele>47.073957</ele>
        <time>2024-04-24T11:22:10.682Z</time>
      </trkpt>
      <trkpt lat="52.562118" lon="13.394918">
        <ele>47.262356</ele>
        <time>2024-04-24T11:22:16.014Z</time>
      </trkpt>
      <trkpt lat="52.562410" lon="13.394686">
        <ele>47.574041</ele>
        <time>2024-04-24T11:22:24.968Z</time>
      </trkpt>
      <trkpt lat="52.562559" lon="13.394517">
        <ele>47.747999</ele>
        <time>2024-04-24T11:22:30.035Z</time>
      </trkpt>
      <trkpt lat="52.563240" lon="13.393743">
        <ele>48.452157</ele>
        <time>2024-04-24T11:22:51.479Z</time>
      </trkpt>
      <trkpt lat="52.563406" lon="13.393555">
        <ele>48.396586</ele>
        <time>2024-04-24T11:22:55.740Z</time>
      </trkpt>
      <trkpt lat="52.563626" lon="13.393304">
        <ele>48.322761</ele>
        <time>2024-04-24T11:23:01.890Z</time>
      </trkpt>
      <trkpt lat="52.563768" lon="13.393145">
        <ele>48.275396</ele>
        <time>2024-04-24T11:23:05.753Z</time>
      </trkpt>
      <trkpt lat="52.564088" lon="13.392782">
        <ele>48.168215</ele>
        <time>2024-04-24T11:23:14.191Z</time>
      </trkpt>
      <trkpt lat="52.564163" lon="13.392680">
        <ele>48.141382</ele>
        <time>2024-04-24T11:23:16.105Z</time>
      </trkpt>
      <trkpt lat="52.564192" lon="13.392736">
        <ele>48.129051</ele>
        <time>2024-04-24T11:23:17.022Z</time>
      </trkpt>
      <trkpt lat="52.564380" lon="13.393094">
        <ele>48.049754</ele>
        <time>2024-04-24T11:23:22.727Z</time>
      </trkpt>
      <trkpt lat="52.564440" lon="13.393212">
        <ele>48.023968</ele>
        <time>2024-04-24T11:23:24.485Z</time>
      </trkpt>
      <trkpt lat="52.564519" lon="13.393097">
        <ele>47.994880</ele>
        <time>2024-04-24T11:23:26.422Z</time>
      </trkpt>
      <trkpt lat="52.564832" lon="13.392582">
        <ele>47.520889</ele>
        <time>2024-04-24T11:23:34.885Z</time>
      </trkpt>
      <trkpt lat="52.565179" lon="13.391964">
        <ele>46.901628</ele>
        <time>2024-04-24T11:23:44.354Z</time>
      </trkpt>
      <trkpt lat="52.565203" lon="13.391924">
        <ele>46.860258</ele>
        <time>2024-04-24T11:23:44.980Z</time>
      </trkpt>
      <trkpt lat="52.565424" lon="13.391523">
        <ele>46.461840</ele>
        <time>2024-04-24T11:23:51.191Z</time>
      </trkpt>
      <trkpt lat="52.565486" lon="13.391353">
        <ele>46.315915</ele>
        <time>2024-04-24T11:23:53.398Z</time>
      </trkpt>
      <trkpt lat="52.565555" lon="13.391048">
        <ele>46.076372</ele>
        <time>2024-04-24T11:23:57.420Z</time>
      </trkpt>
      <trkpt lat="52.565582" lon="13.390784">
        <ele>45.879321</ele>
        <time>2024-04-24T11:24:00.583Z</time>
      </trkpt>
      <trkpt lat="52.565650" lon="13.390715">
        <ele>45.784861</ele>
        <time>2024-04-24T11:24:02.151Z</time>
      </trkpt>
      <trkpt lat="52.565986" lon="13.390529">
        <ele>45.416926</ele>
        <time>2024-04-24T11:24:08.701Z</time>
      </trkpt>
      <trkpt lat="52.566424" lon="13.389765">
        <ele>44.754393</ele>
        <time>2024-04-24T11:24:20.358Z</time>
      </trkpt>
      <trkpt lat="52.566466" lon="13.389693">
        <ele>44.691439</ele>
        <time>2024-04-24T11:24:21.540Z</time>
      </trkpt>
      <trkpt lat="52.566483" lon="13.389663">
        <ele>44.665564</ele>
        <time>2024-04-24T11:24:22.015Z</time>
      </trkpt>
      <trkpt lat="52.566963" lon="13.388818">
        <ele>43.935946</ele>
        <time>2024-04-24T11:24:36.412Z</time>
      </trkpt>
      <trkpt lat="52.567003" lon="13.388752">
        <ele>43.890781</ele>
        <time>2024-04-24T11:24:37.656Z</time>
      </trkpt>
      <trkpt lat="52.567092" lon="13.388872">
        <ele>43.801131</ele>
        <time>2024-04-24T11:24:40.101Z</time>
      </trkpt>
      <trkpt lat="52.567098" lon="13.388883">
        <ele>43.794132</ele>
        <time>2024-04-24T11:24:40.407Z</time>
      </trkpt>
      <trkpt lat="52.567246" lon="13.389120">
        <ele>43.633224</ele>
        <time>2024-04-24T11:24:44.668Z</time>
      </trkpt>
      <trkpt lat="52.567330" lon="13.389338">
        <ele>43.510993</ele>
        <time>2024-04-24T11:24:47.775Z</time>
      </trkpt>
      <trkpt lat="52.567465" lon="13.389770">
        <ele>43.280965</ele>
        <time>2024-04-24T11:24:53.372Z</time>
      </trkpt>
      <trkpt lat="52.567591" lon="13.390223">
        <ele>43.045053</ele>
        <time>2024-04-24T11:24:59.165Z</time>
      </trkpt>
      <trkpt lat="52.567651" lon="13.390444">
        <ele>42.930433</ele>
        <time>2024-04-24T11:25:01.870Z</time>
      </trkpt>
      <trkpt lat="52.567731" lon="13.390504">
        <ele>42.861935</ele>
        <time>2024-04-24T11:25:03.607Z</time>
      </trkpt>
      <trkpt lat="52.567796" lon="13.390704">
        <ele>42.754536</ele>
        <time>2024-04-24T11:25:06.375Z</time>
      </trkpt>
      <trkpt lat="52.567849" lon="13.390671">
        <ele>42.710386</ele>
        <time>2024-04-24T11:25:07.432Z</time>
      </trkpt>
      <trkpt lat="52.567868" lon="13.390676">
        <ele>42.695395</ele>
        <time>2024-04-24T11:25:07.813Z</time>
      </trkpt>
      <trkpt lat="52.568122" lon="13.390754">
        <ele>42.529161</ele>
        <time>2024-04-24T11:25:13.394Z</time>
      </trkpt>
      <trkpt lat="52.568165" lon="13.390814">
        <ele>42.527524</ele>
        <time>2024-04-24T11:25:14.564Z</time>
      </trkpt>
      <trkpt lat="52.568331" lon="13.390521">
        <ele>42.520459</ele>
        <time>2024-04-24T11:25:20.344Z</time>
      </trkpt>
      <trkpt lat="52.568455" lon="13.390292">
        <ele>42.515049</ele>
        <time>2024-04-24T11:25:24.651Z</time>
      </trkpt>
      <trkpt lat="52.568598" lon="13.390029">
        <ele>42.508825</ele>
        <time>2024-04-24T11:25:29.599Z</time>
      </trkpt>
      <trkpt lat="52.568683" lon="13.389876">
        <ele>42.505169</ele>
        <time>2024-04-24T11:25:32.268Z</time>
      </trkpt>
      <trkpt lat="52.568728" lon="13.389794">
        <ele>42.503220</ele>
        <time>2024-04-24T11:25:33.686Z</time>
      </trkpt>
      <trkpt lat="52.569295" lon="13.388757">
        <ele>42.478617</ele>
        <time>2024-04-24T11:25:52.338Z</time>
      </trkpt>
      <trkpt lat="52.569426" lon="13.388516">
        <ele>42.649177</ele>
        <time>2024-04-24T11:25:57.016Z</time>
      </trkpt>
      <trkpt lat="52.569812" lon="13.387820">
        <ele>43.174376</ele>
        <time>2024-04-24T11:26:12.523Z</time>
      </trkpt>
      <trkpt lat="52.569902" lon="13.387657">
        <ele>43.297128</ele>
        <time>2024-04-24T11:26:16.340Z</time>
      </trkpt>
      <trkpt lat="52.570200" lon="13.387118">
        <ele>43.703280</ele>
        <time>2024-04-24T11:26:28.387Z</time>
      </trkpt>
      <trkpt lat="52.570917" lon="13.385825">
        <ele>44.389316</ele>
        <time>2024-04-24T11:26:55.415Z</time>
      </trkpt>
      <trkpt lat="52.570951" lon="13.385762">
        <ele>44.411598</ele>
        <time>2024-04-24T11:26:56.663Z</time>
      </trkpt>
      <trkpt lat="52.572414" lon="13.383106">
        <ele>44.950434</ele>
        <time>2024-04-24T11:27:46.883Z</time>
      </trkpt>
      <trkpt lat="52.572369" lon="13.383000">
        <ele>44.953474</ele>
        <time>2024-04-24T11:27:48.545Z</time>
      </trkpt>
      <trkpt lat="52.572095" lon="13.382378">
        <ele>44.971530</ele>
        <time>2024-04-24T11:27:58.430Z</time>
      </trkpt>
      <trkpt lat="52.572135" lon="13.382307">
        <ele>44.973805</ele>
        <time>2024-04-24T11:27:59.700Z</time>
      </trkpt>
      <trkpt lat="52.572482" lon="13.381684">
        <ele>44.991749</ele>
        <time>2024-04-24T11:28:11.213Z</time>
      </trkpt>
      <trkpt lat="52.572541" lon="13.381561">
        <ele>44.994912</ele>
        <time>2024-04-24T11:28:13.137Z</time>
      </trkpt>
      <trkpt lat="52.572564" lon="13.381514">
        <ele>44.996130</ele>
        <time>2024-04-24T11:28:13.895Z</time>
      </trkpt>
      <trkpt lat="52.572591" lon="13.381459">
        <ele>44.997557</ele>
        <time>2024-04-24T11:28:14.786Z</time>
      </trkpt>
      <trkpt lat="52.572837" lon="13.381008">
        <ele>45.009788</ele>
        <time>2024-04-24T11:28:22.916Z</time>
      </trkpt>
      <trkpt lat="52.573104" lon="13.380522">
        <ele>45.023011</ele>
        <time>2024-04-24T11:28:32.201Z</time>
      </trkpt>
      <trkpt lat="52.573131" lon="13.380432">
        <ele>45.025037</ele>
        <time>2024-04-24T11:28:33.780Z</time>
      </trkpt>
      <trkpt lat="52.573138" lon="13.380318">
        <ele>45.027350</ele>
        <time>2024-04-24T11:28:35.474Z</time>
      </trkpt>
      <trkpt lat="52.573254" lon="13.380352">
        <ele>45.031263</ele>
        <time>2024-04-24T11:28:37.920Z</time>
      </trkpt>
      <trkpt lat="52.573587" lon="13.380444">
        <ele>45.043236</ele>
        <time>2024-04-24T11:28:45.581Z</time>
      </trkpt>
      <trkpt lat="52.574043" lon="13.380565">
        <ele>45.062958</ele>
        <time>2024-04-24T11:28:56.112Z</time>
      </trkpt>
      <trkpt lat="52.574298" lon="13.380632">
        <ele>45.073983</ele>
        <time>2024-04-24T11:29:02.218Z</time>
      </trkpt>
      <trkpt lat="52.574395" lon="13.380774">
        <ele>45.079527</ele>
        <time>2024-04-24T11:29:05.169Z</time>
      </trkpt>
      <trkpt lat="52.574434" lon="13.380843">
        <ele>45.081972</ele>
        <time>2024-04-24T11:29:06.580Z</time>
      </trkpt>
      <trkpt lat="52.574494" lon="13.380772">
        <ele>45.085127</ele>
        <time>2024-04-24T11:29:08.315Z</time>
      </trkpt>
      <trkpt lat="52.574590" lon="13.380659">
        <ele>45.090167</ele>
        <time>2024-04-24T11:29:10.807Z</time>
      </trkpt>
      <trkpt lat="52.574990" lon="13.380199">
        <ele>45.111004</ele>
        <time>2024-04-24T11:29:21.452Z</time>
      </trkpt>
      <trkpt lat="52.574951" lon="13.380083">
        <ele>45.114444</ele>
        <time>2024-04-24T11:29:23.287Z</time>
      </trkpt>
      <trkpt lat="52.574897" lon="13.377757">
        <ele>44.688681</ele>
        <time>2024-04-24T11:29:54.214Z</time>
      </trkpt>
      <trkpt lat="52.574965" lon="13.377682">
        <ele>44.662992</ele>
        <time>2024-04-24T11:29:55.937Z</time>
      </trkpt>
      <trkpt lat="52.575308" lon="13.377202">
        <ele>44.537140</ele>
        <time>2024-04-24T11:30:05.417Z</time>
      </trkpt>
      <trkpt lat="52.575977" lon="13.376224">
        <ele>44.398533</ele>
        <time>2024-04-24T11:30:24.592Z</time>
      </trkpt>
      <trkpt lat="52.576148" lon="13.375988">
        <ele>44.363965</ele>
        <time>2024-04-24T11:30:29.450Z</time>
      </trkpt>
      <trkpt lat="52.576406" lon="13.375426">
        <ele>44.297669</ele>
        <time>2024-04-24T11:30:38.936Z</time>
      </trkpt>
      <trkpt lat="52.577207" lon="13.373500">
        <ele>44.445519</ele>
        <time>2024-04-24T11:31:11.174Z</time>
      </trkpt>
      <trkpt lat="52.577750" lon="13.372228">
        <ele>44.547760</ele>
        <time>2024-04-24T11:31:32.991Z</time>
      </trkpt>
      <trkpt lat="52.578258" lon="13.371197">
        <ele>44.605580</ele>
        <time>2024-04-24T11:31:51.725Z</time>
      </trkpt>
      <trkpt lat="52.579341" lon="13.369090">
        <ele>44.109553</ele>
        <time>2024-04-24T11:32:27.422Z</time>
      </trkpt>
      <trkpt lat="52.579409" lon="13.368887">
        <ele>44.040293</ele>
        <time>2024-04-24T11:32:30.249Z</time>
      </trkpt>
      <trkpt lat="52.579426" lon="13.368488">
        <ele>43.920783</ele>
        <time>2024-04-24T11:32:34.987Z</time>
      </trkpt>
      <trkpt lat="52.579831" lon="13.367737">
        <ele>43.541812</ele>
        <time>2024-04-24T11:32:46.782Z</time>
      </trkpt>
      <trkpt lat="52.580375" lon="13.366706">
        <ele>42.907323</ele>
        <time>2024-04-24T11:33:02.974Z</time>
      </trkpt>
      <trkpt lat="52.580428" lon="13.366647">
        <ele>42.858392</ele>
        <time>2024-04-24T11:33:04.234Z</time>
      </trkpt>
      <trkpt lat="52.580518" lon="13.366547">
        <ele>42.775350</ele>
        <time>2024-04-24T11:33:06.435Z</time>
      </trkpt>
      <trkpt lat="52.580679" lon="13.366490">
        <ele>42.649416</ele>
        <time>2024-04-24T11:33:09.781Z</time>
      </trkpt>
      <trkpt lat="52.580855" lon="13.366302">
        <ele>42.488962</ele>
        <time>2024-04-24T11:33:13.996Z</time>
      </trkpt>
      <trkpt lat="52.580963" lon="13.366083">
        <ele>42.401157</ele>
        <time>2024-04-24T11:33:17.453Z</time>
      </trkpt>
      <trkpt lat="52.581296" lon="13.365187">
        <ele>42.625231</ele>
        <time>2024-04-24T11:33:31.087Z</time>
      </trkpt>
      <trkpt lat="52.581448" lon="13.364858">
        <ele>42.713404</ele>
        <time>2024-04-24T11:33:37.093Z</time>
      </trkpt>
      <trkpt lat="52.581458" lon="13.364635">
        <ele>42.761108</ele>
        <time>2024-04-24T11:33:40.496Z</time>
      </trkpt>
      <trkpt lat="52.581427" lon="13.364434">
        <ele>42.805349</ele>
        <time>2024-04-24T11:33:43.773Z</time>
      </trkpt>
      <trkpt lat="52.581452" lon="13.364044">
        <ele>42.889014</ele>
        <time>2024-04-24T11:33:50.143Z</time>
      </trkpt>
      <trkpt lat="52.581471" lon="13.363909">
        <ele>42.918577</ele>
        <time>2024-04-24T11:33:52.368Z</time>
      </trkpt>
      <trkpt lat="52.581321" lon="13.363813">
        <ele>42.975084</ele>
        <time>2024-04-24T11:33:56.788Z</time>
      </trkpt>
      <trkpt lat="52.581351" lon="13.363685">
        <ele>43.004353</ele>
        <time>2024-04-24T11:33:58.983Z</time>
      </trkpt>
      <trkpt lat="52.581759" lon="13.362918">
        <ele>43.440880</ele>
        <time>2024-04-24T11:34:14.901Z</time>
      </trkpt>
      <trkpt lat="52.581846" lon="13.362817">
        <ele>43.518642</ele>
        <time>2024-04-24T11:34:17.572Z</time>
      </trkpt>
      <trkpt lat="52.581955" lon="13.362751">
        <ele>43.603470</ele>
        <time>2024-04-24T11:34:20.493Z</time>
      </trkpt>
      <trkpt lat="52.582170" lon="13.362400">
        <ele>43.824658</ele>
        <time>2024-04-24T11:34:28.044Z</time>
      </trkpt>
      <trkpt lat="52.582984" lon="13.360927">
        <ele>44.475140</ele>
        <time>2024-04-24T11:34:57.918Z</time>
      </trkpt>
      <trkpt lat="52.583257" lon="13.360425">
        <ele>44.588509</ele>
        <time>2024-04-24T11:35:07.142Z</time>
      </trkpt>
      <trkpt lat="52.583274" lon="13.360327">
        <ele>44.605659</ele>
        <time>2024-04-24T11:35:08.495Z</time>
      </trkpt>
      <trkpt lat="52.583270" lon="13.359842">
        <ele>44.687281</ele>
        <time>2024-04-24T11:35:14.931Z</time>
      </trkpt>
      <trkpt lat="52.585271" lon="13.356188">
        <ele>45.426469</ele>
        <time>2024-04-24T11:36:24.251Z</time>
      </trkpt>
      <trkpt lat="52.585588" lon="13.355613">
        <ele>45.553624</ele>
        <time>2024-04-24T11:36:35.449Z</time>
      </trkpt>
      <trkpt lat="52.587561" lon="13.352033">
        <ele>45.903837</ele>
        <time>2024-04-24T11:37:43.125Z</time>
      </trkpt>
      <trkpt lat="52.587625" lon="13.351978">
        <ele>45.880806</ele>
        <time>2024-04-24T11:37:44.664Z</time>
      </trkpt>
      <trkpt lat="52.588184" lon="13.351059">
        <ele>45.628775</ele>
        <time>2024-04-24T11:38:01.043Z</time>
      </trkpt>
      <trkpt lat="52.589539" lon="13.348387">
        <ele>44.637858</ele>
        <time>2024-04-24T11:38:43.446Z</time>
      </trkpt>
      <trkpt lat="52.589623" lon="13.348346">
        <ele>44.593219</ele>
        <time>2024-04-24T11:38:45.422Z</time>
      </trkpt>
      <trkpt lat="52.589940" lon="13.347765">
        <ele>44.769961</ele>
        <time>2024-04-24T11:38:56.449Z</time>
      </trkpt>
      <trkpt lat="52.589976" lon="13.347737">
        <ele>44.788942</ele>
        <time>2024-04-24T11:38:57.366Z</time>
      </trkpt>
      <trkpt lat="52.590020" lon="13.347702">
        <ele>44.812238</ele>
        <time>2024-04-24T11:38:58.553Z</time>
      </trkpt>
      <trkpt lat="52.590184" lon="13.347412">
        <ele>44.926984</ele>
        <time>2024-04-24T11:39:04.444Z</time>
      </trkpt>
      <trkpt lat="52.590238" lon="13.347389">
        <ele>44.953574</ele>
        <time>2024-04-24T11:39:05.789Z</time>
      </trkpt>
      <trkpt lat="52.590284" lon="13.347413">
        <ele>44.976579</ele>
        <time>2024-04-24T11:39:06.960Z</time>
      </trkpt>
      <trkpt lat="52.590342" lon="13.347516">
        <ele>45.017252</ele>
        <time>2024-04-24T11:39:09.063Z</time>
      </trkpt>
      <trkpt lat="52.590550" lon="13.348344">
        <ele>45.276744</ele>
        <time>2024-04-24T11:39:22.480Z</time>
      </trkpt>
      <trkpt lat="52.590618" lon="13.348624">
        <ele>45.364074</ele>
        <time>2024-04-24T11:39:27.005Z</time>
      </trkpt>
      <trkpt lat="52.590668" lon="13.348833">
        <ele>45.433179</ele>
        <time>2024-04-24T11:39:30.640Z</time>
      </trkpt>
      <trkpt lat="52.590890" lon="13.349236">
        <ele>45.750715</ele>
        <time>2024-04-24T11:39:39.548Z</time>
      </trkpt>
      <trkpt lat="52.590913" lon="13.349601">
        <ele>45.964906</ele>
        <time>2024-04-24T11:39:45.789Z</time>
      </trkpt>
      <trkpt lat="52.590959" lon="13.350315">
        <ele>46.383999</ele>
        <time>2024-04-24T11:39:57.728Z</time>
      </trkpt>
      <trkpt lat="52.591021" lon="13.350470">
        <ele>46.492322</ele>
        <time>2024-04-24T11:40:00.813Z</time>
      </trkpt>
      <trkpt lat="52.591079" lon="13.351294">
        <ele>46.976500</ele>
        <time>2024-04-24T11:40:13.313Z</time>
      </trkpt>
      <trkpt lat="52.591120" lon="13.351889">
        <ele>47.197305</ele>
        <time>2024-04-24T11:40:22.136Z</time>
      </trkpt>
      <trkpt lat="52.591182" lon="13.352762">
        <ele>47.328044</ele>
        <time>2024-04-24T11:40:34.916Z</time>
      </trkpt>
      <trkpt lat="52.591216" lon="13.354378">
        <ele>47.568559</ele>
        <time>2024-04-24T11:40:57.380Z</time>
      </trkpt>
      <trkpt lat="52.591210" lon="13.354609">
        <ele>47.602910</ele>
        <time>2024-04-24T11:41:00.352Z</time>
      </trkpt>
      <trkpt lat="52.591171" lon="13.355607">
        <ele>47.751001</ele>
        <time>2024-04-24T11:41:14.042Z</time>
      </trkpt>
      <trkpt lat="52.591203" lon="13.356111">
        <ele>47.826041</ele>
        <time>2024-04-24T11:41:21.326Z</time>
      </trkpt>
      <trkpt lat="52.591229" lon="13.356509">
        <ele>47.885317</ele>
        <time>2024-04-24T11:41:27.021Z</time>
      </trkpt>
      <trkpt lat="52.591302" lon="13.357693">
        <ele>48.106420</ele>
        <time>2024-04-24T11:41:44.131Z</time>
      </trkpt>
      <trkpt lat="52.591356" lon="13.358500">
        <ele>48.409930</ele>
        <time>2024-04-24T11:41:55.649Z</time>
      </trkpt>
      <trkpt lat="52.591379" lon="13.359076">
        <ele>48.625724</ele>
        <time>2024-04-24T11:42:04.001Z</time>
      </trkpt>
      <trkpt lat="52.591608" lon="13.360664">
        <ele>49.178330</ele>
        <time>2024-04-24T11:42:30.069Z</time>
      </trkpt>
      <trkpt lat="52.591621" lon="13.360756">
        <ele>49.192678</ele>
        <time>2024-04-24T11:42:31.460Z</time>
      </trkpt>
      <trkpt lat="52.591623" lon="13.360858">
        <ele>49.208180</ele>
        <time>2024-04-24T11:42:33.003Z</time>
      </trkpt>
      <trkpt lat="52.591626" lon="13.360901">
        <ele>49.214755</ele>
        <time>2024-04-24T11:42:33.658Z</time>
      </trkpt>
      <trkpt lat="52.591685" lon="13.361094">
        <ele>49.247574</ele>
        <time>2024-04-24T11:42:36.919Z</time>
      </trkpt>
      <trkpt lat="52.591791" lon="13.361234">
        <ele>49.281556</ele>
        <time>2024-04-24T11:42:39.997Z</time>
      </trkpt>
      <trkpt lat="52.592249" lon="13.361776">
        <ele>49.422601</ele>
        <time>2024-04-24T11:42:52.638Z</time>
      </trkpt>
      <trkpt lat="52.592252" lon="13.361779">
        <ele>49.423479</ele>
        <time>2024-04-24T11:42:52.706Z</time>
      </trkpt>
      <trkpt lat="52.593078" lon="13.362776">
        <ele>49.534476</ele>
        <time>2024-04-24T11:43:15.631Z</time>
      </trkpt>
      <trkpt lat="52.593105" lon="13.362808">
        <ele>49.529514</ele>
        <time>2024-04-24T11:43:16.414Z</time>
      </trkpt>
      <trkpt lat="52.593224" lon="13.362955">
        <ele>49.507324</ele>
        <time>2024-04-24T11:43:19.844Z</time>
      </trkpt>
      <trkpt lat="52.593719" lon="13.363557">
        <ele>49.415534</ele>
        <time>2024-04-24T11:43:32.774Z</time>
      </trkpt>
      <trkpt lat="52.594084" lon="13.363993">
        <ele>49.348274</ele>
        <time>2024-04-24T11:43:42.245Z</time>
      </trkpt>
      <trkpt lat="52.594440" lon="13.364420">
        <ele>49.311621</ele>
        <time>2024-04-24T11:43:51.811Z</time>
      </trkpt>
      <trkpt lat="52.594471" lon="13.364458">
        <ele>49.310280</ele>
        <time>2024-04-24T11:43:52.658Z</time>
      </trkpt>
      <trkpt lat="52.594938" lon="13.365024">
        <ele>49.290148</ele>
        <time>2024-04-24T11:44:06.121Z</time>
      </trkpt>
      <trkpt lat="52.595227" lon="13.365377">
        <ele>49.277655</ele>
        <time>2024-04-24T11:44:14.762Z</time>
      </trkpt>
      <trkpt lat="52.595291" lon="13.365450">
        <ele>49.274952</ele>
        <time>2024-04-24T11:44:16.611Z</time>
      </trkpt>
      <trkpt lat="52.595731" lon="13.365986">
        <ele>49.205563</ele>
        <time>2024-04-24T11:44:28.123Z</time>
      </trkpt>
      <trkpt lat="52.595816" lon="13.366091">
        <ele>49.110817</ele>
        <time>2024-04-24T11:44:30.208Z</time>
      </trkpt>
      <trkpt lat="52.596284" lon="13.366652">
        <ele>48.594669</ele>
        <time>2024-04-24T11:44:41.652Z</time>
      </trkpt>
      <trkpt lat="52.596418" lon="13.366809">
        <ele>48.448031</ele>
        <time>2024-04-24T11:44:44.914Z</time>
      </trkpt>
      <trkpt lat="52.597191" lon="13.367726">
        <ele>47.593378</ele>
        <time>2024-04-24T11:45:02.926Z</time>
      </trkpt>
      <trkpt lat="52.597297" lon="13.367788">
        <ele>47.483768</ele>
        <time>2024-04-24T11:45:05.074Z</time>
      </trkpt>
      <trkpt lat="52.597307" lon="13.367980">
        <ele>47.369716</ele>
        <time>2024-04-24T11:45:07.331Z</time>
      </trkpt>
      <trkpt lat="52.597409" lon="13.368072">
        <ele>47.256390</ele>
        <time>2024-04-24T11:45:09.469Z</time>
      </trkpt>
      <trkpt lat="52.599482" lon="13.370524">
        <ele>45.093084</ele>
        <time>2024-04-24T11:45:59.584Z</time>
      </trkpt>
      <trkpt lat="52.600048" lon="13.370990">
        <ele>44.652784</ele>
        <time>2024-04-24T11:46:12.860Z</time>
      </trkpt>
      <trkpt lat="52.600119" lon="13.371046">
        <ele>44.635233</ele>
        <time>2024-04-24T11:46:14.336Z</time>
      </trkpt>
      <trkpt lat="52.599707" lon="13.371534">
        <ele>44.533185</ele>
        <time>2024-04-24T11:46:25.035Z</time>
      </trkpt>
      <trkpt lat="52.599768" lon="13.371590">
        <ele>44.519142</ele>
        <time>2024-04-24T11:46:26.405Z</time>
      </trkpt>
      <trkpt lat="52.599895" lon="13.371703">
        <ele>44.490116</ele>
        <time>2024-04-24T11:46:29.143Z</time>
      </trkpt>
      <trkpt lat="52.601349" lon="13.372719">
        <ele>44.672817</ele>
        <time>2024-04-24T11:47:04.525Z</time>
      </trkpt>
      <trkpt lat="52.602795" lon="13.373802">
        <ele>45.909697</ele>
        <time>2024-04-24T11:47:46.034Z</time>
      </trkpt>
      <trkpt lat="52.603724" lon="13.374573">
        <ele>47.113131</ele>
        <time>2024-04-24T11:48:14.733Z</time>
      </trkpt>
      <trkpt lat="52.604012" lon="13.374822">
        <ele>47.489416</ele>
        <time>2024-04-24T11:48:23.455Z</time>
      </trkpt>
      <trkpt lat="52.604766" lon="13.375473">
        <ele>47.969400</ele>
        <time>2024-04-24T11:48:45.275Z</time>
      </trkpt>
      <trkpt lat="52.605268" lon="13.375795">
        <ele>48.246631</ele>
        <time>2024-04-24T11:48:58.296Z</time>
      </trkpt>
      <trkpt lat="52.605624" lon="13.375972">
        <ele>48.437992</ele>
        <time>2024-04-24T11:49:06.819Z</time>
      </trkpt>
      <trkpt lat="52.605813" lon="13.376045">
        <ele>48.437431</ele>
        <time>2024-04-24T11:49:11.123Z</time>
      </trkpt>
      <trkpt lat="52.606427" lon="13.376165">
        <ele>48.082320</ele>
        <time>2024-04-24T11:49:24.197Z</time>
      </trkpt>
      <trkpt lat="52.606568" lon="13.376181">
        <ele>48.001149</ele>
        <time>2024-04-24T11:49:27.127Z</time>
      </trkpt>
      <trkpt lat="52.606608" lon="13.376188">
        <ele>47.978046</ele>
        <time>2024-04-24T11:49:27.935Z</time>
      </trkpt>
      <trkpt lat="52.606857" lon="13.376247">
        <ele>47.833567</ele>
        <time>2024-04-24T11:49:32.965Z</time>
      </trkpt>
      <trkpt lat="52.607578" lon="13.376393">
        <ele>47.402608</ele>
        <time>2024-04-24T11:49:47.019Z</time>
      </trkpt>
      <trkpt lat="52.608402" lon="13.376955">
        <ele>46.718792</ele>
        <time>2024-04-24T11:50:04.036Z</time>
      </trkpt>
      <trkpt lat="52.609269" lon="13.377525">
        <ele>46.117551</ele>
        <time>2024-04-24T11:50:22.723Z</time>
      </trkpt>
      <trkpt lat="52.609317" lon="13.377518">
        <ele>46.136768</ele>
        <time>2024-04-24T11:50:23.720Z</time>
      </trkpt>
      <trkpt lat="52.609408" lon="13.377439">
        <ele>46.177793</ele>
        <time>2024-04-24T11:50:26.015Z</time>
      </trkpt>
      <trkpt lat="52.611249" lon="13.378706">
        <ele>47.644529</ele>
        <time>2024-04-24T11:51:15.328Z</time>
      </trkpt>
      <trkpt lat="52.611429" lon="13.378689">
        <ele>47.987713</ele>
        <time>2024-04-24T11:51:20.584Z</time>
      </trkpt>
      <trkpt lat="52.611636" lon="13.378558">
        <ele>48.409817</ele>
        <time>2024-04-24T11:51:26.962Z</time>
      </trkpt>
      <trkpt lat="52.615836" lon="13.375364">
        <ele>57.344441</ele>
        <time>2024-04-24T11:53:49.809Z</time>
      </trkpt>
      <trkpt lat="52.615885" lon="13.375328">
        <ele>57.381568</ele>
        <time>2024-04-24T11:53:51.302Z</time>
      </trkpt>
      <trkpt lat="52.617126" lon="13.374411">
        <ele>58.322775</ele>
        <time>2024-04-24T11:54:25.529Z</time>
      </trkpt>
      <trkpt lat="52.617983" lon="13.373823">
        <ele>57.950473</ele>
        <time>2024-04-24T11:54:45.005Z</time>
      </trkpt>
      <trkpt lat="52.620485" lon="13.372052">
        <ele>54.073315</ele>
        <time>2024-04-24T11:55:35.782Z</time>
      </trkpt>
      <trkpt lat="52.621666" lon="13.371156">
        <ele>49.214331</ele>
        <time>2024-04-24T11:55:56.517Z</time>
      </trkpt>
      <trkpt lat="52.622278" lon="13.370629">
        <ele>46.310323</ele>
        <time>2024-04-24T11:56:06.854Z</time>
      </trkpt>
      <trkpt lat="52.623887" lon="13.368937">
        <ele>36.723856</ele>
        <time>2024-04-24T11:56:35.312Z</time>
      </trkpt>
      <trkpt lat="52.624335" lon="13.368390">
        <ele>35.531125</ele>
        <time>2024-04-24T11:56:44.419Z</time>
      </trkpt>
      <trkpt lat="52.624577" lon="13.368024">
        <ele>34.828455</ele>
        <time>2024-04-24T11:56:50.113Z</time>
      </trkpt>
      <trkpt lat="52.624891" lon="13.367750">
        <ele>34.068440</ele>
        <time>2024-04-24T11:56:56.651Z</time>
      </trkpt>
      <trkpt lat="52.625034" lon="13.367698">
        <ele>33.755215</ele>
        <time>2024-04-24T11:56:59.477Z</time>
      </trkpt>
      <trkpt lat="52.625522" lon="13.367507">
        <ele>33.111217</ele>
        <time>2024-04-24T11:57:10.003Z</time>
      </trkpt>
      <trkpt lat="52.625701" lon="13.367405">
        <ele>33.281972</ele>
        <time>2024-04-24T11:57:14.310Z</time>
      </trkpt>
      <trkpt lat="52.625919" lon="13.367077">
        <ele>33.548139</ele>
        <time>2024-04-24T11:57:21.509Z</time>
      </trkpt>
      <trkpt lat="52.625997" lon="13.366957">
        <ele>33.644353</ele>
        <time>2024-04-24T11:57:24.246Z</time>
      </trkpt>
      <trkpt lat="52.626333" lon="13.366582">
        <ele>34.010237</ele>
        <time>2024-04-24T11:57:35.566Z</time>
      </trkpt>
      <trkpt lat="52.626735" lon="13.366203">
        <ele>34.427802</ele>
        <time>2024-04-24T11:57:48.930Z</time>
      </trkpt>
      <trkpt lat="52.626769" lon="13.366072">
        <ele>34.505768</ele>
        <time>2024-04-24T11:57:51.417Z</time>
      </trkpt>
      <trkpt lat="52.626770" lon="13.365724">
        <ele>34.711292</ele>
        <time>2024-04-24T11:57:57.230Z</time>
      </trkpt>
      <trkpt lat="52.626754" lon="13.364448">
        <ele>35.525980</ele>
        <time>2024-04-24T11:58:18.389Z</time>
      </trkpt>
      <trkpt lat="52.626729" lon="13.362655">
        <ele>36.442092</ele>
        <time>2024-04-24T11:58:47.302Z</time>
      </trkpt>
      <trkpt lat="52.626697" lon="13.360614">
        <ele>36.029704</ele>
        <time>2024-04-24T11:59:12.391Z</time>
      </trkpt>
      <trkpt lat="52.626720" lon="13.360266">
        <ele>35.958998</ele>
        <time>2024-04-24T11:59:16.476Z</time>
      </trkpt>
      <trkpt lat="52.627068" lon="13.357777">
        <ele>35.173739</ele>
        <time>2024-04-24T11:59:47.893Z</time>
      </trkpt>
      <trkpt lat="52.627201" lon="13.356867">
        <ele>34.959643</ele>
        <time>2024-04-24T11:59:59.776Z</time>
      </trkpt>
      <trkpt lat="52.627391" lon="13.355731">
        <ele>35.029705</ele>
        <time>2024-04-24T12:00:16.008Z</time>
      </trkpt>
      <trkpt lat="52.627468" lon="13.355226">
        <ele>35.060664</ele>
        <time>2024-04-24T12:00:23.710Z</time>
      </trkpt>
      <trkpt lat="52.627454" lon="13.355044">
        <ele>35.071571</ele>
        <time>2024-04-24T12:00:26.504Z</time>
      </trkpt>
      <trkpt lat="52.626794" lon="13.352663">
        <ele>35.087798</ele>
        <time>2024-04-24T12:01:02.214Z</time>
      </trkpt>
      <trkpt lat="52.626472" lon="13.351503">
        <ele>35.039493</ele>
        <time>2024-04-24T12:01:19.174Z</time>
      </trkpt>
      <trkpt lat="52.626449" lon="13.351422">
        <ele>35.010598</ele>
        <time>2024-04-24T12:01:20.252Z</time>
      </trkpt>
      <trkpt lat="52.626415" lon="13.351306">
        <ele>34.968975</ele>
        <time>2024-04-24T12:01:21.835Z</time>
      </trkpt>
      <trkpt lat="52.626376" lon="13.351151">
        <ele>34.914758</ele>
        <time>2024-04-24T12:01:23.972Z</time>
      </trkpt>
      <trkpt lat="52.626393" lon="13.349805">
        <ele>34.479737</ele>
        <time>2024-04-24T12:01:40.538Z</time>
      </trkpt>
      <trkpt lat="52.626404" lon="13.349179">
        <ele>34.277376</ele>
        <time>2024-04-24T12:01:50.817Z</time>
      </trkpt>
      <trkpt lat="52.626412" lon="13.348738">
        <ele>34.134815</ele>
        <time>2024-04-24T12:01:57.991Z</time>
      </trkpt>
      <trkpt lat="52.626378" lon="13.346994">
        <ele>33.847051</ele>
        <time>2024-04-24T12:02:26.994Z</time>
      </trkpt>
      <trkpt lat="52.626377" lon="13.346880">
        <ele>33.829187</ele>
        <time>2024-04-24T12:02:28.900Z</time>
      </trkpt>
      <trkpt lat="52.626733" lon="13.344933">
        <ele>33.899573</ele>
        <time>2024-04-24T12:03:05.792Z</time>
      </trkpt>
      <trkpt lat="52.626824" lon="13.344672">
        <ele>33.991321</ele>
        <time>2024-04-24T12:03:11.587Z</time>
      </trkpt>
      <trkpt lat="52.626866" lon="13.344592">
        <ele>34.023562</ele>
        <time>2024-04-24T12:03:13.386Z</time>
      </trkpt>
      <trkpt lat="52.626941" lon="13.344317">
        <ele>34.115460</ele>
        <time>2024-04-24T12:03:18.304Z</time>
      </trkpt>
      <trkpt lat="52.627046" lon="13.343849">
        <ele>34.267547</ele>
        <time>2024-04-24T12:03:26.503Z</time>
      </trkpt>
      <trkpt lat="52.627299" lon="13.343589">
        <ele>34.417288</ele>
        <time>2024-04-24T12:03:34.830Z</time>
      </trkpt>
      <trkpt lat="52.627309" lon="13.343158">
        <ele>34.548557</ele>
        <time>2024-04-24T12:03:41.263Z</time>
      </trkpt>
      <trkpt lat="52.627375" lon="13.342837">
        <ele>34.644616</ele>
        <time>2024-04-24T12:03:46.600Z</time>
      </trkpt>
      <trkpt lat="52.627396" lon="13.342734">
        <ele>34.675412</ele>
        <time>2024-04-24T12:03:48.302Z</time>
      </trkpt>
      <trkpt lat="52.627760" lon="13.341004">
        <ele>35.194365</ele>
        <time>2024-04-24T12:04:15.668Z</time>
      </trkpt>
      <trkpt lat="52.627801" lon="13.340452">
        <ele>35.351983</ele>
        <time>2024-04-24T12:04:22.880Z</time>
      </trkpt>
      <trkpt lat="52.627810" lon="13.340245">
        <ele>35.398975</ele>
        <time>2024-04-24T12:04:25.715Z</time>
      </trkpt>
      <trkpt lat="52.627809" lon="13.338735">
        <ele>35.625064</ele>
        <time>2024-04-24T12:04:46.449Z</time>
      </trkpt>
      <trkpt lat="52.627808" lon="13.338173">
        <ele>35.709211</ele>
        <time>2024-04-24T12:04:54.774Z</time>
      </trkpt>
      <trkpt lat="52.627765" lon="13.337316">
        <ele>35.864528</ele>
        <time>2024-04-24T12:05:06.809Z</time>
      </trkpt>
      <trkpt lat="52.627686" lon="13.336111">
        <ele>36.609053</ele>
        <time>2024-04-24T12:05:25.816Z</time>
      </trkpt>
      <trkpt lat="52.627665" lon="13.335802">
        <ele>36.800055</ele>
        <time>2024-04-24T12:05:31.140Z</time>
      </trkpt>
      <trkpt lat="52.627609" lon="13.334936">
        <ele>37.335041</ele>
        <time>2024-04-24T12:05:46.087Z</time>
      </trkpt>
      <trkpt lat="52.627902" lon="13.333772">
        <ele>38.177452</ele>
        <time>2024-04-24T12:06:08.298Z</time>
      </trkpt>
      <trkpt lat="52.628151" lon="13.332429">
        <ele>39.168360</ele>
        <time>2024-04-24T12:06:32.417Z</time>
      </trkpt>
      <trkpt lat="52.628260" lon="13.331805">
        <ele>39.626553</ele>
        <time>2024-04-24T12:06:43.323Z</time>
      </trkpt>
      <trkpt lat="52.628226" lon="13.331734">
        <ele>39.690368</ele>
        <time>2024-04-24T12:06:45.036Z</time>
      </trkpt>
      <trkpt lat="52.627942" lon="13.331150">
        <ele>39.778582</ele>
        <time>2024-04-24T12:06:59.425Z</time>
      </trkpt>
      <trkpt lat="52.627912" lon="13.330956">
        <ele>39.789793</ele>
        <time>2024-04-24T12:07:03.202Z</time>
      </trkpt>
      <trkpt lat="52.626781" lon="13.328804">
        <ele>39.826732</ele>
        <time>2024-04-24T12:07:40.197Z</time>
      </trkpt>
      <trkpt lat="52.626214" lon="13.327771">
        <ele>39.680472</ele>
        <time>2024-04-24T12:07:58.163Z</time>
      </trkpt>
      <trkpt lat="52.626003" lon="13.327452">
        <ele>39.630924</ele>
        <time>2024-04-24T12:08:04.482Z</time>
      </trkpt>
      <trkpt lat="52.625722" lon="13.327133">
        <ele>39.629305</ele>
        <time>2024-04-24T12:08:12.157Z</time>
      </trkpt>
      <trkpt lat="52.625554" lon="13.326791">
        <ele>39.695817</ele>
        <time>2024-04-24T12:08:18.206Z</time>
      </trkpt>
      <trkpt lat="52.625472" lon="13.326226">
        <ele>39.783641</ele>
        <time>2024-04-24T12:08:26.208Z</time>
      </trkpt>
      <trkpt lat="52.625392" lon="13.325260">
        <ele>39.931034</ele>
        <time>2024-04-24T12:08:39.947Z</time>
      </trkpt>
      <trkpt lat="52.625481" lon="13.325230">
        <ele>39.953659</ele>
        <time>2024-04-24T12:08:42.127Z</time>
      </trkpt>
      <trkpt lat="52.625510" lon="13.325178">
        <ele>39.964334</ele>
        <time>2024-04-24T12:08:43.143Z</time>
      </trkpt>
      <trkpt lat="52.625662" lon="13.324528">
        <ele>40.090557</ele>
        <time>2024-04-24T12:08:53.645Z</time>
      </trkpt>
      <trkpt lat="52.625909" lon="13.323379">
        <ele>40.421582</ele>
        <time>2024-04-24T12:09:11.696Z</time>
      </trkpt>
      <trkpt lat="52.626006" lon="13.322083">
        <ele>40.776202</ele>
        <time>2024-04-24T12:09:30.526Z</time>
      </trkpt>
      <trkpt lat="52.626050" lon="13.321213">
        <ele>40.945007</ele>
        <time>2024-04-24T12:09:43.118Z</time>
      </trkpt>
      <trkpt lat="52.626095" lon="13.320459">
        <ele>41.065730</ele>
        <time>2024-04-24T12:09:53.904Z</time>
      </trkpt>
      <trkpt lat="52.626144" lon="13.319322">
        <ele>41.247358</ele>
        <time>2024-04-24T12:10:09.786Z</time>
      </trkpt>
      <trkpt lat="52.626177" lon="13.319015">
        <ele>41.297036</ele>
        <time>2024-04-24T12:10:14.095Z</time>
      </trkpt>
      <trkpt lat="52.626239" lon="13.318704">
        <ele>41.376587</ele>
        <time>2024-04-24T12:10:18.640Z</time>
      </trkpt>
      <trkpt lat="52.626561" lon="13.317713">
        <ele>41.724939</ele>
        <time>2024-04-24T12:10:34.602Z</time>
      </trkpt>
      <trkpt lat="52.626650" lon="13.317396">
        <ele>41.833179</ele>
        <time>2024-04-24T12:10:39.733Z</time>
      </trkpt>
      <trkpt lat="52.626688" lon="13.317144">
        <ele>41.913650</ele>
        <time>2024-04-24T12:10:43.601Z</time>
      </trkpt>
      <trkpt lat="52.626810" lon="13.316165">
        <ele>42.223377</ele>
        <time>2024-04-24T12:10:58.925Z</time>
      </trkpt>
      <trkpt lat="52.626951" lon="13.315359">
        <ele>42.714464</ele>
        <time>2024-04-24T12:11:12.098Z</time>
      </trkpt>
      <trkpt lat="52.626954" lon="13.315343">
        <ele>42.724553</ele>
        <time>2024-04-24T12:11:12.372Z</time>
      </trkpt>
      <trkpt lat="52.627127" lon="13.314741">
        <ele>43.125847</ele>
        <time>2024-04-24T12:11:22.876Z</time>
      </trkpt>
      <trkpt lat="52.627409" lon="13.313933">
        <ele>43.687389</ele>
        <time>2024-04-24T12:11:37.710Z</time>
      </trkpt>
      <trkpt lat="52.627538" lon="13.313471">
        <ele>43.993774</ele>
        <time>2024-04-24T12:11:45.861Z</time>
      </trkpt>
      <trkpt lat="52.627605" lon="13.313108">
        <ele>44.304333</ele>
        <time>2024-04-24T12:11:52.101Z</time>
      </trkpt>
      <trkpt lat="52.627614" lon="13.312563">
        <ele>44.768396</ele>
        <time>2024-04-24T12:12:01.299Z</time>
      </trkpt>
      <trkpt lat="52.627592" lon="13.311475">
        <ele>45.694990</ele>
        <time>2024-04-24T12:12:19.858Z</time>
      </trkpt>
      <trkpt lat="52.627890" lon="13.311377">
        <ele>46.121115</ele>
        <time>2024-04-24T12:12:30.396Z</time>
      </trkpt>
      <trkpt lat="52.628311" lon="13.311229">
        <ele>46.757330</ele>
        <time>2024-04-24T12:12:45.788Z</time>
      </trkpt>
      <trkpt lat="52.628910" lon="13.310978">
        <ele>47.781907</ele>
        <time>2024-04-24T12:13:07.979Z</time>
      </trkpt>
      <trkpt lat="52.629038" lon="13.310931">
        <ele>47.999299</ele>
        <time>2024-04-24T12:13:12.736Z</time>
      </trkpt>
      <trkpt lat="52.629233" lon="13.310858">
        <ele>48.330790</ele>
        <time>2024-04-24T12:13:19.993Z</time>
      </trkpt>
      <trkpt lat="52.629636" lon="13.310719">
        <ele>49.013327</ele>
        <time>2024-04-24T12:13:35.130Z</time>
      </trkpt>
      <trkpt lat="52.630441" lon="13.310523">
        <ele>50.325041</ele>
        <time>2024-04-24T12:14:03.846Z</time>
      </trkpt>
      <trkpt lat="52.630511" lon="13.310504">
        <ele>50.437398</ele>
        <time>2024-04-24T12:14:06.888Z</time>
      </trkpt>
      <trkpt lat="52.630618" lon="13.310476">
        <ele>50.608985</ele>
        <time>2024-04-24T12:14:11.607Z</time>
      </trkpt>
      <trkpt lat="52.630700" lon="13.310454">
        <ele>50.740564</ele>
        <time>2024-04-24T12:14:15.318Z</time>
      </trkpt>
      <trkpt lat="52.630942" lon="13.310386">
        <ele>51.129369</ele>
        <time>2024-04-24T12:14:23.929Z</time>
      </trkpt>
      <trkpt lat="52.631052" lon="13.310349">
        <ele>51.307176</ele>
        <time>2024-04-24T12:14:28.011Z</time>
      </trkpt>
      <trkpt lat="52.631154" lon="13.310327">
        <ele>51.470098</ele>
        <time>2024-04-24T12:14:30.749Z</time>
      </trkpt>
      <trkpt lat="52.631280" lon="13.310295">
        <ele>51.672009</ele>
        <time>2024-04-24T12:14:35.152Z</time>
      </trkpt>
      <trkpt lat="52.631388" lon="13.310273">
        <ele>51.844358</ele>
        <time>2024-04-24T12:14:39.078Z</time>
      </trkpt>
      <trkpt lat="52.631437" lon="13.310270">
        <ele>51.922016</ele>
        <time>2024-04-24T12:14:40.762Z</time>
      </trkpt>
      <trkpt lat="52.632065" lon="13.310046">
        <ele>53.078921</ele>
        <time>2024-04-24T12:15:03.911Z</time>
      </trkpt>
      <trkpt lat="52.632626" lon="13.309734">
        <ele>54.248443</ele>
        <time>2024-04-24T12:15:26.018Z</time>
      </trkpt>
      <trkpt lat="52.632722" lon="13.309665">
        <ele>54.455321</ele>
        <time>2024-04-24T12:15:30.113Z</time>
      </trkpt>
      <trkpt lat="52.632976" lon="13.309483">
        <ele>55.002416</ele>
        <time>2024-04-24T12:15:40.693Z</time>
      </trkpt>
      <trkpt lat="52.633741" lon="13.308780">
        <ele>56.485467</ele>
        <time>2024-04-24T12:16:13.309Z</time>
      </trkpt>
      <trkpt lat="52.634212" lon="13.308360">
        <ele>57.218016</ele>
        <time>2024-04-24T12:16:32.854Z</time>
      </trkpt>
      <trkpt lat="52.634265" lon="13.308311">
        <ele>57.301144</ele>
        <time>2024-04-24T12:16:35.038Z</time>
      </trkpt>
      <trkpt lat="52.634315" lon="13.308276">
        <ele>57.375452</ele>
        <time>2024-04-24T12:16:36.962Z</time>
      </trkpt>
      <trkpt lat="52.634387" lon="13.308302">
        <ele>57.476274</ele>
        <time>2024-04-24T12:16:39.354Z</time>
      </trkpt>
      <trkpt lat="52.634458" lon="13.308257">
        <ele>57.580328</ele>
        <time>2024-04-24T12:16:42.028Z</time>
      </trkpt>
      <trkpt lat="52.634957" lon="13.307821">
        <ele>58.352908</ele>
        <time>2024-04-24T12:17:00.672Z</time>
      </trkpt>
      <trkpt lat="52.635018" lon="13.307667">
        <ele>58.361914</ele>
        <time>2024-04-24T12:17:03.887Z</time>
      </trkpt>
      <trkpt lat="52.635112" lon="13.307586">
        <ele>58.327873</ele>
        <time>2024-04-24T12:17:07.195Z</time>
      </trkpt>
      <trkpt lat="52.635539" lon="13.307221">
        <ele>58.173508</ele>
        <time>2024-04-24T12:17:20.958Z</time>
      </trkpt>
      <trkpt lat="52.636131" lon="13.306710">
        <ele>57.959049</ele>
        <time>2024-04-24T12:17:39.219Z</time>
      </trkpt>
      <trkpt lat="52.636223" lon="13.306637">
        <ele>57.926281</ele>
        <time>2024-04-24T12:17:41.937Z</time>
      </trkpt>
      <trkpt lat="52.636389" lon="13.306505">
        <ele>57.867134</ele>
        <time>2024-04-24T12:17:46.897Z</time>
      </trkpt>
      <trkpt lat="52.636493" lon="13.306435">
        <ele>57.831083</ele>
        <time>2024-04-24T12:17:49.858Z</time>
      </trkpt>
      <trkpt lat="52.636742" lon="13.306324">
        <ele>57.632215</ele>
        <time>2024-04-24T12:17:56.644Z</time>
      </trkpt>
      <trkpt lat="52.636903" lon="13.306240">
        <ele>57.479288</ele>
        <time>2024-04-24T12:18:01.186Z</time>
      </trkpt>
      <trkpt lat="52.637190" lon="13.306103">
        <ele>57.208711</ele>
        <time>2024-04-24T12:18:09.244Z</time>
      </trkpt>
      <trkpt lat="52.637328" lon="13.306061">
        <ele>57.081631</ele>
        <time>2024-04-24T12:18:12.956Z</time>
      </trkpt>
      <trkpt lat="52.638196" lon="13.305645">
        <ele>56.263047</ele>
        <time>2024-04-24T12:18:36.698Z</time>
      </trkpt>
      <trkpt lat="52.638381" lon="13.305556">
        <ele>56.066771</ele>
        <time>2024-04-24T12:18:41.669Z</time>
      </trkpt>
      <trkpt lat="52.638780" lon="13.305353">
        <ele>55.601795</ele>
        <time>2024-04-24T12:18:52.422Z</time>
      </trkpt>
      <trkpt lat="52.638987" lon="13.305248">
        <ele>55.360630</ele>
        <time>2024-04-24T12:18:58.035Z</time>
      </trkpt>
      <trkpt lat="52.639373" lon="13.305029">
        <ele>54.906062</ele>
        <time>2024-04-24T12:19:08.608Z</time>
      </trkpt>
      <trkpt lat="52.639767" lon="13.304732">
        <ele>54.423627</ele>
        <time>2024-04-24T12:19:19.742Z</time>
      </trkpt>
      <trkpt lat="52.639940" lon="13.305395">
        <ele>53.941725</ele>
        <time>2024-04-24T12:19:27.946Z</time>
      </trkpt>
      <trkpt lat="52.640109" lon="13.305889">
        <ele>53.567544</ele>
        <time>2024-04-24T12:19:34.480Z</time>
      </trkpt>
      <trkpt lat="52.640366" lon="13.306480">
        <ele>53.087803</ele>
        <time>2024-04-24T12:19:43.067Z</time>
      </trkpt>
      <trkpt lat="52.640573" lon="13.306013">
        <ele>52.706220</ele>
        <time>2024-04-24T12:19:50.025Z</time>
      </trkpt>
      <trkpt lat="52.641138" lon="13.304910">
        <ele>51.622631</ele>
        <time>2024-04-24T12:20:06.530Z</time>
      </trkpt>
      <trkpt lat="52.641257" lon="13.304707">
        <ele>51.384520</ele>
        <time>2024-04-24T12:20:09.745Z</time>
      </trkpt>
      <trkpt lat="52.641327" lon="13.304588">
        <ele>51.244705</ele>
        <time>2024-04-24T12:20:11.568Z</time>
      </trkpt>
      <trkpt lat="52.641548" lon="13.304357">
        <ele>50.880876</ele>
        <time>2024-04-24T12:20:16.378Z</time>
      </trkpt>
      <trkpt lat="52.641843" lon="13.304269">
        <ele>50.464092</ele>
        <time>2024-04-24T12:20:21.868Z</time>
      </trkpt>
      <trkpt lat="52.642373" lon="13.304388">
        <ele>49.722221</ele>
        <time>2024-04-24T12:20:31.676Z</time>
      </trkpt>
      <trkpt lat="52.643114" lon="13.304699">
        <ele>49.155248</ele>
        <time>2024-04-24T12:20:45.710Z</time>
      </trkpt>
      <trkpt lat="52.643147" lon="13.304968">
        <ele>49.031773</ele>
        <time>2024-04-24T12:20:48.911Z</time>
      </trkpt>
      <trkpt lat="52.643229" lon="13.304983">
        <ele>48.970598</ele>
        <time>2024-04-24T12:20:50.524Z</time>
      </trkpt>
      <trkpt lat="52.643918" lon="13.305480">
        <ele>48.412927</ele>
        <time>2024-04-24T12:21:06.692Z</time>
      </trkpt>
      <trkpt lat="52.644093" lon="13.305652">
        <ele>48.543548</ele>
        <time>2024-04-24T12:21:13.135Z</time>
      </trkpt>
      <trkpt lat="52.644232" lon="13.305872">
        <ele>48.713354</ele>
        <time>2024-04-24T12:21:19.327Z</time>
      </trkpt>
      <trkpt lat="52.644401" lon="13.306233">
        <ele>48.957121</ele>
        <time>2024-04-24T12:21:28.310Z</time>
      </trkpt>
      <trkpt lat="52.644642" lon="13.306559">
        <ele>49.231835</ele>
        <time>2024-04-24T12:21:38.619Z</time>
      </trkpt>
      <trkpt lat="52.644814" lon="13.306705">
        <ele>49.402306</ele>
        <time>2024-04-24T12:21:45.147Z</time>
      </trkpt>
      <trkpt lat="52.645006" lon="13.306798">
        <ele>49.578635</ele>
        <time>2024-04-24T12:21:51.906Z</time>
      </trkpt>
      <trkpt lat="52.645429" lon="13.306842">
        <ele>49.952087</ele>
        <time>2024-04-24T12:22:06.616Z</time>
      </trkpt>
      <trkpt lat="52.645456" lon="13.306823">
        <ele>49.978407</ele>
        <time>2024-04-24T12:22:07.628Z</time>
      </trkpt>
      <trkpt lat="52.645468" lon="13.306800">
        <ele>49.997472</ele>
        <time>2024-04-24T12:22:08.280Z</time>
      </trkpt>
      <trkpt lat="52.645502" lon="13.305880">
        <ele>50.576762</ele>
        <time>2024-04-24T12:22:27.367Z</time>
      </trkpt>
      <trkpt lat="52.646461" lon="13.305314">
        <ele>51.631918</ele>
        <time>2024-04-24T12:22:53.910Z</time>
      </trkpt>
      <trkpt lat="52.646922" lon="13.305029">
        <ele>52.042802</ele>
        <time>2024-04-24T12:23:06.379Z</time>
      </trkpt>
      <trkpt lat="52.647004" lon="13.304971">
        <ele>52.105034</ele>
        <time>2024-04-24T12:23:08.870Z</time>
      </trkpt>
      <trkpt lat="52.647151" lon="13.304857">
        <ele>52.218336</ele>
        <time>2024-04-24T12:23:13.446Z</time>
      </trkpt>
      <trkpt lat="52.647510" lon="13.304530">
        <ele>52.504399</ele>
        <time>2024-04-24T12:23:24.061Z</time>
      </trkpt>
      <trkpt lat="52.648468" lon="13.303703">
        <ele>53.184193</ele>
        <time>2024-04-24T12:23:50.502Z</time>
      </trkpt>
      <trkpt lat="52.648725" lon="13.303453">
        <ele>53.298834</ele>
        <time>2024-04-24T12:23:57.588Z</time>
      </trkpt>
      <trkpt lat="52.648924" lon="13.303312">
        <ele>53.382045</ele>
        <time>2024-04-24T12:24:02.565Z</time>
      </trkpt>
      <trkpt lat="52.649327" lon="13.302886">
        <ele>53.565962</ele>
        <time>2024-04-24T12:24:13.938Z</time>
      </trkpt>
      <trkpt lat="52.650154" lon="13.302212">
        <ele>53.916010</ele>
        <time>2024-04-24T12:24:35.732Z</time>
      </trkpt>
      <trkpt lat="52.651149" lon="13.301314">
        <ele>54.337859</ele>
        <time>2024-04-24T12:25:02.355Z</time>
      </trkpt>
      <trkpt lat="52.651470" lon="13.300942">
        <ele>54.453918</ele>
        <time>2024-04-24T12:25:11.938Z</time>
      </trkpt>
      <trkpt lat="52.651641" lon="13.300597">
        <ele>54.457673</ele>
        <time>2024-04-24T12:25:18.524Z</time>
      </trkpt>
      <trkpt lat="52.651719" lon="13.300323">
        <ele>54.460224</ele>
        <time>2024-04-24T12:25:22.922Z</time>
      </trkpt>
      <trkpt lat="52.651772" lon="13.299807">
        <ele>54.464636</ele>
        <time>2024-04-24T12:25:30.276Z</time>
      </trkpt>
      <trkpt lat="52.651748" lon="13.299479">
        <ele>54.467420</ele>
        <time>2024-04-24T12:25:34.698Z</time>
      </trkpt>
      <trkpt lat="52.651676" lon="13.299124">
        <ele>54.470576</ele>
        <time>2024-04-24T12:25:39.617Z</time>
      </trkpt>
      <trkpt lat="52.651663" lon="13.298855">
        <ele>54.472850</ele>
        <time>2024-04-24T12:25:43.072Z</time>
      </trkpt>
      <trkpt lat="52.651693" lon="13.298684">
        <ele>54.474351</ele>
        <time>2024-04-24T12:25:45.382Z</time>
      </trkpt>
      <trkpt lat="52.651799" lon="13.298478">
        <ele>54.476627</ele>
        <time>2024-04-24T12:25:48.769Z</time>
      </trkpt>
      <trkpt lat="52.651888" lon="13.298431">
        <ele>54.471005</ele>
        <time>2024-04-24T12:25:50.723Z</time>
      </trkpt>
      <trkpt lat="52.651989" lon="13.298472">
        <ele>54.415697</ele>
        <time>2024-04-24T12:25:52.864Z</time>
      </trkpt>
      <trkpt lat="52.652440" lon="13.298954">
        <ele>54.129904</ele>
        <time>2024-04-24T12:26:03.724Z</time>
      </trkpt>
      <trkpt lat="52.652774" lon="13.299235">
        <ele>53.930518</ele>
        <time>2024-04-24T12:26:11.423Z</time>
      </trkpt>
      <trkpt lat="52.653218" lon="13.299492">
        <ele>53.680307</ele>
        <time>2024-04-24T12:26:20.960Z</time>
      </trkpt>
      <trkpt lat="52.653497" lon="13.299583">
        <ele>53.529083</ele>
        <time>2024-04-24T12:26:26.678Z</time>
      </trkpt>
      <trkpt lat="52.653696" lon="13.299503">
        <ele>53.457606</ele>
        <time>2024-04-24T12:26:30.788Z</time>
      </trkpt>
      <trkpt lat="52.655261" lon="13.302782">
        <ele>52.595033</ele>
        <time>2024-04-24T12:27:26.987Z</time>
      </trkpt>
      <trkpt lat="52.655414" lon="13.303164">
        <ele>52.497616</ele>
        <time>2024-04-24T12:27:33.126Z</time>
      </trkpt>
      <trkpt lat="52.655629" lon="13.303896">
        <ele>52.324537</ele>
        <time>2024-04-24T12:27:43.654Z</time>
      </trkpt>
      <trkpt lat="52.655708" lon="13.304286">
        <ele>52.168930</ele>
        <time>2024-04-24T12:27:49.146Z</time>
      </trkpt>
      <trkpt lat="52.655767" lon="13.304692">
        <ele>51.960708</ele>
        <time>2024-04-24T12:27:54.601Z</time>
      </trkpt>
      <trkpt lat="52.655793" lon="13.305079">
        <ele>51.766511</ele>
        <time>2024-04-24T12:27:59.505Z</time>
      </trkpt>
      <trkpt lat="52.656517" lon="13.304949">
        <ele>51.167717</ele>
        <time>2024-04-24T12:28:14.257Z</time>
      </trkpt>
      <trkpt lat="52.656493" lon="13.304685">
        <ele>51.034579</ele>
        <time>2024-04-24T12:28:17.508Z</time>
      </trkpt>
      <trkpt lat="52.656806" lon="13.304590">
        <ele>50.787867</ele>
        <time>2024-04-24T12:28:23.767Z</time>
      </trkpt>
      <trkpt lat="52.657006" lon="13.304590">
        <ele>50.691825</ele>
        <time>2024-04-24T12:28:27.704Z</time>
      </trkpt>
      <trkpt lat="52.657676" lon="13.304788">
        <ele>50.364958</ele>
        <time>2024-04-24T12:28:42.629Z</time>
      </trkpt>
      <trkpt lat="52.657880" lon="13.304812">
        <ele>50.266746</ele>
        <time>2024-04-24T12:28:47.600Z</time>
      </trkpt>
      <trkpt lat="52.657995" lon="13.304827">
        <ele>50.211350</ele>
        <time>2024-04-24T12:28:50.378Z</time>
      </trkpt>
      <trkpt lat="52.658455" lon="13.304748">
        <ele>49.989259</ele>
        <time>2024-04-24T12:28:59.746Z</time>
      </trkpt>
      <trkpt lat="52.658939" lon="13.304586">
        <ele>50.116245</ele>
        <time>2024-04-24T12:29:10.761Z</time>
      </trkpt>
      <trkpt lat="52.659091" lon="13.304570">
        <ele>50.181063</ele>
        <time>2024-04-24T12:29:14.518Z</time>
      </trkpt>
      <trkpt lat="52.659423" lon="13.304609">
        <ele>50.322711</ele>
        <time>2024-04-24T12:29:22.917Z</time>
      </trkpt>
      <trkpt lat="52.659866" lon="13.304887">
        <ele>50.524435</ele>
        <time>2024-04-24T12:29:41.765Z</time>
      </trkpt>
      <trkpt lat="52.659847" lon="13.303944">
        <ele>50.820098</ele>
        <time>2024-04-24T12:29:56.946Z</time>
      </trkpt>
      <trkpt lat="52.659813" lon="13.302243">
        <ele>51.658410</ele>
        <time>2024-04-24T12:30:22.752Z</time>
      </trkpt>
      <trkpt lat="52.659831" lon="13.301042">
        <ele>52.194006</ele>
        <time>2024-04-24T12:30:42.263Z</time>
      </trkpt>
      <trkpt lat="52.659882" lon="13.299703">
        <ele>52.384524</ele>
        <time>2024-04-24T12:31:01.608Z</time>
      </trkpt>
      <trkpt lat="52.659990" lon="13.297008">
        <ele>52.721321</ele>
        <time>2024-04-24T12:31:37.086Z</time>
      </trkpt>
      <trkpt lat="52.660006" lon="13.296668">
        <ele>52.756865</ele>
        <time>2024-04-24T12:31:41.778Z</time>
      </trkpt>
      <trkpt lat="52.660078" lon="13.295151">
        <ele>52.936677</ele>
        <time>2024-04-24T12:32:03.944Z</time>
      </trkpt>
      <trkpt lat="52.659461" lon="13.294325">
        <ele>53.279809</ele>
        <time>2024-04-24T12:32:35.324Z</time>
      </trkpt>
      <trkpt lat="52.659365" lon="13.294222">
        <ele>53.329258</ele>
        <time>2024-04-24T12:32:39.831Z</time>
      </trkpt>
      <trkpt lat="52.659085" lon="13.294192">
        <ele>53.450396</ele>
        <time>2024-04-24T12:32:50.792Z</time>
      </trkpt>
      <trkpt lat="52.658845" lon="13.293913">
        <ele>53.577177</ele>
        <time>2024-04-24T12:33:02.106Z</time>
      </trkpt>
      <trkpt lat="52.658973" lon="13.292673">
        <ele>53.522966</ele>
        <time>2024-04-24T12:33:19.514Z</time>
      </trkpt>
      <trkpt lat="52.659211" lon="13.291484">
        <ele>53.300678</ele>
        <time>2024-04-24T12:33:35.047Z</time>
      </trkpt>
      <trkpt lat="52.659331" lon="13.290981">
        <ele>53.204718</ele>
        <time>2024-04-24T12:33:42.035Z</time>
      </trkpt>
      <trkpt lat="52.659335" lon="13.290819">
        <ele>53.175934</ele>
        <time>2024-04-24T12:33:44.094Z</time>
      </trkpt>
      <trkpt lat="52.659298" lon="13.290668">
        <ele>53.148403</ele>
        <time>2024-04-24T12:33:46.205Z</time>
      </trkpt>
      <trkpt lat="52.659196" lon="13.290433">
        <ele>53.112936</ele>
        <time>2024-04-24T12:33:49.938Z</time>
      </trkpt>
      <trkpt lat="52.659228" lon="13.290245">
        <ele>53.088970</ele>
        <time>2024-04-24T12:33:52.415Z</time>
      </trkpt>
      <trkpt lat="52.659356" lon="13.289405">
        <ele>52.982667</ele>
        <time>2024-04-24T12:34:04.372Z</time>
      </trkpt>
      <trkpt lat="52.659415" lon="13.288666">
        <ele>52.891183</ele>
        <time>2024-04-24T12:34:14.949Z</time>
      </trkpt>
      <trkpt lat="52.659419" lon="13.288081">
        <ele>52.819377</ele>
        <time>2024-04-24T12:34:22.795Z</time>
      </trkpt>
      <trkpt lat="52.659406" lon="13.287930">
        <ele>52.800658</ele>
        <time>2024-04-24T12:34:24.736Z</time>
      </trkpt>
      <trkpt lat="52.659891" lon="13.287609">
        <ele>52.806155</ele>
        <time>2024-04-24T12:34:36.280Z</time>
      </trkpt>
      <trkpt lat="52.659937" lon="13.287580">
        <ele>52.808158</ele>
        <time>2024-04-24T12:34:37.379Z</time>
      </trkpt>
      <trkpt lat="52.660029" lon="13.287511">
        <ele>52.812267</ele>
        <time>2024-04-24T12:34:39.657Z</time>
      </trkpt>
      <trkpt lat="52.660160" lon="13.287413">
        <ele>52.818117</ele>
        <time>2024-04-24T12:34:43.071Z</time>
      </trkpt>
      <trkpt lat="52.660253" lon="13.287343">
        <ele>52.822273</ele>
        <time>2024-04-24T12:34:45.434Z</time>
      </trkpt>
      <trkpt lat="52.660633" lon="13.287089">
        <ele>52.838946</ele>
        <time>2024-04-24T12:34:54.794Z</time>
      </trkpt>
      <trkpt lat="52.660808" lon="13.287020">
        <ele>52.846262</ele>
        <time>2024-04-24T12:34:59.009Z</time>
      </trkpt>
      <trkpt lat="52.660826" lon="13.287019">
        <ele>52.846995</ele>
        <time>2024-04-24T12:34:59.459Z</time>
      </trkpt>
      <trkpt lat="52.660978" lon="13.287004">
        <ele>52.853186</ele>
        <time>2024-04-24T12:35:02.870Z</time>
      </trkpt>
      <trkpt lat="52.661474" lon="13.287001">
        <ele>52.761278</ele>
        <time>2024-04-24T12:35:13.973Z</time>
      </trkpt>
      <trkpt lat="52.661609" lon="13.286983">
        <ele>52.718106</ele>
        <time>2024-04-24T12:35:16.786Z</time>
      </trkpt>
      <trkpt lat="52.661718" lon="13.286991">
        <ele>52.683327</ele>
        <time>2024-04-24T12:35:19.026Z</time>
      </trkpt>
      <trkpt lat="52.661849" lon="13.286928">
        <ele>52.639830</ele>
        <time>2024-04-24T12:35:21.828Z</time>
      </trkpt>
      <trkpt lat="52.661958" lon="13.286798">
        <ele>52.596948</ele>
        <time>2024-04-24T12:35:24.566Z</time>
      </trkpt>
      <trkpt lat="52.661978" lon="13.286778">
        <ele>52.589492</ele>
        <time>2024-04-24T12:35:25.057Z</time>
      </trkpt>
      <trkpt lat="52.662090" lon="13.286629">
        <ele>52.543619</ele>
        <time>2024-04-24T12:35:28.092Z</time>
      </trkpt>
      <trkpt lat="52.662130" lon="13.286532">
        <ele>52.520942</ele>
        <time>2024-04-24T12:35:29.578Z</time>
      </trkpt>
      <trkpt lat="52.662202" lon="13.286416">
        <ele>52.488854</ele>
        <time>2024-04-24T12:35:31.702Z</time>
      </trkpt>
      <trkpt lat="52.662284" lon="13.286142">
        <ele>52.429784</ele>
        <time>2024-04-24T12:35:35.696Z</time>
      </trkpt>
      <trkpt lat="52.662382" lon="13.285956">
        <ele>52.382151</ele>
        <time>2024-04-24T12:35:38.778Z</time>
      </trkpt>
      <trkpt lat="52.662441" lon="13.285934">
        <ele>52.362870</ele>
        <time>2024-04-24T12:35:40.096Z</time>
      </trkpt>
      <trkpt lat="52.662482" lon="13.285861">
        <ele>52.343635</ele>
        <time>2024-04-24T12:35:41.364Z</time>
      </trkpt>
      <trkpt lat="52.662487" lon="13.285746">
        <ele>52.321345</ele>
        <time>2024-04-24T12:35:42.781Z</time>
      </trkpt>
      <trkpt lat="52.662464" lon="13.285679">
        <ele>52.306461</ele>
        <time>2024-04-24T12:35:43.731Z</time>
      </trkpt>
      <trkpt lat="52.662381" lon="13.285629">
        <ele>52.275510</ele>
        <time>2024-04-24T12:35:45.435Z</time>
      </trkpt>
      <trkpt lat="52.662313" lon="13.285691">
        <ele>52.243122</ele>
        <time>2024-04-24T12:35:47.015Z</time>
      </trkpt>
      <trkpt lat="52.662245" lon="13.285636">
        <ele>52.211553</ele>
        <time>2024-04-24T12:35:48.587Z</time>
      </trkpt>
      <trkpt lat="52.660994" lon="13.284932">
        <ele>51.660601</ele>
        <time>2024-04-24T12:36:15.700Z</time>
      </trkpt>
      <trkpt lat="52.660410" lon="13.284589">
        <ele>51.617711</ele>
        <time>2024-04-24T12:36:28.854Z</time>
      </trkpt>
      <trkpt lat="52.660350" lon="13.284560">
        <ele>51.633108</ele>
        <time>2024-04-24T12:36:30.311Z</time>
      </trkpt>
      <trkpt lat="52.660210" lon="13.284496">
        <ele>51.668885</ele>
        <time>2024-04-24T12:36:33.931Z</time>
      </trkpt>
      <trkpt lat="52.660038" lon="13.284471">
        <ele>51.711406</ele>
        <time>2024-04-24T12:36:37.955Z</time>
      </trkpt>
      <trkpt lat="52.659929" lon="13.284457">
        <ele>51.738329</ele>
        <time>2024-04-24T12:36:40.633Z</time>
      </trkpt>
      <trkpt lat="52.659924" lon="13.284098">
        <ele>51.791966</ele>
        <time>2024-04-24T12:36:45.866Z</time>
      </trkpt>
      <trkpt lat="52.659863" lon="13.283841">
        <ele>51.833188</ele>
        <time>2024-04-24T12:36:50.075Z</time>
      </trkpt>
      <trkpt lat="52.659744" lon="13.283668">
        <ele>51.872259</ele>
        <time>2024-04-24T12:36:53.877Z</time>
      </trkpt>
      <trkpt lat="52.659622" lon="13.283604">
        <ele>51.903786</ele>
        <time>2024-04-24T12:36:56.990Z</time>
      </trkpt>
      <trkpt lat="52.659512" lon="13.283596">
        <ele>51.930901</ele>
        <time>2024-04-24T12:36:59.782Z</time>
      </trkpt>
      <trkpt lat="52.659173" lon="13.283566">
        <ele>51.967068</ele>
        <time>2024-04-24T12:37:07.785Z</time>
      </trkpt>
      <trkpt lat="52.659079" lon="13.283555">
        <ele>51.957801</ele>
        <time>2024-04-24T12:37:09.854Z</time>
      </trkpt>
      <trkpt lat="52.657951" lon="13.283437">
        <ele>51.846658</ele>
        <time>2024-04-24T12:37:35.095Z</time>
      </trkpt>
      <trkpt lat="52.657220" lon="13.283357">
        <ele>51.690140</ele>
        <time>2024-04-24T12:37:49.679Z</time>
      </trkpt>
      <trkpt lat="52.657060" lon="13.283338">
        <ele>51.628604</ele>
        <time>2024-04-24T12:37:53.058Z</time>
      </trkpt>
      <trkpt lat="52.656980" lon="13.283302">
        <ele>51.596792</ele>
        <time>2024-04-24T12:37:54.769Z</time>
      </trkpt>
      <trkpt lat="52.656868" lon="13.283114">
        <ele>51.535476</ele>
        <time>2024-04-24T12:37:58.209Z</time>
      </trkpt>
      <trkpt lat="52.656676" lon="13.282849">
        <ele>51.439418</ele>
        <time>2024-04-24T12:38:03.542Z</time>
      </trkpt>
      <trkpt lat="52.656577" lon="13.282799">
        <ele>51.399698</ele>
        <time>2024-04-24T12:38:05.865Z</time>
      </trkpt>
      <trkpt lat="52.656351" lon="13.282763">
        <ele>51.312599</ele>
        <time>2024-04-24T12:38:10.748Z</time>
      </trkpt>
      <trkpt lat="52.656129" lon="13.282785">
        <ele>51.227284</ele>
        <time>2024-04-24T12:38:15.589Z</time>
      </trkpt>
      <trkpt lat="52.655992" lon="13.282865">
        <ele>51.171529</ele>
        <time>2024-04-24T12:38:18.549Z</time>
      </trkpt>
      <trkpt lat="52.655903" lon="13.283000">
        <ele>51.125135</ele>
        <time>2024-04-24T12:38:21.131Z</time>
      </trkpt>
      <trkpt lat="52.655802" lon="13.283156">
        <ele>51.059759</ele>
        <time>2024-04-24T12:38:23.952Z</time>
      </trkpt>
      <trkpt lat="52.655614" lon="13.283174">
        <ele>50.966252</ele>
        <time>2024-04-24T12:38:27.578Z</time>
      </trkpt>
      <trkpt lat="52.655489" lon="13.283165">
        <ele>50.904125</ele>
        <time>2024-04-24T12:38:30.037Z</time>
      </trkpt>
      <trkpt lat="52.655204" lon="13.283177">
        <ele>50.762563</ele>
        <time>2024-04-24T12:38:35.645Z</time>
      </trkpt>
      <trkpt lat="52.655032" lon="13.283217">
        <ele>50.676312</ele>
        <time>2024-04-24T12:38:39.096Z</time>
      </trkpt>
      <trkpt lat="52.655015" lon="13.283071">
        <ele>50.631532</ele>
        <time>2024-04-24T12:38:40.946Z</time>
      </trkpt>
      <trkpt lat="52.654991" lon="13.282879">
        <ele>50.572485</ele>
        <time>2024-04-24T12:38:43.589Z</time>
      </trkpt>
      <trkpt lat="52.654908" lon="13.282206">
        <ele>50.365623</ele>
        <time>2024-04-24T12:38:52.566Z</time>
      </trkpt>
      <trkpt lat="52.654897" lon="13.282047">
        <ele>50.317420</ele>
        <time>2024-04-24T12:38:55.201Z</time>
      </trkpt>
      <trkpt lat="52.654862" lon="13.281555">
        <ele>50.216828</ele>
        <time>2024-04-24T12:39:03.376Z</time>
      </trkpt>
      <trkpt lat="52.654875" lon="13.281331">
        <ele>50.211885</ele>
        <time>2024-04-24T12:39:07.023Z</time>
      </trkpt>
      <trkpt lat="52.654728" lon="13.281325">
        <ele>50.206559</ele>
        <time>2024-04-24T12:39:10.018Z</time>
      </trkpt>
      <trkpt lat="52.652746" lon="13.281217">
        <ele>50.385547</ele>
        <time>2024-04-24T12:39:54.981Z</time>
      </trkpt>
      <trkpt lat="52.652385" lon="13.281210">
        <ele>50.530330</ele>
        <time>2024-04-24T12:40:04.033Z</time>
      </trkpt>
      <trkpt lat="52.652288" lon="13.281266">
        <ele>50.571547</ele>
        <time>2024-04-24T12:40:06.607Z</time>
      </trkpt>
      <trkpt lat="52.650916" lon="13.282634">
        <ele>51.011375</ele>
        <time>2024-04-24T12:40:45.401Z</time>
      </trkpt>
      <trkpt lat="52.650385" lon="13.283162">
        <ele>51.110443</ele>
        <time>2024-04-24T12:40:58.947Z</time>
      </trkpt>
      <trkpt lat="52.650262" lon="13.283285">
        <ele>51.133426</ele>
        <time>2024-04-24T12:41:02.048Z</time>
      </trkpt>
      <trkpt lat="52.649910" lon="13.283534">
        <ele>51.164068</ele>
        <time>2024-04-24T12:41:10.234Z</time>
      </trkpt>
      <trkpt lat="52.649605" lon="13.283650">
        <ele>51.163913</ele>
        <time>2024-04-24T12:41:17.123Z</time>
      </trkpt>
      <trkpt lat="52.649362" lon="13.283668">
        <ele>51.163792</ele>
        <time>2024-04-24T12:41:22.498Z</time>
      </trkpt>
      <trkpt lat="52.648729" lon="13.283582">
        <ele>51.163478</ele>
        <time>2024-04-24T12:41:36.775Z</time>
      </trkpt>
      <trkpt lat="52.648642" lon="13.283574">
        <ele>51.163435</ele>
        <time>2024-04-24T12:41:38.783Z</time>
      </trkpt>
      <trkpt lat="52.647921" lon="13.283511">
        <ele>51.196587</ele>
        <time>2024-04-24T12:41:55.262Z</time>
      </trkpt>
      <trkpt lat="52.646499" lon="13.283352">
        <ele>51.306008</ele>
        <time>2024-04-24T12:42:28.147Z</time>
      </trkpt>
      <trkpt lat="52.643947" lon="13.283074">
        <ele>49.822240</ele>
        <time>2024-04-24T12:43:19.770Z</time>
      </trkpt>
      <trkpt lat="52.643656" lon="13.282979">
        <ele>49.607085</ele>
        <time>2024-04-24T12:43:25.575Z</time>
      </trkpt>
      <trkpt lat="52.643523" lon="13.282887">
        <ele>49.502471</ele>
        <time>2024-04-24T12:43:28.371Z</time>
      </trkpt>
      <trkpt lat="52.643335" lon="13.282721">
        <ele>49.347783</ele>
        <time>2024-04-24T12:43:32.554Z</time>
      </trkpt>
      <trkpt lat="52.643210" lon="13.282546">
        <ele>49.228828</ele>
        <time>2024-04-24T12:43:35.754Z</time>
      </trkpt>
      <trkpt lat="52.643079" lon="13.282291">
        <ele>49.081911</ele>
        <time>2024-04-24T12:43:39.789Z</time>
      </trkpt>
      <trkpt lat="52.642295" lon="13.280596">
        <ele>48.546597</ele>
        <time>2024-04-24T12:44:06.201Z</time>
      </trkpt>
      <trkpt lat="52.641656" lon="13.279246">
        <ele>48.449582</ele>
        <time>2024-04-24T12:44:29.350Z</time>
      </trkpt>
      <trkpt lat="52.641520" lon="13.278958">
        <ele>48.496046</ele>
        <time>2024-04-24T12:44:34.461Z</time>
      </trkpt>
      <trkpt lat="52.641439" lon="13.278679">
        <ele>48.535426</ele>
        <time>2024-04-24T12:44:38.811Z</time>
      </trkpt>
      <trkpt lat="52.640912" lon="13.276137">
        <ele>48.974694</ele>
        <time>2024-04-24T12:45:17.415Z</time>
      </trkpt>
      <trkpt lat="52.640049" lon="13.269730">
        <ele>50.068901</ele>
        <time>2024-04-24T12:46:51.169Z</time>
      </trkpt>
      <trkpt lat="52.640065" lon="13.269482">
        <ele>50.088143</ele>
        <time>2024-04-24T12:46:54.484Z</time>
      </trkpt>
      <trkpt lat="52.640269" lon="13.268022">
        <ele>49.936036</ele>
        <time>2024-04-24T12:47:13.863Z</time>
      </trkpt>
      <trkpt lat="52.640553" lon="13.265984">
        <ele>49.291418</ele>
        <time>2024-04-24T12:47:39.523Z</time>
      </trkpt>
      <trkpt lat="52.640976" lon="13.262839">
        <ele>48.153850</ele>
        <time>2024-04-24T12:48:19.200Z</time>
      </trkpt>
      <trkpt lat="52.641102" lon="13.261939">
        <ele>47.880358</ele>
        <time>2024-04-24T12:48:30.877Z</time>
      </trkpt>
      <trkpt lat="52.641101" lon="13.261706">
        <ele>47.811365</ele>
        <time>2024-04-24T12:48:33.743Z</time>
      </trkpt>
      <trkpt lat="52.641028" lon="13.261558">
        <ele>47.754891</ele>
        <time>2024-04-24T12:48:36.282Z</time>
      </trkpt>
      <trkpt lat="52.640796" lon="13.261458">
        <ele>47.637875</ele>
        <time>2024-04-24T12:48:41.188Z</time>
      </trkpt>
      <trkpt lat="52.639687" lon="13.261482">
        <ele>46.910595</ele>
        <time>2024-04-24T12:49:03.728Z</time>
      </trkpt>
      <trkpt lat="52.639552" lon="13.261495">
        <ele>46.784066</ele>
        <time>2024-04-24T12:49:06.466Z</time>
      </trkpt>
      <trkpt lat="52.639267" lon="13.261487">
        <ele>46.517366</ele>
        <time>2024-04-24T12:49:11.910Z</time>
      </trkpt>
      <trkpt lat="52.638989" lon="13.261524">
        <ele>46.256407</ele>
        <time>2024-04-24T12:49:17.125Z</time>
      </trkpt>
      <trkpt lat="52.637894" lon="13.262089">
        <ele>45.437365</ele>
        <time>2024-04-24T12:49:39.117Z</time>
      </trkpt>
      <trkpt lat="52.637364" lon="13.262367">
        <ele>45.222347</ele>
        <time>2024-04-24T12:49:50.534Z</time>
      </trkpt>
      <trkpt lat="52.636046" lon="13.263062">
        <ele>44.963929</ele>
        <time>2024-04-24T12:50:22.218Z</time>
      </trkpt>
      <trkpt lat="52.635958" lon="13.263106">
        <ele>44.970415</ele>
        <time>2024-04-24T12:50:24.356Z</time>
      </trkpt>
      <trkpt lat="52.635727" lon="13.263223">
        <ele>44.987459</ele>
        <time>2024-04-24T12:50:30.166Z</time>
      </trkpt>
      <trkpt lat="52.635388" lon="13.263395">
        <ele>45.012475</ele>
        <time>2024-04-24T12:50:38.279Z</time>
      </trkpt>
      <trkpt lat="52.635120" lon="13.263455">
        <ele>45.031549</ele>
        <time>2024-04-24T12:50:44.166Z</time>
      </trkpt>
      <trkpt lat="52.632999" lon="13.263635">
        <ele>44.494515</ele>
        <time>2024-04-24T12:51:28.464Z</time>
      </trkpt>
      <trkpt lat="52.632761" lon="13.263687">
        <ele>44.511252</ele>
        <time>2024-04-24T12:51:34.217Z</time>
      </trkpt>
      <trkpt lat="52.631200" lon="13.263817">
        <ele>44.424725</ele>
        <time>2024-04-24T12:52:10.994Z</time>
      </trkpt>
      <trkpt lat="52.630834" lon="13.263828">
        <ele>43.695025</ele>
        <time>2024-04-24T12:52:18.151Z</time>
      </trkpt>
      <trkpt lat="52.628525" lon="13.263420">
        <ele>39.284732</ele>
        <time>2024-04-24T12:52:57.160Z</time>
      </trkpt>
      <trkpt lat="52.628462" lon="13.262207">
        <ele>37.975966</ele>
        <time>2024-04-24T12:53:10.932Z</time>
      </trkpt>
      <trkpt lat="52.628335" lon="13.260333">
        <ele>38.837292</ele>
        <time>2024-04-24T12:53:39.287Z</time>
      </trkpt>
      <trkpt lat="52.628233" lon="13.258183">
        <ele>40.037326</ele>
        <time>2024-04-24T12:54:18.031Z</time>
      </trkpt>
      <trkpt lat="52.628150" lon="13.256443">
        <ele>40.990655</ele>
        <time>2024-04-24T12:54:45.038Z</time>
      </trkpt>
      <trkpt lat="52.628134" lon="13.256105">
        <ele>41.087999</ele>
        <time>2024-04-24T12:54:49.580Z</time>
      </trkpt>
      <trkpt lat="52.628061" lon="13.254563">
        <ele>40.147434</ele>
        <time>2024-04-24T12:55:08.121Z</time>
      </trkpt>
      <trkpt lat="52.628030" lon="13.250245">
        <ele>36.446385</ele>
        <time>2024-04-24T12:55:55.463Z</time>
      </trkpt>
      <trkpt lat="52.628026" lon="13.249460">
        <ele>35.996759</ele>
        <time>2024-04-24T12:56:04.567Z</time>
      </trkpt>
      <trkpt lat="52.628083" lon="13.248662">
        <ele>35.536549</ele>
        <time>2024-04-24T12:56:13.964Z</time>
      </trkpt>
      <trkpt lat="52.628490" lon="13.245220">
        <ele>34.560436</ele>
        <time>2024-04-24T12:56:56.907Z</time>
      </trkpt>
      <trkpt lat="52.628583" lon="13.244440">
        <ele>34.487441</ele>
        <time>2024-04-24T12:57:09.160Z</time>
      </trkpt>
      <trkpt lat="52.628204" lon="13.243182">
        <ele>35.461374</ele>
        <time>2024-04-24T12:57:45.302Z</time>
      </trkpt>
      <trkpt lat="52.628224" lon="13.242888">
        <ele>35.670184</ele>
        <time>2024-04-24T12:57:50.438Z</time>
      </trkpt>
      <trkpt lat="52.628199" lon="13.242474">
        <ele>35.963836</ele>
        <time>2024-04-24T12:57:57.441Z</time>
      </trkpt>
      <trkpt lat="52.628127" lon="13.242077">
        <ele>36.256286</ele>
        <time>2024-04-24T12:58:04.275Z</time>
      </trkpt>
      <trkpt lat="52.627967" lon="13.241271">
        <ele>36.634815</ele>
        <time>2024-04-24T12:58:17.691Z</time>
      </trkpt>
      <trkpt lat="52.627899" lon="13.240957">
        <ele>36.683811</ele>
        <time>2024-04-24T12:58:22.813Z</time>
      </trkpt>
      <trkpt lat="52.627836" lon="13.240142">
        <ele>36.804555</ele>
        <time>2024-04-24T12:58:34.815Z</time>
      </trkpt>
      <trkpt lat="52.627770" lon="13.238918">
        <ele>36.985148</ele>
        <time>2024-04-24T12:58:50.678Z</time>
      </trkpt>
      <trkpt lat="52.627790" lon="13.237543">
        <ele>36.852796</ele>
        <time>2024-04-24T12:59:08.008Z</time>
      </trkpt>
      <trkpt lat="52.627775" lon="13.236144">
        <ele>36.665021</ele>
        <time>2024-04-24T12:59:26.516Z</time>
      </trkpt>
      <trkpt lat="52.627768" lon="13.235900">
        <ele>36.632240</ele>
        <time>2024-04-24T12:59:29.789Z</time>
      </trkpt>
      <trkpt lat="52.627669" lon="13.234617">
        <ele>36.662807</ele>
        <time>2024-04-24T12:59:47.329Z</time>
      </trkpt>
      <trkpt lat="52.627623" lon="13.234231">
        <ele>36.679047</ele>
        <time>2024-04-24T12:59:52.701Z</time>
      </trkpt>
      <trkpt lat="52.627538" lon="13.233525">
        <ele>36.708761</ele>
        <time>2024-04-24T13:00:02.532Z</time>
      </trkpt>
      <trkpt lat="52.627459" lon="13.231997">
        <ele>36.763788</ele>
        <time>2024-04-24T13:00:23.755Z</time>
      </trkpt>
      <trkpt lat="52.627361" lon="13.230491">
        <ele>36.811500</ele>
        <time>2024-04-24T13:00:44.681Z</time>
      </trkpt>
      <trkpt lat="52.627442" lon="13.229276">
        <ele>36.717941</ele>
        <time>2024-04-24T13:01:00.851Z</time>
      </trkpt>
      <trkpt lat="52.627500" lon="13.228166">
        <ele>36.515897</ele>
        <time>2024-04-24T13:01:15.502Z</time>
      </trkpt>
      <trkpt lat="52.627594" lon="13.227597">
        <ele>36.408955</ele>
        <time>2024-04-24T13:01:23.127Z</time>
      </trkpt>
      <trkpt lat="52.627724" lon="13.226437">
        <ele>36.050923</ele>
        <time>2024-04-24T13:01:37.459Z</time>
      </trkpt>
      <trkpt lat="52.627701" lon="13.226328">
        <ele>35.999237</ele>
        <time>2024-04-24T13:01:38.887Z</time>
      </trkpt>
      <trkpt lat="52.627565" lon="13.226123">
        <ele>35.863216</ele>
        <time>2024-04-24T13:01:42.426Z</time>
      </trkpt>
      <trkpt lat="52.627682" lon="13.225997">
        <ele>35.760073</ele>
        <time>2024-04-24T13:01:45.221Z</time>
      </trkpt>
      <trkpt lat="52.627961" lon="13.225844">
        <ele>35.543095</ele>
        <time>2024-04-24T13:01:50.869Z</time>
      </trkpt>
      <trkpt lat="52.628073" lon="13.225846">
        <ele>35.460445</ele>
        <time>2024-04-24T13:01:53.122Z</time>
      </trkpt>
      <trkpt lat="52.628268" lon="13.225930">
        <ele>35.311719</ele>
        <time>2024-04-24T13:01:57.062Z</time>
      </trkpt>
      <trkpt lat="52.628627" lon="13.226227">
        <ele>35.015291</ele>
        <time>2024-04-24T13:02:05.198Z</time>
      </trkpt>
      <trkpt lat="52.628752" lon="13.226252">
        <ele>34.950115</ele>
        <time>2024-04-24T13:02:07.808Z</time>
      </trkpt>
      <trkpt lat="52.628944" lon="13.226373">
        <ele>34.895163</ele>
        <time>2024-04-24T13:02:11.966Z</time>
      </trkpt>
      <trkpt lat="52.629454" lon="13.226531">
        <ele>34.756441</ele>
        <time>2024-04-24T13:02:22.531Z</time>
      </trkpt>
      <trkpt lat="52.629989" lon="13.226567">
        <ele>34.613307</ele>
        <time>2024-04-24T13:02:33.921Z</time>
      </trkpt>
      <trkpt lat="52.631325" lon="13.225919">
        <ele>34.706501</ele>
        <time>2024-04-24T13:03:05.887Z</time>
      </trkpt>
      <trkpt lat="52.631547" lon="13.225764">
        <ele>34.764983</ele>
        <time>2024-04-24T13:03:11.555Z</time>
      </trkpt>
      <trkpt lat="52.632196" lon="13.224905">
        <ele>34.972468</ele>
        <time>2024-04-24T13:03:31.270Z</time>
      </trkpt>
      <trkpt lat="52.633214" lon="13.223364">
        <ele>35.348719</ele>
        <time>2024-04-24T13:04:03.557Z</time>
      </trkpt>
      <trkpt lat="52.633434" lon="13.223048">
        <ele>35.411642</ele>
        <time>2024-04-24T13:04:10.406Z</time>
      </trkpt>
      <trkpt lat="52.635350" lon="13.220178">
        <ele>35.027427</ele>
        <time>2024-04-24T13:05:07.741Z</time>
      </trkpt>
      <trkpt lat="52.635674" lon="13.219755">
        <ele>34.831296</ele>
        <time>2024-04-24T13:05:16.087Z</time>
      </trkpt>
      <trkpt lat="52.635905" lon="13.219546">
        <ele>34.706259</ele>
        <time>2024-04-24T13:05:21.269Z</time>
      </trkpt>
      <trkpt lat="52.636022" lon="13.219447">
        <ele>34.643856</ele>
        <time>2024-04-24T13:05:23.777Z</time>
      </trkpt>
      <trkpt lat="52.636328" lon="13.219519">
        <ele>34.382185</ele>
        <time>2024-04-24T13:05:31.811Z</time>
      </trkpt>
      <trkpt lat="52.636387" lon="13.219414">
        <ele>34.283296</ele>
        <time>2024-04-24T13:05:33.991Z</time>
      </trkpt>
      <trkpt lat="52.636445" lon="13.219314">
        <ele>34.187704</ele>
        <time>2024-04-24T13:05:36.158Z</time>
      </trkpt>
      <trkpt lat="52.636442" lon="13.219234">
        <ele>34.132313</ele>
        <time>2024-04-24T13:05:37.396Z</time>
      </trkpt>
      <trkpt lat="52.636350" lon="13.218793">
        <ele>33.810050</ele>
        <time>2024-04-24T13:05:44.471Z</time>
      </trkpt>
      <trkpt lat="52.636388" lon="13.218219">
        <ele>33.411025</ele>
        <time>2024-04-24T13:05:53.227Z</time>
      </trkpt>
      <trkpt lat="52.636369" lon="13.217868">
        <ele>33.167498</ele>
        <time>2024-04-24T13:05:58.598Z</time>
      </trkpt>
      <trkpt lat="52.636477" lon="13.217131">
        <ele>32.643546</ele>
        <time>2024-04-24T13:06:10.600Z</time>
      </trkpt>
      <trkpt lat="52.636624" lon="13.216434">
        <ele>32.518611</ele>
        <time>2024-04-24T13:06:22.836Z</time>
      </trkpt>
      <trkpt lat="52.636630" lon="13.216400">
        <ele>32.517838</ele>
        <time>2024-04-24T13:06:23.442Z</time>
      </trkpt>
      <trkpt lat="52.636805" lon="13.215474">
        <ele>32.496665</ele>
        <time>2024-04-24T13:06:36.222Z</time>
      </trkpt>
      <trkpt lat="52.636850" lon="13.215258">
        <ele>32.491680</ele>
        <time>2024-04-24T13:06:40.438Z</time>
      </trkpt>
      <trkpt lat="52.637133" lon="13.213907">
        <ele>32.516634</ele>
        <time>2024-04-24T13:07:07.034Z</time>
      </trkpt>
      <trkpt lat="52.637084" lon="13.213893">
        <ele>32.531621</ele>
        <time>2024-04-24T13:07:08.526Z</time>
      </trkpt>
      <trkpt lat="52.637030" lon="13.213889">
        <ele>32.547911</ele>
        <time>2024-04-24T13:07:09.870Z</time>
      </trkpt>
      <trkpt lat="52.636934" lon="13.213882">
        <ele>32.576869</ele>
        <time>2024-04-24T13:07:12.447Z</time>
      </trkpt>
      <trkpt lat="52.636789" lon="13.213862">
        <ele>32.620718</ele>
        <time>2024-04-24T13:07:16.060Z</time>
      </trkpt>
      <trkpt lat="52.636394" lon="13.213796">
        <ele>32.740363</ele>
        <time>2024-04-24T13:07:25.786Z</time>
      </trkpt>
      <trkpt lat="52.636223" lon="13.213772">
        <ele>32.792081</ele>
        <time>2024-04-24T13:07:29.717Z</time>
      </trkpt>
      <trkpt lat="52.635581" lon="13.213669">
        <ele>32.986465</ele>
        <time>2024-04-24T13:07:44.306Z</time>
      </trkpt>
      <trkpt lat="52.635403" lon="13.213639">
        <ele>33.051235</ele>
        <time>2024-04-24T13:07:48.318Z</time>
      </trkpt>
      <trkpt lat="52.635202" lon="13.213554">
        <ele>33.135046</ele>
        <time>2024-04-24T13:07:53.091Z</time>
      </trkpt>
      <trkpt lat="52.635054" lon="13.213413">
        <ele>33.204091</ele>
        <time>2024-04-24T13:07:57.055Z</time>
      </trkpt>
      <trkpt lat="52.634932" lon="13.213244">
        <ele>33.268463</ele>
        <time>2024-04-24T13:08:00.831Z</time>
      </trkpt>
      <trkpt lat="52.634798" lon="13.212976">
        <ele>33.353575</ele>
        <time>2024-04-24T13:08:05.832Z</time>
      </trkpt>
      <trkpt lat="52.634674" lon="13.212458">
        <ele>33.490063</ele>
        <time>2024-04-24T13:08:13.913Z</time>
      </trkpt>
      <trkpt lat="52.634642" lon="13.212281">
        <ele>33.535332</ele>
        <time>2024-04-24T13:08:16.541Z</time>
      </trkpt>
      <trkpt lat="52.634617" lon="13.212143">
        <ele>33.570632</ele>
        <time>2024-04-24T13:08:18.745Z</time>
      </trkpt>
      <trkpt lat="52.634612" lon="13.212010">
        <ele>33.603294</ele>
        <time>2024-04-24T13:08:20.795Z</time>
      </trkpt>
      <trkpt lat="52.634190" lon="13.212213">
        <ele>33.746653</ele>
        <time>2024-04-24T13:08:31.626Z</time>
      </trkpt>
      <trkpt lat="52.634076" lon="13.212336">
        <ele>33.760706</ele>
        <time>2024-04-24T13:08:34.962Z</time>
      </trkpt>
      <trkpt lat="52.634015" lon="13.212551">
        <ele>33.775561</ele>
        <time>2024-04-24T13:08:38.631Z</time>
      </trkpt>
      <trkpt lat="52.634007" lon="13.213199">
        <ele>33.816128</ele>
        <time>2024-04-24T13:08:48.213Z</time>
      </trkpt>
      <trkpt lat="52.633933" lon="13.213375">
        <ele>33.829529</ele>
        <time>2024-04-24T13:08:51.143Z</time>
      </trkpt>
      <trkpt lat="52.633831" lon="13.213727">
        <ele>33.853943</ele>
        <time>2024-04-24T13:08:56.566Z</time>
      </trkpt>
      <trkpt lat="52.633703" lon="13.214481">
        <ele>33.902948</ele>
        <time>2024-04-24T13:09:06.530Z</time>
      </trkpt>
      <trkpt lat="52.633529" lon="13.214416">
        <ele>33.914159</ele>
        <time>2024-04-24T13:09:11.446Z</time>
      </trkpt>
      <trkpt lat="52.633468" lon="13.215135">
        <ele>33.606656</ele>
        <time>2024-04-24T13:09:20.344Z</time>
      </trkpt>
      <trkpt lat="52.633409" lon="13.215490">
        <ele>33.450755</ele>
        <time>2024-04-24T13:09:24.785Z</time>
      </trkpt>
      <trkpt lat="52.633350" lon="13.215688">
        <ele>33.357326</ele>
        <time>2024-04-24T13:09:27.535Z</time>
      </trkpt>
      <trkpt lat="52.633211" lon="13.215787">
        <ele>33.251643</ele>
        <time>2024-04-24T13:09:30.474Z</time>
      </trkpt>
      <trkpt lat="52.632854" lon="13.215665">
        <ele>32.997190</ele>
        <time>2024-04-24T13:09:37.585Z</time>
      </trkpt>
      <trkpt lat="52.632630" lon="13.215688">
        <ele>32.840558</ele>
        <time>2024-04-24T13:09:41.977Z</time>
      </trkpt>
      <trkpt lat="52.631242" lon="13.216036">
        <ele>32.138184</ele>
        <time>2024-04-24T13:10:10.278Z</time>
      </trkpt>
      <trkpt lat="52.630650" lon="13.216249">
        <ele>31.861155</ele>
        <time>2024-04-24T13:10:23.289Z</time>
      </trkpt>
      <trkpt lat="52.630548" lon="13.216216">
        <ele>31.853771</ele>
        <time>2024-04-24T13:10:25.646Z</time>
      </trkpt>
      <trkpt lat="52.630492" lon="13.216123">
        <ele>31.867368</ele>
        <time>2024-04-24T13:10:27.452Z</time>
      </trkpt>
      <trkpt lat="52.630403" lon="13.215855">
        <ele>31.899075</ele>
        <time>2024-04-24T13:10:31.515Z</time>
      </trkpt>
      <trkpt lat="52.630346" lon="13.215250">
        <ele>31.962621</ele>
        <time>2024-04-24T13:10:39.796Z</time>
      </trkpt>
      <trkpt lat="52.630383" lon="13.215040">
        <ele>31.985317</ele>
        <time>2024-04-24T13:10:42.785Z</time>
      </trkpt>
      <trkpt lat="52.630562" lon="13.214746">
        <ele>32.028538</ele>
        <time>2024-04-24T13:10:48.659Z</time>
      </trkpt>
      <trkpt lat="52.630766" lon="13.214498">
        <ele>32.071890</ele>
        <time>2024-04-24T13:10:54.805Z</time>
      </trkpt>
      <trkpt lat="52.631096" lon="13.214329">
        <ele>32.130984</ele>
        <time>2024-04-24T13:11:03.042Z</time>
      </trkpt>
      <trkpt lat="52.631004" lon="13.214055">
        <ele>32.162167</ele>
        <time>2024-04-24T13:11:07.517Z</time>
      </trkpt>
      <trkpt lat="52.630978" lon="13.213890">
        <ele>32.178077</ele>
        <time>2024-04-24T13:11:09.943Z</time>
      </trkpt>
      <trkpt lat="52.630947" lon="13.213793">
        <ele>32.188308</ele>
        <time>2024-04-24T13:11:12.036Z</time>
      </trkpt>
      <trkpt lat="52.630871" lon="13.213712">
        <ele>32.202227</ele>
        <time>2024-04-24T13:11:14.784Z</time>
      </trkpt>
      <trkpt lat="52.630340" lon="13.213775">
        <ele>32.284090</ele>
        <time>2024-04-24T13:11:30.969Z</time>
      </trkpt>
      <trkpt lat="52.630070" lon="13.213847">
        <ele>32.326148</ele>
        <time>2024-04-24T13:11:39.153Z</time>
      </trkpt>
      <trkpt lat="52.629979" lon="13.213913">
        <ele>32.341437</ele>
        <time>2024-04-24T13:11:42.101Z</time>
      </trkpt>
      <trkpt lat="52.629950" lon="13.213983">
        <ele>32.349347</ele>
        <time>2024-04-24T13:11:43.572Z</time>
      </trkpt>
      <trkpt lat="52.629072" lon="13.216259">
        <ele>32.227807</ele>
        <time>2024-04-24T13:12:19.139Z</time>
      </trkpt>
      <trkpt lat="52.629029" lon="13.216322">
        <ele>32.217681</ele>
        <time>2024-04-24T13:12:20.368Z</time>
      </trkpt>
      <trkpt lat="52.628336" lon="13.216293">
        <ele>32.093096</ele>
        <time>2024-04-24T13:12:35.181Z</time>
      </trkpt>
      <trkpt lat="52.627912" lon="13.216253">
        <ele>32.005245</ele>
        <time>2024-04-24T13:12:44.323Z</time>
      </trkpt>
      <trkpt lat="52.627372" lon="13.216120">
        <ele>31.892301</ele>
        <time>2024-04-24T13:12:56.125Z</time>
      </trkpt>
      <trkpt lat="52.625151" lon="13.215103">
        <ele>31.491965</ele>
        <time>2024-04-24T13:13:45.522Z</time>
      </trkpt>
      <trkpt lat="52.623909" lon="13.214598">
        <ele>31.676761</ele>
        <time>2024-04-24T13:14:14.485Z</time>
      </trkpt>
      <trkpt lat="52.621803" lon="13.213287">
        <ele>32.351775</ele>
        <time>2024-04-24T13:15:08.278Z</time>
      </trkpt>
      <trkpt lat="52.620620" lon="13.211732">
        <ele>32.362792</ele>
        <time>2024-04-24T13:15:41.983Z</time>
      </trkpt>
      <trkpt lat="52.619729" lon="13.210757">
        <ele>32.111408</ele>
        <time>2024-04-24T13:16:04.606Z</time>
      </trkpt>
      <trkpt lat="52.618682" lon="13.209675">
        <ele>31.581885</ele>
        <time>2024-04-24T13:16:30.141Z</time>
      </trkpt>
      <trkpt lat="52.618138" lon="13.208911">
        <ele>31.432277</ele>
        <time>2024-04-24T13:16:44.874Z</time>
      </trkpt>
      <trkpt lat="52.617463" lon="13.208059">
        <ele>31.278492</ele>
        <time>2024-04-24T13:17:03.011Z</time>
      </trkpt>
      <trkpt lat="52.617055" lon="13.207020">
        <ele>31.554572</ele>
        <time>2024-04-24T13:17:20.824Z</time>
      </trkpt>
      <trkpt lat="52.616835" lon="13.206460">
        <ele>31.864116</ele>
        <time>2024-04-24T13:17:31.216Z</time>
      </trkpt>
      <trkpt lat="52.616531" lon="13.205492">
        <ele>32.369885</ele>
        <time>2024-04-24T13:17:49.204Z</time>
      </trkpt>
      <trkpt lat="52.616429" lon="13.205137">
        <ele>32.552152</ele>
        <time>2024-04-24T13:17:55.364Z</time>
      </trkpt>
      <trkpt lat="52.616580" lon="13.205034">
        <ele>32.669014</ele>
        <time>2024-04-24T13:17:59.405Z</time>
      </trkpt>
      <trkpt lat="52.617245" lon="13.204768">
        <ele>33.139894</ele>
        <time>2024-04-24T13:18:15.317Z</time>
      </trkpt>
      <trkpt lat="52.617335" lon="13.204588">
        <ele>33.237309</ele>
        <time>2024-04-24T13:18:18.721Z</time>
      </trkpt>
      <trkpt lat="52.617246" lon="13.204483">
        <ele>33.312638</ele>
        <time>2024-04-24T13:18:21.447Z</time>
      </trkpt>
      <trkpt lat="52.617221" lon="13.204349">
        <ele>33.371202</ele>
        <time>2024-04-24T13:18:23.823Z</time>
      </trkpt>
      <trkpt lat="52.616223" lon="13.204609">
        <ele>34.057991</ele>
        <time>2024-04-24T13:18:50.353Z</time>
      </trkpt>
      <trkpt lat="52.615793" lon="13.204713">
        <ele>34.346162</ele>
        <time>2024-04-24T13:19:00.900Z</time>
      </trkpt>
      <trkpt lat="52.615472" lon="13.204796">
        <ele>34.561609</ele>
        <time>2024-04-24T13:19:07.811Z</time>
      </trkpt>
      <trkpt lat="52.614955" lon="13.204802">
        <ele>34.904416</ele>
        <time>2024-04-24T13:19:20.822Z</time>
      </trkpt>
      <trkpt lat="52.614102" lon="13.204613">
        <ele>35.152053</ele>
        <time>2024-04-24T13:19:44.334Z</time>
      </trkpt>
      <trkpt lat="52.614083" lon="13.204754">
        <ele>35.168328</ele>
        <time>2024-04-24T13:19:46.145Z</time>
      </trkpt>
      <trkpt lat="52.614180" lon="13.204811">
        <ele>35.187441</ele>
        <time>2024-04-24T13:19:48.479Z</time>
      </trkpt>
      <trkpt lat="52.614446" lon="13.204874">
        <ele>35.237314</ele>
        <time>2024-04-24T13:19:54.220Z</time>
      </trkpt>
      <trkpt lat="52.615062" lon="13.204981">
        <ele>35.352266</ele>
        <time>2024-04-24T13:20:06.956Z</time>
      </trkpt>
      <trkpt lat="52.615347" lon="13.204968">
        <ele>35.151323</ele>
        <time>2024-04-24T13:20:12.720Z</time>
      </trkpt>
      <trkpt lat="52.615613" lon="13.204863">
        <ele>34.915002</ele>
        <time>2024-04-24T13:20:18.147Z</time>
      </trkpt>
      <trkpt lat="52.615765" lon="13.205187">
        <ele>34.700222</ele>
        <time>2024-04-24T13:20:23.390Z</time>
      </trkpt>
      <trkpt lat="52.615912" lon="13.205594">
        <ele>34.451808</ele>
        <time>2024-04-24T13:20:28.986Z</time>
      </trkpt>
      <trkpt lat="52.616163" lon="13.206586">
        <ele>33.888073</ele>
        <time>2024-04-24T13:20:41.076Z</time>
      </trkpt>
      <trkpt lat="52.616217" lon="13.207236">
        <ele>33.665650</ele>
        <time>2024-04-24T13:20:48.688Z</time>
      </trkpt>
      <trkpt lat="52.616192" lon="13.207740">
        <ele>33.523430</ele>
        <time>2024-04-24T13:20:54.909Z</time>
      </trkpt>
      <trkpt lat="52.616070" lon="13.208251">
        <ele>33.369001</ele>
        <time>2024-04-24T13:21:01.692Z</time>
      </trkpt>
      <trkpt lat="52.615996" lon="13.208360">
        <ele>33.323014</ele>
        <time>2024-04-24T13:21:03.728Z</time>
      </trkpt>
      <trkpt lat="52.616070" lon="13.208251">
        <ele>33.277027</ele>
        <time>2024-04-24T13:21:05.816Z</time>
      </trkpt>
      <trkpt lat="52.616192" lon="13.207740">
        <ele>33.122598</ele>
        <time>2024-04-24T13:21:13.031Z</time>
      </trkpt>
      <trkpt lat="52.615761" lon="13.207191">
        <ele>33.057156</ele>
        <time>2024-04-24T13:21:29.295Z</time>
      </trkpt>
      <trkpt lat="52.615443" lon="13.206777">
        <ele>33.210316</ele>
        <time>2024-04-24T13:21:38.814Z</time>
      </trkpt>
      <trkpt lat="52.614676" lon="13.205804">
        <ele>33.576128</ele>
        <time>2024-04-24T13:22:03.151Z</time>
      </trkpt>
      <trkpt lat="52.614074" lon="13.205041">
        <ele>33.429743</ele>
        <time>2024-04-24T13:22:19.853Z</time>
      </trkpt>
      <trkpt lat="52.613957" lon="13.204855">
        <ele>33.364597</ele>
        <time>2024-04-24T13:22:23.533Z</time>
      </trkpt>
      <trkpt lat="52.613946" lon="13.204719">
        <ele>33.331223</ele>
        <time>2024-04-24T13:22:25.321Z</time>
      </trkpt>
      <trkpt lat="52.614083" lon="13.204754">
        <ele>33.275682</ele>
        <time>2024-04-24T13:22:28.036Z</time>
      </trkpt>
      <trkpt lat="52.614102" lon="13.204613">
        <ele>33.240550</ele>
        <time>2024-04-24T13:22:29.933Z</time>
      </trkpt>
      <trkpt lat="52.614113" lon="13.204537">
        <ele>33.221545</ele>
        <time>2024-04-24T13:22:30.932Z</time>
      </trkpt>
      <trkpt lat="52.613945" lon="13.204497">
        <ele>33.153541</ele>
        <time>2024-04-24T13:22:34.269Z</time>
      </trkpt>
      <trkpt lat="52.613618" lon="13.204431">
        <ele>33.021560</ele>
        <time>2024-04-24T13:22:40.849Z</time>
      </trkpt>
      <trkpt lat="52.613611" lon="13.204514">
        <ele>33.001176</ele>
        <time>2024-04-24T13:22:41.805Z</time>
      </trkpt>
      <trkpt lat="52.613602" lon="13.204640">
        <ele>32.970315</ele>
        <time>2024-04-24T13:22:43.392Z</time>
      </trkpt>
      <trkpt lat="52.613564" lon="13.204764">
        <ele>32.936528</ele>
        <time>2024-04-24T13:22:45.158Z</time>
      </trkpt>
      <trkpt lat="52.613514" lon="13.204816">
        <ele>32.895977</ele>
        <time>2024-04-24T13:22:46.290Z</time>
      </trkpt>
      <trkpt lat="52.612643" lon="13.204873">
        <ele>32.242925</ele>
        <time>2024-04-24T13:23:03.488Z</time>
      </trkpt>
      <trkpt lat="52.611729" lon="13.205085">
        <ele>31.575230</ele>
        <time>2024-04-24T13:23:21.662Z</time>
      </trkpt>
      <trkpt lat="52.611671" lon="13.205062">
        <ele>31.562505</ele>
        <time>2024-04-24T13:23:22.898Z</time>
      </trkpt>
      <trkpt lat="52.611645" lon="13.205016">
        <ele>31.554365</ele>
        <time>2024-04-24T13:23:23.688Z</time>
      </trkpt>
      <trkpt lat="52.611550" lon="13.204503">
        <ele>31.484900</ele>
        <time>2024-04-24T13:23:30.387Z</time>
      </trkpt>
      <trkpt lat="52.611397" lon="13.204211">
        <ele>31.434945</ele>
        <time>2024-04-24T13:23:35.240Z</time>
      </trkpt>
      <trkpt lat="52.611266" lon="13.204078">
        <ele>31.402119</ele>
        <time>2024-04-24T13:23:38.463Z</time>
      </trkpt>
      <trkpt lat="52.611138" lon="13.204007">
        <ele>31.373309</ele>
        <time>2024-04-24T13:23:41.404Z</time>
      </trkpt>
      <trkpt lat="52.610872" lon="13.203927">
        <ele>31.315632</ele>
        <time>2024-04-24T13:23:47.584Z</time>
      </trkpt>
      <trkpt lat="52.610509" lon="13.203991">
        <ele>31.237760</ele>
        <time>2024-04-24T13:23:55.966Z</time>
      </trkpt>
      <trkpt lat="52.610132" lon="13.203944">
        <ele>31.232574</ele>
        <time>2024-04-24T13:24:04.616Z</time>
      </trkpt>
      <trkpt lat="52.609859" lon="13.203813">
        <ele>31.276089</ele>
        <time>2024-04-24T13:24:10.944Z</time>
      </trkpt>
      <trkpt lat="52.609695" lon="13.203689">
        <ele>31.303705</ele>
        <time>2024-04-24T13:24:14.908Z</time>
      </trkpt>
      <trkpt lat="52.609687" lon="13.203622">
        <ele>31.310050</ele>
        <time>2024-04-24T13:24:15.836Z</time>
      </trkpt>
      <trkpt lat="52.609470" lon="13.203436">
        <ele>31.347487</ele>
        <time>2024-04-24T13:24:21.238Z</time>
      </trkpt>
      <trkpt lat="52.609291" lon="13.203210">
        <ele>31.382004</ele>
        <time>2024-04-24T13:24:26.169Z</time>
      </trkpt>
      <trkpt lat="52.609151" lon="13.202976">
        <ele>31.412531</ele>
        <time>2024-04-24T13:24:30.784Z</time>
      </trkpt>
      <trkpt lat="52.608860" lon="13.202355">
        <ele>31.495326</ele>
        <time>2024-04-24T13:24:42.036Z</time>
      </trkpt>
      <trkpt lat="52.608552" lon="13.201757">
        <ele>31.647287</ele>
        <time>2024-04-24T13:24:54.091Z</time>
      </trkpt>
      <trkpt lat="52.607866" lon="13.200674">
        <ele>31.950571</ele>
        <time>2024-04-24T13:25:15.578Z</time>
      </trkpt>
      <trkpt lat="52.607676" lon="13.200470">
        <ele>32.022957</ele>
        <time>2024-04-24T13:25:20.922Z</time>
      </trkpt>
      <trkpt lat="52.607397" lon="13.200281">
        <ele>32.087452</ele>
        <time>2024-04-24T13:25:28.106Z</time>
      </trkpt>
      <trkpt lat="52.606961" lon="13.200091">
        <ele>32.165010</ele>
        <time>2024-04-24T13:25:38.945Z</time>
      </trkpt>
      <trkpt lat="52.606931" lon="13.200107">
        <ele>32.170432</ele>
        <time>2024-04-24T13:25:39.676Z</time>
      </trkpt>
      <trkpt lat="52.606898" lon="13.200123">
        <ele>32.176348</ele>
        <time>2024-04-24T13:25:40.470Z</time>
      </trkpt>
      <trkpt lat="52.606529" lon="13.199972">
        <ele>32.241733</ele>
        <time>2024-04-24T13:25:49.540Z</time>
      </trkpt>
      <trkpt lat="52.606040" lon="13.199795">
        <ele>32.327832</ele>
        <time>2024-04-24T13:26:00.687Z</time>
      </trkpt>
      <trkpt lat="52.605208" lon="13.199833">
        <ele>32.372752</ele>
        <time>2024-04-24T13:26:18.766Z</time>
      </trkpt>
      <trkpt lat="52.605118" lon="13.199851">
        <ele>32.374592</ele>
        <time>2024-04-24T13:26:20.797Z</time>
      </trkpt>
      <trkpt lat="52.604983" lon="13.199866">
        <ele>32.377337</ele>
        <time>2024-04-24T13:26:23.820Z</time>
      </trkpt>
      <trkpt lat="52.604795" lon="13.199851">
        <ele>32.381155</ele>
        <time>2024-04-24T13:26:28.192Z</time>
      </trkpt>
      <trkpt lat="52.603816" lon="13.199236">
        <ele>32.393686</ele>
        <time>2024-04-24T13:26:51.551Z</time>
      </trkpt>
      <trkpt lat="52.603728" lon="13.199217">
        <ele>32.392996</ele>
        <time>2024-04-24T13:26:53.465Z</time>
      </trkpt>
      <trkpt lat="52.603504" lon="13.199232">
        <ele>32.391250</ele>
        <time>2024-04-24T13:26:58.405Z</time>
      </trkpt>
      <trkpt lat="52.603427" lon="13.199279">
        <ele>32.390611</ele>
        <time>2024-04-24T13:27:00.217Z</time>
      </trkpt>
      <trkpt lat="52.603106" lon="13.199668">
        <ele>32.387508</ele>
        <time>2024-04-24T13:27:09.300Z</time>
      </trkpt>
      <trkpt lat="52.602993" lon="13.199796">
        <ele>32.386441</ele>
        <time>2024-04-24T13:27:12.439Z</time>
      </trkpt>
      <trkpt lat="52.602213" lon="13.200313">
        <ele>32.346262</ele>
        <time>2024-04-24T13:27:30.841Z</time>
      </trkpt>
      <trkpt lat="52.601055" lon="13.200660">
        <ele>32.197624</ele>
        <time>2024-04-24T13:27:56.215Z</time>
      </trkpt>
      <trkpt lat="52.600828" lon="13.200755">
        <ele>32.168046</ele>
        <time>2024-04-24T13:28:01.341Z</time>
      </trkpt>
      <trkpt lat="52.600743" lon="13.200830">
        <ele>32.155868</ele>
        <time>2024-04-24T13:28:03.414Z</time>
      </trkpt>
      <trkpt lat="52.600671" lon="13.200928">
        <ele>32.160510</ele>
        <time>2024-04-24T13:28:05.424Z</time>
      </trkpt>
      <trkpt lat="52.600426" lon="13.201426">
        <ele>32.185522</ele>
        <time>2024-04-24T13:28:14.018Z</time>
      </trkpt>
      <trkpt lat="52.600328" lon="13.201518">
        <ele>32.192770</ele>
        <time>2024-04-24T13:28:16.538Z</time>
      </trkpt>
      <trkpt lat="52.599200" lon="13.201866">
        <ele>32.266512</ele>
        <time>2024-04-24T13:28:42.423Z</time>
      </trkpt>
      <trkpt lat="52.599075" lon="13.201977">
        <ele>32.297462</ele>
        <time>2024-04-24T13:28:45.820Z</time>
      </trkpt>
      <trkpt lat="52.598781" lon="13.202436">
        <ele>32.434937</ele>
        <time>2024-04-24T13:28:55.525Z</time>
      </trkpt>
      <trkpt lat="52.598628" lon="13.202740">
        <ele>32.516301</ele>
        <time>2024-04-24T13:29:01.101Z</time>
      </trkpt>
      <trkpt lat="52.598461" lon="13.203242">
        <ele>32.634259</ele>
        <time>2024-04-24T13:29:09.290Z</time>
      </trkpt>
      <trkpt lat="52.598388" lon="13.203312">
        <ele>32.662923</ele>
        <time>2024-04-24T13:29:11.384Z</time>
      </trkpt>
      <trkpt lat="52.597959" lon="13.203539">
        <ele>32.815817</ele>
        <time>2024-04-24T13:29:22.003Z</time>
      </trkpt>
      <trkpt lat="52.597724" lon="13.203802">
        <ele>32.922065</ele>
        <time>2024-04-24T13:29:28.824Z</time>
      </trkpt>
      <trkpt lat="52.597585" lon="13.204095">
        <ele>33.022675</ele>
        <time>2024-04-24T13:29:34.289Z</time>
      </trkpt>
      <trkpt lat="52.597562" lon="13.204153">
        <ele>33.041420</ele>
        <time>2024-04-24T13:29:35.572Z</time>
      </trkpt>
      <trkpt lat="52.597479" lon="13.204369">
        <ele>33.110589</ele>
        <time>2024-04-24T13:29:40.553Z</time>
      </trkpt>
      <trkpt lat="52.597149" lon="13.205228">
        <ele>33.385647</ele>
        <time>2024-04-24T13:29:55.120Z</time>
      </trkpt>
      <trkpt lat="52.596763" lon="13.206340">
        <ele>33.727832</ele>
        <time>2024-04-24T13:30:13.816Z</time>
      </trkpt>
      <trkpt lat="52.596689" lon="13.206480">
        <ele>33.773621</ele>
        <time>2024-04-24T13:30:16.456Z</time>
      </trkpt>
      <trkpt lat="52.596587" lon="13.206567">
        <ele>33.820282</ele>
        <time>2024-04-24T13:30:19.296Z</time>
      </trkpt>
      <trkpt lat="52.596531" lon="13.206672">
        <ele>33.854757</ele>
        <time>2024-04-24T13:30:21.432Z</time>
      </trkpt>
      <trkpt lat="52.596368" lon="13.206839">
        <ele>33.932739</ele>
        <time>2024-04-24T13:30:26.063Z</time>
      </trkpt>
      <trkpt lat="52.595833" lon="13.208127">
        <ele>34.317720</ele>
        <time>2024-04-24T13:30:48.983Z</time>
      </trkpt>
      <trkpt lat="52.595515" lon="13.208931">
        <ele>34.377782</ele>
        <time>2024-04-24T13:31:02.205Z</time>
      </trkpt>
      <trkpt lat="52.595264" lon="13.209561">
        <ele>34.331895</ele>
        <time>2024-04-24T13:31:12.868Z</time>
      </trkpt>
      <trkpt lat="52.595062" lon="13.209931">
        <ele>34.301595</ele>
        <time>2024-04-24T13:31:19.553Z</time>
      </trkpt>
      <trkpt lat="52.592836" lon="13.212901">
        <ele>33.151734</ele>
        <time>2024-04-24T13:32:18.121Z</time>
      </trkpt>
      <trkpt lat="52.592772" lon="13.212936">
        <ele>33.126165</ele>
        <time>2024-04-24T13:32:19.504Z</time>
      </trkpt>
      <trkpt lat="52.592015" lon="13.212964">
        <ele>32.839087</ele>
        <time>2024-04-24T13:32:35.410Z</time>
      </trkpt>
      <trkpt lat="52.591340" lon="13.212845">
        <ele>32.606968</ele>
        <time>2024-04-24T13:32:49.704Z</time>
      </trkpt>
      <trkpt lat="52.590676" lon="13.212867">
        <ele>32.560928</ele>
        <time>2024-04-24T13:33:04.180Z</time>
      </trkpt>
      <trkpt lat="52.590059" lon="13.212942">
        <ele>32.518039</ele>
        <time>2024-04-24T13:33:17.850Z</time>
      </trkpt>
      <trkpt lat="52.588166" lon="13.213126">
        <ele>32.792229</ele>
        <time>2024-04-24T13:34:01.098Z</time>
      </trkpt>
      <trkpt lat="52.587999" lon="13.213150">
        <ele>32.827120</ele>
        <time>2024-04-24T13:34:05.067Z</time>
      </trkpt>
      <trkpt lat="52.587852" lon="13.213223">
        <ele>32.859078</ele>
        <time>2024-04-24T13:34:08.783Z</time>
      </trkpt>
      <trkpt lat="52.587663" lon="13.213432">
        <ele>33.040812</ele>
        <time>2024-04-24T13:34:14.268Z</time>
      </trkpt>
      <trkpt lat="52.587576" lon="13.213486">
        <ele>33.119020</ele>
        <time>2024-04-24T13:34:16.533Z</time>
      </trkpt>
      <trkpt lat="52.587504" lon="13.213415">
        <ele>33.189618</ele>
        <time>2024-04-24T13:34:18.586Z</time>
      </trkpt>
      <trkpt lat="52.587384" lon="13.213026">
        <ele>33.412564</ele>
        <time>2024-04-24T13:34:24.798Z</time>
      </trkpt>
      <trkpt lat="52.587309" lon="13.212924">
        <ele>33.494397</ele>
        <time>2024-04-24T13:34:27.068Z</time>
      </trkpt>
      <trkpt lat="52.587212" lon="13.212883">
        <ele>33.578634</ele>
        <time>2024-04-24T13:34:29.486Z</time>
      </trkpt>
      <trkpt lat="52.587182" lon="13.212876">
        <ele>33.604120</ele>
        <time>2024-04-24T13:34:30.178Z</time>
      </trkpt>
      <trkpt lat="52.586178" lon="13.212638">
        <ele>34.515038</ele>
        <time>2024-04-24T13:34:57.435Z</time>
      </trkpt>
      <trkpt lat="52.586070" lon="13.212605">
        <ele>34.672348</ele>
        <time>2024-04-24T13:35:00.527Z</time>
      </trkpt>
      <trkpt lat="52.585884" lon="13.212496">
        <ele>34.955100</ele>
        <time>2024-04-24T13:35:06.446Z</time>
      </trkpt>
      <trkpt lat="52.585617" lon="13.211849">
        <ele>35.635638</ele>
        <time>2024-04-24T13:35:20.476Z</time>
      </trkpt>
      <trkpt lat="52.585465" lon="13.211650">
        <ele>35.913786</ele>
        <time>2024-04-24T13:35:26.010Z</time>
      </trkpt>
      <trkpt lat="52.585445" lon="13.211575">
        <ele>35.985054</ele>
        <time>2024-04-24T13:35:27.394Z</time>
      </trkpt>
      <trkpt lat="52.585454" lon="13.211493">
        <ele>36.057558</ele>
        <time>2024-04-24T13:35:28.903Z</time>
      </trkpt>
      <trkpt lat="52.585549" lon="13.211244">
        <ele>36.313391</ele>
        <time>2024-04-24T13:35:33.649Z</time>
      </trkpt>
      <trkpt lat="52.585637" lon="13.211012">
        <ele>36.551366</ele>
        <time>2024-04-24T13:35:38.163Z</time>
      </trkpt>
      <trkpt lat="52.585724" lon="13.210523">
        <ele>36.957416</ele>
        <time>2024-04-24T13:35:46.227Z</time>
      </trkpt>
      <trkpt lat="52.585713" lon="13.210372">
        <ele>36.976770</ele>
        <time>2024-04-24T13:35:48.731Z</time>
      </trkpt>
      <trkpt lat="52.585680" lon="13.210254">
        <ele>36.993301</ele>
        <time>2024-04-24T13:35:50.869Z</time>
      </trkpt>
      <trkpt lat="52.585433" lon="13.209789">
        <ele>37.071905</ele>
        <time>2024-04-24T13:36:00.903Z</time>
      </trkpt>
      <trkpt lat="52.585432" lon="13.209713">
        <ele>37.081579</ele>
        <time>2024-04-24T13:36:02.105Z</time>
      </trkpt>
      <trkpt lat="52.585505" lon="13.209378">
        <ele>37.126871</ele>
        <time>2024-04-24T13:36:07.715Z</time>
      </trkpt>
      <trkpt lat="52.585503" lon="13.209006">
        <ele>37.174215</ele>
        <time>2024-04-24T13:36:12.808Z</time>
      </trkpt>
      <trkpt lat="52.584506" lon="13.207368">
        <ele>36.866667</ele>
        <time>2024-04-24T13:36:41.170Z</time>
      </trkpt>
      <trkpt lat="52.584410" lon="13.207127">
        <ele>36.747170</ele>
        <time>2024-04-24T13:36:44.770Z</time>
      </trkpt>
      <trkpt lat="52.584584" lon="13.206878">
        <ele>36.589807</ele>
        <time>2024-04-24T13:36:49.346Z</time>
      </trkpt>
      <trkpt lat="52.584901" lon="13.206416">
        <ele>36.300831</ele>
        <time>2024-04-24T13:36:57.838Z</time>
      </trkpt>
      <trkpt lat="52.586104" lon="13.204662">
        <ele>35.043841</ele>
        <time>2024-04-24T13:37:29.247Z</time>
      </trkpt>
      <trkpt lat="52.586692" lon="13.203786">
        <ele>34.601440</ele>
        <time>2024-04-24T13:37:45.130Z</time>
      </trkpt>
      <trkpt lat="52.587209" lon="13.203306">
        <ele>34.501304</ele>
        <time>2024-04-24T13:37:57.956Z</time>
      </trkpt>
      <trkpt lat="52.587584" lon="13.202747">
        <ele>34.415955</ele>
        <time>2024-04-24T13:38:08.987Z</time>
      </trkpt>
      <trkpt lat="52.587888" lon="13.202406">
        <ele>34.353894</ele>
        <time>2024-04-24T13:38:17.170Z</time>
      </trkpt>
      <trkpt lat="52.587912" lon="13.202387">
        <ele>34.351854</ele>
        <time>2024-04-24T13:38:17.744Z</time>
      </trkpt>
      <trkpt lat="52.587972" lon="13.202165">
        <ele>34.445737</ele>
        <time>2024-04-24T13:38:23.382Z</time>
      </trkpt>
      <trkpt lat="52.588056" lon="13.201985">
        <ele>34.533438</ele>
        <time>2024-04-24T13:38:26.530Z</time>
      </trkpt>
      <trkpt lat="52.588631" lon="13.200565">
        <ele>35.192810</ele>
        <time>2024-04-24T13:38:53.144Z</time>
      </trkpt>
      <trkpt lat="52.588772" lon="13.199853">
        <ele>35.482163</ele>
        <time>2024-04-24T13:39:04.609Z</time>
      </trkpt>
      <trkpt lat="52.588913" lon="13.198901">
        <ele>35.727406</ele>
        <time>2024-04-24T13:39:19.270Z</time>
      </trkpt>
      <trkpt lat="52.589250" lon="13.196238">
        <ele>36.107849</ele>
        <time>2024-04-24T13:39:58.057Z</time>
      </trkpt>
      <trkpt lat="52.590240" lon="13.191342">
        <ele>34.938742</ele>
        <time>2024-04-24T13:41:02.610Z</time>
      </trkpt>
      <trkpt lat="52.590313" lon="13.191085">
        <ele>34.899989</ele>
        <time>2024-04-24T13:41:06.313Z</time>
      </trkpt>
      <trkpt lat="52.590688" lon="13.190458">
        <ele>34.807577</ele>
        <time>2024-04-24T13:41:17.723Z</time>
      </trkpt>
      <trkpt lat="52.591184" lon="13.189225">
        <ele>34.652259</ele>
        <time>2024-04-24T13:41:37.237Z</time>
      </trkpt>
      <trkpt lat="52.591656" lon="13.187803">
        <ele>34.549451</ele>
        <time>2024-04-24T13:41:59.112Z</time>
      </trkpt>
      <trkpt lat="52.592463" lon="13.185630">
        <ele>34.382487</ele>
        <time>2024-04-24T13:42:32.781Z</time>
      </trkpt>
      <trkpt lat="52.593179" lon="13.184660">
        <ele>34.237368</ele>
        <time>2024-04-24T13:42:52.861Z</time>
      </trkpt>
      <trkpt lat="52.593415" lon="13.184187">
        <ele>34.179063</ele>
        <time>2024-04-24T13:43:00.881Z</time>
      </trkpt>
      <trkpt lat="52.593663" lon="13.183284">
        <ele>34.076730</ele>
        <time>2024-04-24T13:43:13.810Z</time>
      </trkpt>
      <trkpt lat="52.593934" lon="13.181390">
        <ele>33.875798</ele>
        <time>2024-04-24T13:43:39.442Z</time>
      </trkpt>
      <trkpt lat="52.594054" lon="13.180880">
        <ele>33.792770</ele>
        <time>2024-04-24T13:43:46.622Z</time>
      </trkpt>
      <trkpt lat="52.594672" lon="13.179063">
        <ele>33.474736</ele>
        <time>2024-04-24T13:44:13.470Z</time>
      </trkpt>
      <trkpt lat="52.594849" lon="13.178357">
        <ele>33.395508</ele>
        <time>2024-04-24T13:44:23.254Z</time>
      </trkpt>
      <trkpt lat="52.594902" lon="13.176744">
        <ele>33.292020</ele>
        <time>2024-04-24T13:44:44.738Z</time>
      </trkpt>
      <trkpt lat="52.595012" lon="13.175575">
        <ele>33.202347</ele>
        <time>2024-04-24T13:45:00.837Z</time>
      </trkpt>
      <trkpt lat="52.595069" lon="13.174745">
        <ele>33.104108</ele>
        <time>2024-04-24T13:45:11.971Z</time>
      </trkpt>
      <trkpt lat="52.595295" lon="13.173684">
        <ele>32.971875</ele>
        <time>2024-04-24T13:45:26.455Z</time>
      </trkpt>
      <trkpt lat="52.595371" lon="13.173466">
        <ele>32.942313</ele>
        <time>2024-04-24T13:45:29.654Z</time>
      </trkpt>
      <trkpt lat="52.596032" lon="13.172466">
        <ele>32.826638</ele>
        <time>2024-04-24T13:45:48.630Z</time>
      </trkpt>
      <trkpt lat="52.596258" lon="13.172004">
        <ele>32.791806</ele>
        <time>2024-04-24T13:45:56.399Z</time>
      </trkpt>
      <trkpt lat="52.596422" lon="13.171366">
        <ele>32.751127</ele>
        <time>2024-04-24T13:46:05.626Z</time>
      </trkpt>
      <trkpt lat="52.596580" lon="13.170713">
        <ele>32.711787</ele>
        <time>2024-04-24T13:46:15.302Z</time>
      </trkpt>
      <trkpt lat="52.596592" lon="13.170666">
        <ele>32.715365</ele>
        <time>2024-04-24T13:46:16.002Z</time>
      </trkpt>
      <trkpt lat="52.596756" lon="13.169984">
        <ele>32.766832</ele>
        <time>2024-04-24T13:46:26.361Z</time>
      </trkpt>
      <trkpt lat="52.596946" lon="13.168298">
        <ele>32.887153</ele>
        <time>2024-04-24T13:46:50.695Z</time>
      </trkpt>
      <trkpt lat="52.596974" lon="13.167680">
        <ele>32.862855</ele>
        <time>2024-04-24T13:46:58.883Z</time>
      </trkpt>
      <trkpt lat="52.596963" lon="13.167115">
        <ele>32.680848</ele>
        <time>2024-04-24T13:47:05.922Z</time>
      </trkpt>
      <trkpt lat="52.596906" lon="13.166711">
        <ele>32.547309</ele>
        <time>2024-04-24T13:47:11.022Z</time>
      </trkpt>
      <trkpt lat="52.596856" lon="13.166265">
        <ele>32.401284</ele>
        <time>2024-04-24T13:47:16.543Z</time>
      </trkpt>
      <trkpt lat="52.596913" lon="13.165362">
        <ele>32.108977</ele>
        <time>2024-04-24T13:47:27.554Z</time>
      </trkpt>
      <trkpt lat="52.597012" lon="13.164793">
        <ele>31.929691</ele>
        <time>2024-04-24T13:47:34.852Z</time>
      </trkpt>
      <trkpt lat="52.597154" lon="13.164660">
        <ele>31.864014</ele>
        <time>2024-04-24T13:47:38.247Z</time>
      </trkpt>
      <trkpt lat="52.597498" lon="13.164694">
        <ele>31.725474</ele>
        <time>2024-04-24T13:47:45.306Z</time>
      </trkpt>
      <trkpt lat="52.598436" lon="13.164446">
        <ele>31.343560</ele>
        <time>2024-04-24T13:48:04.975Z</time>
      </trkpt>
      <trkpt lat="52.598582" lon="13.164360">
        <ele>31.281224</ele>
        <time>2024-04-24T13:48:08.330Z</time>
      </trkpt>
      <trkpt lat="52.598665" lon="13.164194">
        <ele>31.240033</ele>
        <time>2024-04-24T13:48:11.217Z</time>
      </trkpt>
      <trkpt lat="52.598686" lon="13.164094">
        <ele>31.236136</ele>
        <time>2024-04-24T13:48:12.649Z</time>
      </trkpt>
      <trkpt lat="52.598676" lon="13.164024">
        <ele>31.233487</ele>
        <time>2024-04-24T13:48:13.615Z</time>
      </trkpt>
      <trkpt lat="52.598139" lon="13.160327">
        <ele>31.253203</ele>
        <time>2024-04-24T13:49:04.437Z</time>
      </trkpt>
      <trkpt lat="52.597904" lon="13.158984">
        <ele>31.409908</ele>
        <time>2024-04-24T13:49:24.451Z</time>
      </trkpt>
      <trkpt lat="52.597838" lon="13.158807">
        <ele>31.433195</ele>
        <time>2024-04-24T13:49:27.546Z</time>
      </trkpt>
      <trkpt lat="52.597774" lon="13.158727">
        <ele>31.448028</ele>
        <time>2024-04-24T13:49:29.496Z</time>
      </trkpt>
      <trkpt lat="52.597620" lon="13.158710">
        <ele>31.482265</ele>
        <time>2024-04-24T13:49:33.324Z</time>
      </trkpt>
      <trkpt lat="52.596209" lon="13.159062">
        <ele>31.877037</ele>
        <time>2024-04-24T13:50:06.852Z</time>
      </trkpt>
      <trkpt lat="52.596004" lon="13.159066">
        <ele>31.933749</ele>
        <time>2024-04-24T13:50:11.469Z</time>
      </trkpt>
      <trkpt lat="52.595511" lon="13.158807">
        <ele>31.938788</ele>
        <time>2024-04-24T13:50:23.022Z</time>
      </trkpt>
      <trkpt lat="52.595431" lon="13.158712">
        <ele>31.933120</ele>
        <time>2024-04-24T13:50:25.179Z</time>
      </trkpt>
      <trkpt lat="52.595364" lon="13.158688">
        <ele>31.929179</ele>
        <time>2024-04-24T13:50:26.688Z</time>
      </trkpt>
      <trkpt lat="52.595479" lon="13.157384">
        <ele>31.883185</ele>
        <time>2024-04-24T13:50:44.672Z</time>
      </trkpt>
      <trkpt lat="52.595756" lon="13.154168">
        <ele>31.659559</ele>
        <time>2024-04-24T13:51:29.775Z</time>
      </trkpt>
      <trkpt lat="52.595711" lon="13.154075">
        <ele>31.650290</ele>
        <time>2024-04-24T13:51:31.325Z</time>
      </trkpt>
      <trkpt lat="52.595599" lon="13.153805">
        <ele>31.621392</ele>
        <time>2024-04-24T13:51:35.618Z</time>
      </trkpt>
      <trkpt lat="52.595448" lon="13.153616">
        <ele>31.573628</ele>
        <time>2024-04-24T13:51:39.675Z</time>
      </trkpt>
      <trkpt lat="52.594623" lon="13.152822">
        <ele>31.332991</ele>
        <time>2024-04-24T13:51:59.932Z</time>
      </trkpt>
      <trkpt lat="52.593963" lon="13.152087">
        <ele>31.162140</ele>
        <time>2024-04-24T13:52:16.764Z</time>
      </trkpt>
      <trkpt lat="52.591969" lon="13.149521">
        <ele>30.982969</ele>
        <time>2024-04-24T13:53:12.643Z</time>
      </trkpt>
      <trkpt lat="52.591692" lon="13.149042">
        <ele>30.959523</ele>
        <time>2024-04-24T13:53:21.545Z</time>
      </trkpt>
      <trkpt lat="52.591561" lon="13.148705">
        <ele>30.945338</ele>
        <time>2024-04-24T13:53:26.894Z</time>
      </trkpt>
      <trkpt lat="52.589666" lon="13.143449">
        <ele>30.437322</ele>
        <time>2024-04-24T13:54:46.993Z</time>
      </trkpt>
      <trkpt lat="52.589407" lon="13.142364">
        <ele>30.694380</ele>
        <time>2024-04-24T13:55:03.437Z</time>
      </trkpt>
      <trkpt lat="52.589339" lon="13.142174">
        <ele>30.757754</ele>
        <time>2024-04-24T13:55:06.761Z</time>
      </trkpt>
      <trkpt lat="52.589293" lon="13.142107">
        <ele>30.786810</ele>
        <time>2024-04-24T13:55:08.232Z</time>
      </trkpt>
      <trkpt lat="52.589114" lon="13.141980">
        <ele>30.879017</ele>
        <time>2024-04-24T13:55:13.058Z</time>
      </trkpt>
      <trkpt lat="52.588850" lon="13.141860">
        <ele>31.008576</ele>
        <time>2024-04-24T13:55:19.934Z</time>
      </trkpt>
      <trkpt lat="52.588599" lon="13.141792">
        <ele>31.128909</ele>
        <time>2024-04-24T13:55:26.359Z</time>
      </trkpt>
      <trkpt lat="52.588204" lon="13.141879">
        <ele>31.312213</ele>
        <time>2024-04-24T13:55:36.246Z</time>
      </trkpt>
      <trkpt lat="52.587700" lon="13.141848">
        <ele>31.522212</ele>
        <time>2024-04-24T13:55:48.573Z</time>
      </trkpt>
      <trkpt lat="52.587304" lon="13.141957">
        <ele>31.689385</ele>
        <time>2024-04-24T13:55:58.358Z</time>
      </trkpt>
      <trkpt lat="52.587379" lon="13.142411">
        <ele>31.808403</ele>
        <time>2024-04-24T13:56:05.157Z</time>
      </trkpt>
      <trkpt lat="52.587404" lon="13.142924">
        <ele>31.938592</ele>
        <time>2024-04-24T13:56:12.449Z</time>
      </trkpt>
      <trkpt lat="52.587375" lon="13.143384">
        <ele>32.012465</ele>
        <time>2024-04-24T13:56:18.821Z</time>
      </trkpt>
      <trkpt lat="52.587325" lon="13.143769">
        <ele>31.981057</ele>
        <time>2024-04-24T13:56:24.150Z</time>
      </trkpt>
      <trkpt lat="52.587247" lon="13.144013">
        <ele>31.959062</ele>
        <time>2024-04-24T13:56:27.793Z</time>
      </trkpt>
      <trkpt lat="52.586945" lon="13.144137">
        <ele>31.918191</ele>
        <time>2024-04-24T13:56:34.444Z</time>
      </trkpt>
      <trkpt lat="52.586596" lon="13.144231">
        <ele>31.871755</ele>
        <time>2024-04-24T13:56:41.994Z</time>
      </trkpt>
      <trkpt lat="52.586524" lon="13.144186">
        <ele>31.861642</ele>
        <time>2024-04-24T13:56:43.672Z</time>
      </trkpt>
      <trkpt lat="52.586377" lon="13.144004">
        <ele>31.837488</ele>
        <time>2024-04-24T13:56:47.599Z</time>
      </trkpt>
      <trkpt lat="52.586242" lon="13.143954">
        <ele>31.819318</ele>
        <time>2024-04-24T13:56:50.591Z</time>
      </trkpt>
      <trkpt lat="52.586160" lon="13.143994">
        <ele>31.808088</ele>
        <time>2024-04-24T13:56:52.461Z</time>
      </trkpt>
      <trkpt lat="52.585731" lon="13.144869">
        <ele>31.751487</ele>
        <time>2024-04-24T13:57:07.183Z</time>
      </trkpt>
      <trkpt lat="52.585673" lon="13.145084">
        <ele>31.741823</ele>
        <time>2024-04-24T13:57:10.322Z</time>
      </trkpt>
      <trkpt lat="52.585756" lon="13.146701">
        <ele>31.675159</ele>
        <time>2024-04-24T13:57:32.128Z</time>
      </trkpt>
      <trkpt lat="52.585906" lon="13.148735">
        <ele>31.808793</ele>
        <time>2024-04-24T13:58:00.390Z</time>
      </trkpt>
      <trkpt lat="52.585899" lon="13.148972">
        <ele>31.827727</ele>
        <time>2024-04-24T13:58:03.659Z</time>
      </trkpt>
      <trkpt lat="52.585868" lon="13.149035">
        <ele>31.834196</ele>
        <time>2024-04-24T13:58:04.797Z</time>
      </trkpt>
      <trkpt lat="52.585737" lon="13.149291">
        <ele>31.860903</ele>
        <time>2024-04-24T13:58:09.497Z</time>
      </trkpt>
      <trkpt lat="52.585397" lon="13.149660">
        <ele>31.906736</ele>
        <time>2024-04-24T13:58:18.789Z</time>
      </trkpt>
      <trkpt lat="52.584919" lon="13.149959">
        <ele>31.934814</ele>
        <time>2024-04-24T13:58:30.380Z</time>
      </trkpt>
      <trkpt lat="52.584172" lon="13.149885">
        <ele>31.975907</ele>
        <time>2024-04-24T13:58:47.184Z</time>
      </trkpt>
      <trkpt lat="52.583320" lon="13.149906">
        <ele>32.033763</ele>
        <time>2024-04-24T13:59:06.140Z</time>
      </trkpt>
      <trkpt lat="52.582955" lon="13.149974">
        <ele>32.063769</ele>
        <time>2024-04-24T13:59:14.330Z</time>
      </trkpt>
      <trkpt lat="52.582622" lon="13.150680">
        <ele>32.108129</ele>
        <time>2024-04-24T13:59:26.383Z</time>
      </trkpt>
      <trkpt lat="52.582239" lon="13.151252">
        <ele>32.157314</ele>
        <time>2024-04-24T13:59:38.327Z</time>
      </trkpt>
      <trkpt lat="52.582021" lon="13.151383">
        <ele>32.214362</ele>
        <time>2024-04-24T13:59:43.849Z</time>
      </trkpt>
      <trkpt lat="52.581770" lon="13.151353">
        <ele>32.276224</ele>
        <time>2024-04-24T13:59:49.770Z</time>
      </trkpt>
      <trkpt lat="52.581599" lon="13.151396">
        <ele>32.318746</ele>
        <time>2024-04-24T13:59:53.910Z</time>
      </trkpt>
      <trkpt lat="52.581416" lon="13.151514">
        <ele>32.367060</ele>
        <time>2024-04-24T13:59:58.433Z</time>
      </trkpt>
      <trkpt lat="52.580496" lon="13.152069">
        <ele>32.595372</ele>
        <time>2024-04-24T14:00:21.116Z</time>
      </trkpt>
      <trkpt lat="52.580257" lon="13.152308">
        <ele>32.618380</ele>
        <time>2024-04-24T14:00:27.477Z</time>
      </trkpt>
      <trkpt lat="52.580221" lon="13.152332">
        <ele>32.621576</ele>
        <time>2024-04-24T14:00:28.361Z</time>
      </trkpt>
      <trkpt lat="52.578955" lon="13.153191">
        <ele>32.734236</ele>
        <time>2024-04-24T14:00:59.136Z</time>
      </trkpt>
      <trkpt lat="52.578812" lon="13.153256">
        <ele>32.731610</ele>
        <time>2024-04-24T14:01:02.375Z</time>
      </trkpt>
      <trkpt lat="52.578553" lon="13.153220">
        <ele>32.719285</ele>
        <time>2024-04-24T14:01:08.002Z</time>
      </trkpt>
      <trkpt lat="52.578306" lon="13.153282">
        <ele>32.707437</ele>
        <time>2024-04-24T14:01:13.489Z</time>
      </trkpt>
      <trkpt lat="52.577996" lon="13.153535">
        <ele>32.691029</ele>
        <time>2024-04-24T14:01:21.064Z</time>
      </trkpt>
      <trkpt lat="52.577320" lon="13.153621">
        <ele>32.658879</ele>
        <time>2024-04-24T14:01:36.094Z</time>
      </trkpt>
      <trkpt lat="52.577104" lon="13.153628">
        <ele>32.661465</ele>
        <time>2024-04-24T14:01:40.860Z</time>
      </trkpt>
      <trkpt lat="52.576917" lon="13.153561">
        <ele>32.689829</ele>
        <time>2024-04-24T14:01:45.173Z</time>
      </trkpt>
      <trkpt lat="52.576568" lon="13.153586">
        <ele>32.741604</ele>
        <time>2024-04-24T14:01:53.021Z</time>
      </trkpt>
      <trkpt lat="52.575765" lon="13.153726">
        <ele>32.861282</ele>
        <time>2024-04-24T14:02:11.496Z</time>
      </trkpt>
      <trkpt lat="52.575311" lon="13.153573">
        <ele>32.936456</ele>
        <time>2024-04-24T14:02:22.307Z</time>
      </trkpt>
      <trkpt lat="52.574796" lon="13.153719">
        <ele>33.057077</ele>
        <time>2024-04-24T14:02:34.593Z</time>
      </trkpt>
      <trkpt lat="52.574449" lon="13.153516">
        <ele>33.142080</ele>
        <time>2024-04-24T14:02:43.225Z</time>
      </trkpt>
      <trkpt lat="52.573402" lon="13.153639">
        <ele>33.322924</ele>
        <time>2024-04-24T14:03:07.498Z</time>
      </trkpt>
      <trkpt lat="52.573144" lon="13.153485">
        <ele>33.309791</ele>
        <time>2024-04-24T14:03:13.662Z</time>
      </trkpt>
      <trkpt lat="52.572856" lon="13.153173">
        <ele>33.293291</ele>
        <time>2024-04-24T14:03:21.273Z</time>
      </trkpt>
      <trkpt lat="52.572587" lon="13.153003">
        <ele>33.279502</ele>
        <time>2024-04-24T14:03:27.510Z</time>
      </trkpt>
      <trkpt lat="52.571649" lon="13.152886">
        <ele>33.174446</ele>
        <time>2024-04-24T14:03:47.592Z</time>
      </trkpt>
      <trkpt lat="52.570582" lon="13.152520">
        <ele>32.879853</ele>
        <time>2024-04-24T14:04:11.029Z</time>
      </trkpt>
      <trkpt lat="52.570466" lon="13.152416">
        <ele>32.844148</ele>
        <time>2024-04-24T14:04:13.783Z</time>
      </trkpt>
      <trkpt lat="52.570352" lon="13.152221">
        <ele>32.799700</ele>
        <time>2024-04-24T14:04:17.263Z</time>
      </trkpt>
      <trkpt lat="52.570161" lon="13.151756">
        <ele>32.722569</ele>
        <time>2024-04-24T14:04:24.331Z</time>
      </trkpt>
      <trkpt lat="52.570021" lon="13.151515">
        <ele>32.683152</ele>
        <time>2024-04-24T14:04:28.532Z</time>
      </trkpt>
      <trkpt lat="52.569927" lon="13.151436">
        <ele>32.662618</ele>
        <time>2024-04-24T14:04:30.768Z</time>
      </trkpt>
      <trkpt lat="52.569137" lon="13.151284">
        <ele>32.507887</ele>
        <time>2024-04-24T14:04:47.980Z</time>
      </trkpt>
      <trkpt lat="52.568754" lon="13.151009">
        <ele>32.426593</ele>
        <time>2024-04-24T14:04:57.160Z</time>
      </trkpt>
      <trkpt lat="52.568154" lon="13.150587">
        <ele>32.519070</ele>
        <time>2024-04-24T14:05:11.541Z</time>
      </trkpt>
      <trkpt lat="52.567934" lon="13.150473">
        <ele>32.562336</ele>
        <time>2024-04-24T14:05:16.698Z</time>
      </trkpt>
      <trkpt lat="52.567873" lon="13.150477">
        <ele>32.573788</ele>
        <time>2024-04-24T14:05:18.106Z</time>
      </trkpt>
      <trkpt lat="52.567737" lon="13.150525">
        <ele>32.599879</ele>
        <time>2024-04-24T14:05:21.271Z</time>
      </trkpt>
      <trkpt lat="52.567628" lon="13.150580">
        <ele>32.621265</ele>
        <time>2024-04-24T14:05:23.913Z</time>
      </trkpt>
      <trkpt lat="52.567165" lon="13.150308">
        <ele>32.713485</ele>
        <time>2024-04-24T14:05:35.650Z</time>
      </trkpt>
      <trkpt lat="52.566914" lon="13.150120">
        <ele>32.791189</ele>
        <time>2024-04-24T14:05:42.292Z</time>
      </trkpt>
      <trkpt lat="52.566595" lon="13.149823">
        <ele>32.968360</ele>
        <time>2024-04-24T14:05:51.173Z</time>
      </trkpt>
      <trkpt lat="52.565870" lon="13.149009">
        <ele>33.392631</ele>
        <time>2024-04-24T14:06:12.299Z</time>
      </trkpt>
      <trkpt lat="52.565285" lon="13.148434">
        <ele>33.684640</ele>
        <time>2024-04-24T14:06:28.847Z</time>
      </trkpt>
      <trkpt lat="52.564847" lon="13.147903">
        <ele>33.852984</ele>
        <time>2024-04-24T14:06:42.221Z</time>
      </trkpt>
      <trkpt lat="52.564382" lon="13.147520">
        <ele>34.013884</ele>
        <time>2024-04-24T14:06:54.488Z</time>
      </trkpt>
      <trkpt lat="52.564177" lon="13.147477">
        <ele>34.077826</ele>
        <time>2024-04-24T14:06:59.175Z</time>
      </trkpt>
      <trkpt lat="52.563798" lon="13.147472">
        <ele>34.155701</ele>
        <time>2024-04-24T14:07:07.615Z</time>
      </trkpt>
      <trkpt lat="52.563334" lon="13.147524">
        <ele>34.022182</ele>
        <time>2024-04-24T14:07:17.752Z</time>
      </trkpt>
      <trkpt lat="52.562576" lon="13.147446">
        <ele>33.804140</ele>
        <time>2024-04-24T14:07:33.866Z</time>
      </trkpt>
      <trkpt lat="52.561522" lon="13.147215">
        <ele>33.382783</ele>
        <time>2024-04-24T14:07:55.462Z</time>
      </trkpt>
      <trkpt lat="52.561438" lon="13.147196">
        <ele>33.340714</ele>
        <time>2024-04-24T14:07:57.174Z</time>
      </trkpt>
      <trkpt lat="52.561311" lon="13.147039">
        <ele>33.261891</ele>
        <time>2024-04-24T14:08:00.393Z</time>
      </trkpt>
      <trkpt lat="52.561148" lon="13.146695">
        <ele>33.130338</ele>
        <time>2024-04-24T14:08:05.801Z</time>
      </trkpt>
      <trkpt lat="52.561086" lon="13.146307">
        <ele>33.009333</ele>
        <time>2024-04-24T14:08:10.857Z</time>
      </trkpt>
      <trkpt lat="52.561078" lon="13.146001">
        <ele>32.916951</ele>
        <time>2024-04-24T14:08:14.731Z</time>
      </trkpt>
      <trkpt lat="52.560656" lon="13.145665">
        <ele>32.710858</ele>
        <time>2024-04-24T14:08:24.496Z</time>
      </trkpt>
      <trkpt lat="52.560367" lon="13.145620">
        <ele>32.613679</ele>
        <time>2024-04-24T14:08:30.672Z</time>
      </trkpt>
      <trkpt lat="52.559643" lon="13.145672">
        <ele>32.371080</ele>
        <time>2024-04-24T14:08:46.092Z</time>
      </trkpt>
      <trkpt lat="52.559207" lon="13.145627">
        <ele>32.224837</ele>
        <time>2024-04-24T14:08:55.139Z</time>
      </trkpt>
      <trkpt lat="52.559173" lon="13.145820">
        <ele>32.183942</ele>
        <time>2024-04-24T14:08:57.736Z</time>
      </trkpt>
      <trkpt lat="52.559117" lon="13.145950">
        <ele>32.157498</ele>
        <time>2024-04-24T14:08:59.760Z</time>
      </trkpt>
      <trkpt lat="52.558654" lon="13.146309">
        <ele>32.069895</ele>
        <time>2024-04-24T14:09:10.606Z</time>
      </trkpt>
      <trkpt lat="52.558475" lon="13.146536">
        <ele>32.031213</ele>
        <time>2024-04-24T14:09:15.399Z</time>
      </trkpt>
      <trkpt lat="52.558399" lon="13.146633">
        <ele>32.014749</ele>
        <time>2024-04-24T14:09:17.432Z</time>
      </trkpt>
      <trkpt lat="52.558005" lon="13.146723">
        <ele>31.946671</ele>
        <time>2024-04-24T14:09:26.088Z</time>
      </trkpt>
      <trkpt lat="52.557851" lon="13.146861">
        <ele>31.916657</ele>
        <time>2024-04-24T14:09:29.975Z</time>
      </trkpt>
      <trkpt lat="52.557012" lon="13.146857">
        <ele>31.866806</ele>
        <time>2024-04-24T14:09:49.041Z</time>
      </trkpt>
      <trkpt lat="52.556297" lon="13.146892">
        <ele>31.882881</ele>
        <time>2024-04-24T14:10:04.906Z</time>
      </trkpt>
      <trkpt lat="52.556093" lon="13.146936">
        <ele>31.887505</ele>
        <time>2024-04-24T14:10:09.476Z</time>
      </trkpt>
      <trkpt lat="52.555984" lon="13.146960">
        <ele>31.889976</ele>
        <time>2024-04-24T14:10:11.967Z</time>
      </trkpt>
      <trkpt lat="52.555146" lon="13.146950">
        <ele>31.714592</ele>
        <time>2024-04-24T14:10:30.386Z</time>
      </trkpt>
      <trkpt lat="52.554923" lon="13.146794">
        <ele>31.635169</ele>
        <time>2024-04-24T14:10:35.633Z</time>
      </trkpt>
      <trkpt lat="52.554857" lon="13.146741">
        <ele>31.611097</ele>
        <time>2024-04-24T14:10:37.597Z</time>
      </trkpt>
      <trkpt lat="52.554776" lon="13.146680">
        <ele>31.581900</ele>
        <time>2024-04-24T14:10:40.089Z</time>
      </trkpt>
      <trkpt lat="52.554641" lon="13.146610">
        <ele>31.535508</ele>
        <time>2024-04-24T14:10:43.078Z</time>
      </trkpt>
      <trkpt lat="52.554440" lon="13.146571">
        <ele>31.469174</ele>
        <time>2024-04-24T14:10:47.139Z</time>
      </trkpt>
      <trkpt lat="52.554082" lon="13.146619">
        <ele>31.351453</ele>
        <time>2024-04-24T14:10:54.327Z</time>
      </trkpt>
      <trkpt lat="52.553910" lon="13.146452">
        <ele>31.298121</ele>
        <time>2024-04-24T14:10:58.330Z</time>
      </trkpt>
      <trkpt lat="52.553347" lon="13.146042">
        <ele>31.213658</ele>
        <time>2024-04-24T14:11:11.156Z</time>
      </trkpt>
      <trkpt lat="52.553009" lon="13.145934">
        <ele>31.166425</ele>
        <time>2024-04-24T14:11:18.784Z</time>
      </trkpt>
      <trkpt lat="52.552934" lon="13.145876">
        <ele>31.155057</ele>
        <time>2024-04-24T14:11:20.677Z</time>
      </trkpt>
      <trkpt lat="52.552521" lon="13.145282">
        <ele>31.079795</ele>
        <time>2024-04-24T14:11:32.962Z</time>
      </trkpt>
      <trkpt lat="52.552469" lon="13.144995">
        <ele>31.077875</ele>
        <time>2024-04-24T14:11:37.262Z</time>
      </trkpt>
      <trkpt lat="52.552447" lon="13.144766">
        <ele>31.142612</ele>
        <time>2024-04-24T14:11:40.410Z</time>
      </trkpt>
      <trkpt lat="52.552352" lon="13.144560">
        <ele>31.214805</ele>
        <time>2024-04-24T14:11:44.177Z</time>
      </trkpt>
      <trkpt lat="52.552182" lon="13.144343">
        <ele>31.313630</ele>
        <time>2024-04-24T14:11:49.146Z</time>
      </trkpt>
      <trkpt lat="52.552085" lon="13.144201">
        <ele>31.373265</ele>
        <time>2024-04-24T14:11:52.302Z</time>
      </trkpt>
      <trkpt lat="52.552060" lon="13.143296">
        <ele>31.626229</ele>
        <time>2024-04-24T14:12:05.657Z</time>
      </trkpt>
      <trkpt lat="52.552081" lon="13.143105">
        <ele>31.680427</ele>
        <time>2024-04-24T14:12:08.639Z</time>
      </trkpt>
      <trkpt lat="52.552280" lon="13.142113">
        <ele>31.990748</ele>
        <time>2024-04-24T14:12:24.356Z</time>
      </trkpt>
      <trkpt lat="52.552320" lon="13.141573">
        <ele>32.175570</ele>
        <time>2024-04-24T14:12:32.571Z</time>
      </trkpt>
      <trkpt lat="52.552099" lon="13.141532">
        <ele>32.299841</ele>
        <time>2024-04-24T14:12:38.189Z</time>
      </trkpt>
      <trkpt lat="52.551816" lon="13.141530">
        <ele>32.457973</ele>
        <time>2024-04-24T14:12:45.280Z</time>
      </trkpt>
      <trkpt lat="52.551263" lon="13.141788">
        <ele>32.779164</ele>
        <time>2024-04-24T14:12:59.095Z</time>
      </trkpt>
      <trkpt lat="52.551191" lon="13.141825">
        <ele>32.821313</ele>
        <time>2024-04-24T14:13:00.902Z</time>
      </trkpt>
      <trkpt lat="52.550889" lon="13.142020">
        <ele>32.932537</ele>
        <time>2024-04-24T14:13:08.563Z</time>
      </trkpt>
      <trkpt lat="52.550666" lon="13.142157">
        <ele>32.981946</ele>
        <time>2024-04-24T14:13:14.216Z</time>
      </trkpt>
      <trkpt lat="52.550447" lon="13.142295">
        <ele>33.030622</ele>
        <time>2024-04-24T14:13:19.695Z</time>
      </trkpt>
      <trkpt lat="52.550337" lon="13.142366">
        <ele>33.055149</ele>
        <time>2024-04-24T14:13:22.407Z</time>
      </trkpt>
      <trkpt lat="52.549864" lon="13.142655">
        <ele>33.159878</ele>
        <time>2024-04-24T14:13:33.911Z</time>
      </trkpt>
      <trkpt lat="52.548457" lon="13.143501">
        <ele>33.440169</ele>
        <time>2024-04-24T14:14:07.802Z</time>
      </trkpt>
      <trkpt lat="52.547960" lon="13.143795">
        <ele>33.533515</ele>
        <time>2024-04-24T14:14:20.011Z</time>
      </trkpt>
      <trkpt lat="52.547795" lon="13.143872">
        <ele>33.563827</ele>
        <time>2024-04-24T14:14:24.002Z</time>
      </trkpt>
      <trkpt lat="52.547756" lon="13.143887">
        <ele>33.570905</ele>
        <time>2024-04-24T14:14:24.971Z</time>
      </trkpt>
      <trkpt lat="52.547557" lon="13.143943">
        <ele>33.604473</ele>
        <time>2024-04-24T14:14:29.701Z</time>
      </trkpt>
      <trkpt lat="52.547327" lon="13.143973">
        <ele>33.641697</ele>
        <time>2024-04-24T14:14:35.111Z</time>
      </trkpt>
      <trkpt lat="52.547150" lon="13.143982">
        <ele>33.670267</ele>
        <time>2024-04-24T14:14:39.259Z</time>
      </trkpt>
      <trkpt lat="52.546777" lon="13.143957">
        <ele>33.730496</ele>
        <time>2024-04-24T14:14:48.084Z</time>
      </trkpt>
      <trkpt lat="52.546496" lon="13.143905">
        <ele>33.776118</ele>
        <time>2024-04-24T14:14:54.676Z</time>
      </trkpt>
      <trkpt lat="52.546413" lon="13.143887">
        <ele>33.789625</ele>
        <time>2024-04-24T14:14:56.589Z</time>
      </trkpt>
      <trkpt lat="52.546306" lon="13.143861">
        <ele>33.807075</ele>
        <time>2024-04-24T14:14:59.070Z</time>
      </trkpt>
      <trkpt lat="52.546207" lon="13.143838">
        <ele>33.823206</ele>
        <time>2024-04-24T14:15:01.210Z</time>
      </trkpt>
      <trkpt lat="52.545952" lon="13.143800">
        <ele>33.864516</ele>
        <time>2024-04-24T14:15:06.710Z</time>
      </trkpt>
      <trkpt lat="52.545817" lon="13.143781">
        <ele>33.863544</ele>
        <time>2024-04-24T14:15:09.617Z</time>
      </trkpt>
      <trkpt lat="52.545384" lon="13.143717">
        <ele>33.818168</ele>
        <time>2024-04-24T14:15:19.030Z</time>
      </trkpt>
      <trkpt lat="52.545318" lon="13.143707">
        <ele>33.811250</ele>
        <time>2024-04-24T14:15:20.474Z</time>
      </trkpt>
      <trkpt lat="52.545027" lon="13.143666">
        <ele>33.780766</ele>
        <time>2024-04-24T14:15:26.872Z</time>
      </trkpt>
      <trkpt lat="52.544886" lon="13.143647">
        <ele>33.766000</ele>
        <time>2024-04-24T14:15:29.956Z</time>
      </trkpt>
      <trkpt lat="52.544518" lon="13.143588">
        <ele>33.727408</ele>
        <time>2024-04-24T14:15:38.017Z</time>
      </trkpt>
      <trkpt lat="52.543949" lon="13.143502">
        <ele>33.695010</ele>
        <time>2024-04-24T14:15:50.792Z</time>
      </trkpt>
      <trkpt lat="52.543120" lon="13.143376">
        <ele>33.747263</ele>
        <time>2024-04-24T14:16:08.853Z</time>
      </trkpt>
      <trkpt lat="52.542690" lon="13.143313">
        <ele>33.774359</ele>
        <time>2024-04-24T14:16:18.861Z</time>
      </trkpt>
      <trkpt lat="52.542644" lon="13.143306">
        <ele>33.777258</ele>
        <time>2024-04-24T14:16:19.958Z</time>
      </trkpt>
      <trkpt lat="52.542459" lon="13.143277">
        <ele>33.788922</ele>
        <time>2024-04-24T14:16:24.232Z</time>
      </trkpt>
      <trkpt lat="52.542245" lon="13.143243">
        <ele>33.810865</ele>
        <time>2024-04-24T14:16:29.285Z</time>
      </trkpt>
      <trkpt lat="52.542056" lon="13.143213">
        <ele>33.843997</ele>
        <time>2024-04-24T14:16:33.661Z</time>
      </trkpt>
      <trkpt lat="52.541768" lon="13.143167">
        <ele>33.894488</ele>
        <time>2024-04-24T14:16:40.423Z</time>
      </trkpt>
      <trkpt lat="52.541478" lon="13.143121">
        <ele>33.945326</ele>
        <time>2024-04-24T14:16:47.174Z</time>
      </trkpt>
      <trkpt lat="52.541132" lon="13.143067">
        <ele>34.005972</ele>
        <time>2024-04-24T14:16:55.089Z</time>
      </trkpt>
      <trkpt lat="52.540303" lon="13.142937">
        <ele>34.096674</ele>
        <time>2024-04-24T14:17:13.856Z</time>
      </trkpt>
      <trkpt lat="52.539627" lon="13.142831">
        <ele>34.052425</ele>
        <time>2024-04-24T14:17:29.097Z</time>
      </trkpt>
      <trkpt lat="52.539256" lon="13.142715">
        <ele>34.027817</ele>
        <time>2024-04-24T14:17:37.688Z</time>
      </trkpt>
      <trkpt lat="52.538579" lon="13.142440">
        <ele>33.942369</ele>
        <time>2024-04-24T14:17:53.345Z</time>
      </trkpt>
      <trkpt lat="52.538045" lon="13.142291">
        <ele>33.788856</ele>
        <time>2024-04-24T14:18:05.218Z</time>
      </trkpt>
      <trkpt lat="52.537958" lon="13.142269">
        <ele>33.763908</ele>
        <time>2024-04-24T14:18:07.109Z</time>
      </trkpt>
      <trkpt lat="52.537641" lon="13.142208">
        <ele>33.673449</ele>
        <time>2024-04-24T14:18:14.089Z</time>
      </trkpt>
      <trkpt lat="52.537341" lon="13.142152">
        <ele>33.587875</ele>
        <time>2024-04-24T14:18:20.733Z</time>
      </trkpt>
      <trkpt lat="52.537242" lon="13.142148">
        <ele>33.559808</ele>
        <time>2024-04-24T14:18:22.881Z</time>
      </trkpt>
      <trkpt lat="52.536927" lon="13.142110">
        <ele>33.490021</ele>
        <time>2024-04-24T14:18:29.869Z</time>
      </trkpt>
      <trkpt lat="52.535542" lon="13.142118">
        <ele>33.641004</ele>
        <time>2024-04-24T14:19:02.254Z</time>
      </trkpt>
      <trkpt lat="52.535504" lon="13.142116">
        <ele>33.645149</ele>
        <time>2024-04-24T14:19:03.220Z</time>
      </trkpt>
      <trkpt lat="52.535302" lon="13.142100">
        <ele>33.667195</ele>
        <time>2024-04-24T14:19:08.267Z</time>
      </trkpt>
      <trkpt lat="52.535275" lon="13.142097">
        <ele>33.670145</ele>
        <time>2024-04-24T14:19:08.948Z</time>
      </trkpt>
      <trkpt lat="52.535087" lon="13.142074">
        <ele>33.694344</ele>
        <time>2024-04-24T14:19:13.738Z</time>
      </trkpt>
      <trkpt lat="52.534976" lon="13.142060">
        <ele>33.710871</ele>
        <time>2024-04-24T14:19:16.407Z</time>
      </trkpt>
      <trkpt lat="52.534139" lon="13.141963">
        <ele>33.835439</ele>
        <time>2024-04-24T14:19:36.237Z</time>
      </trkpt>
      <trkpt lat="52.533879" lon="13.141931">
        <ele>33.874146</ele>
        <time>2024-04-24T14:19:42.078Z</time>
      </trkpt>
      <trkpt lat="52.533733" lon="13.141898">
        <ele>33.896025</ele>
        <time>2024-04-24T14:19:45.263Z</time>
      </trkpt>
      <trkpt lat="52.533503" lon="13.141846">
        <ele>33.930492</ele>
        <time>2024-04-24T14:19:50.136Z</time>
      </trkpt>
      <trkpt lat="52.533167" lon="13.141770">
        <ele>33.859292</ele>
        <time>2024-04-24T14:19:57.517Z</time>
      </trkpt>
      <trkpt lat="52.532918" lon="13.141704">
        <ele>33.759673</ele>
        <time>2024-04-24T14:20:02.994Z</time>
      </trkpt>
      <trkpt lat="52.532627" lon="13.141627">
        <ele>33.643256</ele>
        <time>2024-04-24T14:20:09.357Z</time>
      </trkpt>
      <trkpt lat="52.532484" lon="13.141577">
        <ele>33.585511</ele>
        <time>2024-04-24T14:20:12.422Z</time>
      </trkpt>
      <trkpt lat="52.532379" lon="13.141536">
        <ele>33.542885</ele>
        <time>2024-04-24T14:20:14.871Z</time>
      </trkpt>
      <trkpt lat="52.532344" lon="13.141523">
        <ele>33.528713</ele>
        <time>2024-04-24T14:20:15.731Z</time>
      </trkpt>
      <trkpt lat="52.532095" lon="13.141394">
        <ele>33.425596</ele>
        <time>2024-04-24T14:20:21.226Z</time>
      </trkpt>
      <trkpt lat="52.532003" lon="13.141346">
        <ele>33.387472</ele>
        <time>2024-04-24T14:20:23.240Z</time>
      </trkpt>
      <trkpt lat="52.531687" lon="13.141181">
        <ele>33.256515</ele>
        <time>2024-04-24T14:20:29.760Z</time>
      </trkpt>
      <trkpt lat="52.531446" lon="13.141053">
        <ele>33.122577</ele>
        <time>2024-04-24T14:20:34.641Z</time>
      </trkpt>
      <trkpt lat="52.531422" lon="13.141039">
        <ele>33.108295</ele>
        <time>2024-04-24T14:20:35.152Z</time>
      </trkpt>
      <trkpt lat="52.531399" lon="13.141122">
        <ele>33.077178</ele>
        <time>2024-04-24T14:20:36.658Z</time>
      </trkpt>
      <trkpt lat="52.531378" lon="13.141196">
        <ele>33.049320</ele>
        <time>2024-04-24T14:20:38.032Z</time>
      </trkpt>
      <trkpt lat="52.531098" lon="13.142196">
        <ele>32.673744</ele>
        <time>2024-04-24T14:20:52.277Z</time>
      </trkpt>
      <trkpt lat="52.531044" lon="13.142281">
        <ele>32.631814</ele>
        <time>2024-04-24T14:20:53.872Z</time>
      </trkpt>
      <trkpt lat="52.530768" lon="13.142891">
        <ele>32.372445</ele>
        <time>2024-04-24T14:21:03.304Z</time>
      </trkpt>
      <trkpt lat="52.529664" lon="13.145146">
        <ele>31.954102</ele>
        <time>2024-04-24T14:21:40.399Z</time>
      </trkpt>
      <trkpt lat="52.528944" lon="13.144617">
        <ele>32.174888</ele>
        <time>2024-04-24T14:21:59.217Z</time>
      </trkpt>
      <trkpt lat="52.528795" lon="13.144576">
        <ele>32.258802</ele>
        <time>2024-04-24T14:22:02.928Z</time>
      </trkpt>
      <trkpt lat="52.528700" lon="13.144591">
        <ele>32.311813</ele>
        <time>2024-04-24T14:22:05.245Z</time>
      </trkpt>
      <trkpt lat="52.528643" lon="13.144674">
        <ele>32.354111</ele>
        <time>2024-04-24T14:22:07.086Z</time>
      </trkpt>
      <trkpt lat="52.528571" lon="13.144668">
        <ele>32.394155</ele>
        <time>2024-04-24T14:22:08.857Z</time>
      </trkpt>
      <trkpt lat="52.528187" lon="13.144386">
        <ele>32.627768</ele>
        <time>2024-04-24T14:22:19.356Z</time>
      </trkpt>
      <trkpt lat="52.527777" lon="13.144089">
        <ele>32.876638</ele>
        <time>2024-04-24T14:22:30.752Z</time>
      </trkpt>
      <trkpt lat="52.527708" lon="13.144048">
        <ele>32.920144</ele>
        <time>2024-04-24T14:22:32.581Z</time>
      </trkpt>
      <trkpt lat="52.526949" lon="13.143836">
        <ele>33.413363</ele>
        <time>2024-04-24T14:22:51.901Z</time>
      </trkpt>
      <trkpt lat="52.526543" lon="13.143759">
        <ele>33.675190</ele>
        <time>2024-04-24T14:23:02.145Z</time>
      </trkpt>
      <trkpt lat="52.525998" lon="13.143647">
        <ele>34.027059</ele>
        <time>2024-04-24T14:23:15.453Z</time>
      </trkpt>
      <trkpt lat="52.524948" lon="13.143431">
        <ele>34.466800</ele>
        <time>2024-04-24T14:23:40.446Z</time>
      </trkpt>
      <trkpt lat="52.524291" lon="13.143309">
        <ele>34.735936</ele>
        <time>2024-04-24T14:23:55.909Z</time>
      </trkpt>
      <trkpt lat="52.524277" lon="13.143306">
        <ele>34.741683</ele>
        <time>2024-04-24T14:23:56.265Z</time>
      </trkpt>
      <trkpt lat="52.524197" lon="13.143297">
        <ele>34.774324</ele>
        <time>2024-04-24T14:23:58.303Z</time>
      </trkpt>
      <trkpt lat="52.524165" lon="13.143446">
        <ele>34.900626</ele>
        <time>2024-04-24T14:24:00.708Z</time>
      </trkpt>
      <trkpt lat="52.524091" lon="13.143420">
        <ele>35.022231</ele>
        <time>2024-04-24T14:24:02.554Z</time>
      </trkpt>
      <trkpt lat="52.523699" lon="13.143351">
        <ele>35.655780</ele>
        <time>2024-04-24T14:24:12.713Z</time>
      </trkpt>
      <trkpt lat="52.523327" lon="13.143542">
        <ele>36.282078</ele>
        <time>2024-04-24T14:24:23.077Z</time>
      </trkpt>
      <trkpt lat="52.522094" lon="13.143680">
        <ele>38.447559</ele>
        <time>2024-04-24T14:25:02.513Z</time>
      </trkpt>
      <trkpt lat="52.521658" lon="13.144032">
        <ele>39.464106</ele>
        <time>2024-04-24T14:25:18.647Z</time>
      </trkpt>
      <trkpt lat="52.521593" lon="13.144053">
        <ele>39.602733</ele>
        <time>2024-04-24T14:25:20.593Z</time>
      </trkpt>
      <trkpt lat="52.521545" lon="13.144023">
        <ele>39.710200</ele>
        <time>2024-04-24T14:25:22.333Z</time>
      </trkpt>
      <trkpt lat="52.521513" lon="13.143953">
        <ele>39.821685</ele>
        <time>2024-04-24T14:25:24.186Z</time>
      </trkpt>
      <trkpt lat="52.521492" lon="13.143431">
        <ele>40.487806</ele>
        <time>2024-04-24T14:25:33.875Z</time>
      </trkpt>
      <trkpt lat="52.521432" lon="13.143259">
        <ele>40.740256</ele>
        <time>2024-04-24T14:25:37.560Z</time>
      </trkpt>
      <trkpt lat="52.521354" lon="13.143172">
        <ele>40.937526</ele>
        <time>2024-04-24T14:25:40.312Z</time>
      </trkpt>
      <trkpt lat="52.521268" lon="13.143139">
        <ele>41.122336</ele>
        <time>2024-04-24T14:25:42.622Z</time>
      </trkpt>
      <trkpt lat="52.521107" lon="13.143146">
        <ele>41.443342</ele>
        <time>2024-04-24T14:25:47.284Z</time>
      </trkpt>
      <trkpt lat="52.519817" lon="13.143186">
        <ele>42.090492</ele>
        <time>2024-04-24T14:26:18.630Z</time>
      </trkpt>
      <trkpt lat="52.519683" lon="13.143218">
        <ele>42.158409</ele>
        <time>2024-04-24T14:26:21.452Z</time>
      </trkpt>
      <trkpt lat="52.519611" lon="13.143299">
        <ele>42.202174</ele>
        <time>2024-04-24T14:26:23.256Z</time>
      </trkpt>
      <trkpt lat="52.519527" lon="13.143471">
        <ele>42.269486</ele>
        <time>2024-04-24T14:26:26.083Z</time>
      </trkpt>
      <trkpt lat="52.519236" lon="13.144289">
        <ele>42.758501</ele>
        <time>2024-04-24T14:26:39.088Z</time>
      </trkpt>
      <trkpt lat="52.519123" lon="13.144523">
        <ele>42.933160</ele>
        <time>2024-04-24T14:26:43.442Z</time>
      </trkpt>
      <trkpt lat="52.519013" lon="13.144650">
        <ele>43.062327</ele>
        <time>2024-04-24T14:26:46.768Z</time>
      </trkpt>
      <trkpt lat="52.518365" lon="13.145168">
        <ele>43.754701</ele>
        <time>2024-04-24T14:27:05.829Z</time>
      </trkpt>
      <trkpt lat="52.518014" lon="13.145271">
        <ele>44.141676</ele>
        <time>2024-04-24T14:27:16.501Z</time>
      </trkpt>
      <trkpt lat="52.517676" lon="13.145608">
        <ele>45.110216</ele>
        <time>2024-04-24T14:27:29.226Z</time>
      </trkpt>
      <trkpt lat="52.517581" lon="13.145767">
        <ele>45.442408</ele>
        <time>2024-04-24T14:27:33.745Z</time>
      </trkpt>
      <trkpt lat="52.517526" lon="13.145930">
        <ele>45.720264</ele>
        <time>2024-04-24T14:27:37.536Z</time>
      </trkpt>
      <trkpt lat="52.517291" lon="13.147446">
        <ele>48.052479</ele>
        <time>2024-04-24T14:28:09.109Z</time>
      </trkpt>
      <trkpt lat="52.517205" lon="13.148252">
        <ele>48.863743</ele>
        <time>2024-04-24T14:28:24.491Z</time>
      </trkpt>
      <trkpt lat="52.517162" lon="13.148442">
        <ele>49.011060</ele>
        <time>2024-04-24T14:28:28.196Z</time>
      </trkpt>
      <trkpt lat="52.516971" lon="13.148766">
        <ele>49.338885</ele>
        <time>2024-04-24T14:28:36.532Z</time>
      </trkpt>
      <trkpt lat="52.516772" lon="13.148939">
        <ele>49.607744</ele>
        <time>2024-04-24T14:28:42.966Z</time>
      </trkpt>
      <trkpt lat="52.516658" lon="13.149076">
        <ele>49.776407</ele>
        <time>2024-04-24T14:28:46.921Z</time>
      </trkpt>
      <trkpt lat="52.516622" lon="13.149164">
        <ele>49.853467</ele>
        <time>2024-04-24T14:28:48.595Z</time>
      </trkpt>
      <trkpt lat="52.515820" lon="13.151117">
        <ele>50.050725</ele>
        <time>2024-04-24T14:29:20.014Z</time>
      </trkpt>
      <trkpt lat="52.515602" lon="13.151787">
        <ele>49.715471</ele>
        <time>2024-04-24T14:29:28.790Z</time>
      </trkpt>
      <trkpt lat="52.514603" lon="13.153845">
        <ele>48.315772</ele>
        <time>2024-04-24T14:29:58.877Z</time>
      </trkpt>
      <trkpt lat="52.514432" lon="13.153897">
        <ele>48.150436</ele>
        <time>2024-04-24T14:30:04.761Z</time>
      </trkpt>
      <trkpt lat="52.513952" lon="13.155104">
        <ele>47.675116</ele>
        <time>2024-04-24T14:30:35.514Z</time>
      </trkpt>
      <trkpt lat="52.513744" lon="13.155670">
        <ele>47.761786</ele>
        <time>2024-04-24T14:30:50.446Z</time>
      </trkpt>
      <trkpt lat="52.513560" lon="13.156238">
        <ele>47.846132</ele>
        <time>2024-04-24T14:31:05.634Z</time>
      </trkpt>
      <trkpt lat="52.513540" lon="13.156513">
        <ele>47.882437</ele>
        <time>2024-04-24T14:31:09.757Z</time>
      </trkpt>
      <trkpt lat="52.513458" lon="13.156781">
        <ele>47.921757</ele>
        <time>2024-04-24T14:31:14.325Z</time>
      </trkpt>
      <trkpt lat="52.513268" lon="13.157226">
        <ele>47.993014</ele>
        <time>2024-04-24T14:31:22.700Z</time>
      </trkpt>
      <trkpt lat="52.513086" lon="13.157748">
        <ele>48.172898</ele>
        <time>2024-04-24T14:31:31.971Z</time>
      </trkpt>
      <trkpt lat="52.513069" lon="13.157884">
        <ele>48.215406</ele>
        <time>2024-04-24T14:31:34.091Z</time>
      </trkpt>
      <trkpt lat="52.512976" lon="13.158629">
        <ele>48.448251</ele>
        <time>2024-04-24T14:31:45.493Z</time>
      </trkpt>
      <trkpt lat="52.512687" lon="13.159519">
        <ele>48.757105</ele>
        <time>2024-04-24T14:32:00.396Z</time>
      </trkpt>
      <trkpt lat="52.511849" lon="13.161559">
        <ele>48.815482</ele>
        <time>2024-04-24T14:32:34.534Z</time>
      </trkpt>
      <trkpt lat="52.511796" lon="13.161686">
        <ele>48.808859</ele>
        <time>2024-04-24T14:32:36.507Z</time>
      </trkpt>
      <trkpt lat="52.511509" lon="13.162369">
        <ele>48.764932</ele>
        <time>2024-04-24T14:32:46.861Z</time>
      </trkpt>
      <trkpt lat="52.511130" lon="13.163297">
        <ele>48.243865</ele>
        <time>2024-04-24T14:33:00.583Z</time>
      </trkpt>
      <trkpt lat="52.511091" lon="13.163476">
        <ele>48.155220</ele>
        <time>2024-04-24T14:33:02.872Z</time>
      </trkpt>
      <trkpt lat="52.510625" lon="13.164859">
        <ele>47.418167</ele>
        <time>2024-04-24T14:33:21.544Z</time>
      </trkpt>
      <trkpt lat="52.510164" lon="13.166230">
        <ele>46.894815</ele>
        <time>2024-04-24T14:33:40.247Z</time>
      </trkpt>
      <trkpt lat="52.510072" lon="13.166490">
        <ele>46.795566</ele>
        <time>2024-04-24T14:33:43.967Z</time>
      </trkpt>
      <trkpt lat="52.509894" lon="13.166989">
        <ele>46.604692</ele>
        <time>2024-04-24T14:33:51.370Z</time>
      </trkpt>
      <trkpt lat="52.509641" lon="13.167704">
        <ele>46.458156</ele>
        <time>2024-04-24T14:34:02.269Z</time>
      </trkpt>
      <trkpt lat="52.509174" lon="13.169054">
        <ele>46.673048</ele>
        <time>2024-04-24T14:34:24.365Z</time>
      </trkpt>
      <trkpt lat="52.508936" lon="13.168505">
        <ele>46.766327</ele>
        <time>2024-04-24T14:34:34.536Z</time>
      </trkpt>
      <trkpt lat="52.508419" lon="13.167587">
        <ele>46.728636</ele>
        <time>2024-04-24T14:34:52.000Z</time>
      </trkpt>
      <trkpt lat="52.507998" lon="13.167018">
        <ele>46.614279</ele>
        <time>2024-04-24T14:35:03.740Z</time>
      </trkpt>
      <trkpt lat="52.507779" lon="13.166783">
        <ele>46.559407</ele>
        <time>2024-04-24T14:35:09.195Z</time>
      </trkpt>
      <trkpt lat="52.507204" lon="13.166106">
        <ele>46.367382</ele>
        <time>2024-04-24T14:35:24.412Z</time>
      </trkpt>
      <trkpt lat="52.506595" lon="13.165223">
        <ele>46.017684</ele>
        <time>2024-04-24T14:35:41.303Z</time>
      </trkpt>
      <trkpt lat="52.505920" lon="13.164244">
        <ele>45.711881</ele>
        <time>2024-04-24T14:36:01.263Z</time>
      </trkpt>
      <trkpt lat="52.505864" lon="13.164391">
        <ele>45.743833</ele>
        <time>2024-04-24T14:36:03.916Z</time>
      </trkpt>
      <trkpt lat="52.505581" lon="13.163977">
        <ele>45.858536</ele>
        <time>2024-04-24T14:36:12.511Z</time>
      </trkpt>
      <trkpt lat="52.503995" lon="13.161654">
        <ele>46.787081</ele>
        <time>2024-04-24T14:37:04.198Z</time>
      </trkpt>
      <trkpt lat="52.503967" lon="13.161613">
        <ele>46.810041</ele>
        <time>2024-04-24T14:37:05.170Z</time>
      </trkpt>
      <trkpt lat="52.502443" lon="13.159297">
        <ele>47.842414</ele>
        <time>2024-04-24T14:37:56.824Z</time>
      </trkpt>
      <trkpt lat="52.501502" lon="13.157743">
        <ele>47.875407</ele>
        <time>2024-04-24T14:38:26.532Z</time>
      </trkpt>
      <trkpt lat="52.500805" lon="13.156587">
        <ele>47.615926</ele>
        <time>2024-04-24T14:38:46.802Z</time>
      </trkpt>
      <trkpt lat="52.499888" lon="13.155221">
        <ele>47.197762</ele>
        <time>2024-04-24T14:39:12.495Z</time>
      </trkpt>
      <trkpt lat="52.498233" lon="13.152947">
        <ele>46.682148</ele>
        <time>2024-04-24T14:39:59.207Z</time>
      </trkpt>
      <trkpt lat="52.498143" lon="13.152819">
        <ele>46.658292</ele>
        <time>2024-04-24T14:40:01.762Z</time>
      </trkpt>
      <trkpt lat="52.498052" lon="13.152690">
        <ele>46.633387</ele>
        <time>2024-04-24T14:40:04.280Z</time>
      </trkpt>
      <trkpt lat="52.497675" lon="13.153399">
        <ele>46.305144</ele>
        <time>2024-04-24T14:40:16.282Z</time>
      </trkpt>
      <trkpt lat="52.496725" lon="13.152295">
        <ele>45.638617</ele>
        <time>2024-04-24T14:40:39.728Z</time>
      </trkpt>
      <trkpt lat="52.496084" lon="13.151285">
        <ele>44.868671</ele>
        <time>2024-04-24T14:40:56.982Z</time>
      </trkpt>
      <trkpt lat="52.494925" lon="13.149704">
        <ele>43.520762</ele>
        <time>2024-04-24T14:41:26.396Z</time>
      </trkpt>
      <trkpt lat="52.494350" lon="13.148983">
        <ele>42.864779</ele>
        <time>2024-04-24T14:41:40.721Z</time>
      </trkpt>
      <trkpt lat="52.493285" lon="13.147667">
        <ele>41.192853</ele>
        <time>2024-04-24T14:42:06.186Z</time>
      </trkpt>
      <trkpt lat="52.493003" lon="13.147163">
        <ele>40.571722</ele>
        <time>2024-04-24T14:42:13.769Z</time>
      </trkpt>
      <trkpt lat="52.492711" lon="13.146825">
        <ele>40.039310</ele>
        <time>2024-04-24T14:42:20.129Z</time>
      </trkpt>
      <trkpt lat="52.491642" lon="13.145357">
        <ele>37.725580</ele>
        <time>2024-04-24T14:42:44.696Z</time>
      </trkpt>
      <trkpt lat="52.491276" lon="13.144910">
        <ele>36.952860</ele>
        <time>2024-04-24T14:42:53.014Z</time>
      </trkpt>
      <trkpt lat="52.490460" lon="13.143866">
        <ele>36.286520</ele>
        <time>2024-04-24T14:43:13.103Z</time>
      </trkpt>
      <trkpt lat="52.490370" lon="13.143790">
        <ele>36.243668</ele>
        <time>2024-04-24T14:43:15.230Z</time>
      </trkpt>
      <trkpt lat="52.489714" lon="13.143693">
        <ele>35.964763</ele>
        <time>2024-04-24T14:43:29.773Z</time>
      </trkpt>
      <trkpt lat="52.489344" lon="13.143555">
        <ele>36.037208</ele>
        <time>2024-04-24T14:43:38.905Z</time>
      </trkpt>
      <trkpt lat="52.489278" lon="13.143504">
        <ele>36.093373</ele>
        <time>2024-04-24T14:43:40.770Z</time>
      </trkpt>
      <trkpt lat="52.489264" lon="13.143268">
        <ele>36.204548</ele>
        <time>2024-04-24T14:43:44.295Z</time>
      </trkpt>
      <trkpt lat="52.489364" lon="13.141326">
        <ele>37.118329</ele>
        <time>2024-04-24T14:44:14.640Z</time>
      </trkpt>
      <trkpt lat="52.489355" lon="13.141193">
        <ele>37.181072</ele>
        <time>2024-04-24T14:44:16.880Z</time>
      </trkpt>
      <trkpt lat="52.489307" lon="13.141096">
        <ele>37.239676</ele>
        <time>2024-04-24T14:44:18.890Z</time>
      </trkpt>
      <trkpt lat="52.488746" lon="13.140391">
        <ele>37.772654</ele>
        <time>2024-04-24T14:44:37.826Z</time>
      </trkpt>
      <trkpt lat="52.488017" lon="13.139520">
        <ele>38.451970</ele>
        <time>2024-04-24T14:45:00.595Z</time>
      </trkpt>
      <trkpt lat="52.487823" lon="13.139420">
        <ele>38.605185</ele>
        <time>2024-04-24T14:45:05.284Z</time>
      </trkpt>
      <trkpt lat="52.487491" lon="13.139164">
        <ele>38.670605</ele>
        <time>2024-04-24T14:45:13.488Z</time>
      </trkpt>
      <trkpt lat="52.487323" lon="13.138771">
        <ele>38.708281</ele>
        <time>2024-04-24T14:45:20.166Z</time>
      </trkpt>
      <trkpt lat="52.486828" lon="13.138097">
        <ele>38.791137</ele>
        <time>2024-04-24T14:45:34.800Z</time>
      </trkpt>
      <trkpt lat="52.486723" lon="13.137830">
        <ele>38.816076</ele>
        <time>2024-04-24T14:45:39.130Z</time>
      </trkpt>
      <trkpt lat="52.486446" lon="13.137491">
        <ele>38.859161</ele>
        <time>2024-04-24T14:45:46.930Z</time>
      </trkpt>
      <trkpt lat="52.486182" lon="13.137329">
        <ele>38.865609</ele>
        <time>2024-04-24T14:45:53.266Z</time>
      </trkpt>
      <trkpt lat="52.485933" lon="13.136786">
        <ele>38.875078</ele>
        <time>2024-04-24T14:46:02.409Z</time>
      </trkpt>
      <trkpt lat="52.485419" lon="13.136424">
        <ele>38.887872</ele>
        <time>2024-04-24T14:46:14.888Z</time>
      </trkpt>
      <trkpt lat="52.485338" lon="13.135985">
        <ele>38.894262</ele>
        <time>2024-04-24T14:46:21.216Z</time>
      </trkpt>
      <trkpt lat="52.485293" lon="13.135853">
        <ele>38.896370</ele>
        <time>2024-04-24T14:46:23.336Z</time>
      </trkpt>
      <trkpt lat="52.485212" lon="13.135748">
        <ele>38.898730</ele>
        <time>2024-04-24T14:46:25.689Z</time>
      </trkpt>
      <trkpt lat="52.482929" lon="13.132776">
        <ele>39.042382</ele>
        <time>2024-04-24T14:47:30.132Z</time>
      </trkpt>
      <trkpt lat="52.482263" lon="13.131835">
        <ele>39.225240</ele>
        <time>2024-04-24T14:47:50.794Z</time>
      </trkpt>
      <trkpt lat="52.480248" lon="13.129354">
        <ele>40.737210</ele>
        <time>2024-04-24T14:48:53.384Z</time>
      </trkpt>
      <trkpt lat="52.479980" lon="13.128959">
        <ele>40.953999</ele>
        <time>2024-04-24T14:49:02.458Z</time>
      </trkpt>
      <trkpt lat="52.479873" lon="13.128740">
        <ele>41.056932</ele>
        <time>2024-04-24T14:49:06.772Z</time>
      </trkpt>
      <trkpt lat="52.479744" lon="13.128562">
        <ele>41.158365</ele>
        <time>2024-04-24T14:49:10.963Z</time>
      </trkpt>
      <trkpt lat="52.478956" lon="13.127228">
        <ele>41.342767</ele>
        <time>2024-04-24T14:49:37.533Z</time>
      </trkpt>
      <trkpt lat="52.478734" lon="13.126903">
        <ele>41.356118</ele>
        <time>2024-04-24T14:49:43.844Z</time>
      </trkpt>
      <trkpt lat="52.478620" lon="13.126745">
        <ele>41.362814</ele>
        <time>2024-04-24T14:49:47.963Z</time>
      </trkpt>
      <trkpt lat="52.478518" lon="13.126482">
        <ele>41.371338</ele>
        <time>2024-04-24T14:49:53.331Z</time>
      </trkpt>
      <trkpt lat="52.478496" lon="13.126419">
        <ele>41.373324</ele>
        <time>2024-04-24T14:49:54.603Z</time>
      </trkpt>
      <trkpt lat="52.478455" lon="13.126288">
        <ele>41.377350</ele>
        <time>2024-04-24T14:49:57.083Z</time>
      </trkpt>
      <trkpt lat="52.478416" lon="13.126134">
        <ele>41.381910</ele>
        <time>2024-04-24T14:49:59.987Z</time>
      </trkpt>
      <trkpt lat="52.478403" lon="13.126086">
        <ele>41.383346</ele>
        <time>2024-04-24T14:50:00.898Z</time>
      </trkpt>
      <trkpt lat="52.478379" lon="13.125987">
        <ele>41.375413</ele>
        <time>2024-04-24T14:50:02.740Z</time>
      </trkpt>
      <trkpt lat="52.478290" lon="13.125850">
        <ele>41.359649</ele>
        <time>2024-04-24T14:50:06.176Z</time>
      </trkpt>
      <trkpt lat="52.477692" lon="13.125023">
        <ele>41.258622</ele>
        <time>2024-04-24T14:50:23.012Z</time>
      </trkpt>
      <trkpt lat="52.477006" lon="13.124037">
        <ele>41.151644</ele>
        <time>2024-04-24T14:50:43.136Z</time>
      </trkpt>
      <trkpt lat="52.475739" lon="13.122146">
        <ele>41.164347</ele>
        <time>2024-04-24T14:51:21.792Z</time>
      </trkpt>
      <trkpt lat="52.475562" lon="13.121762">
        <ele>40.832480</ele>
        <time>2024-04-24T14:51:28.169Z</time>
      </trkpt>
      <trkpt lat="52.475401" lon="13.121241">
        <ele>40.419799</ele>
        <time>2024-04-24T14:51:35.375Z</time>
      </trkpt>
      <trkpt lat="52.475364" lon="13.121115">
        <ele>40.320991</ele>
        <time>2024-04-24T14:51:37.015Z</time>
      </trkpt>
      <trkpt lat="52.475353" lon="13.121033">
        <ele>40.261679</ele>
        <time>2024-04-24T14:51:37.968Z</time>
      </trkpt>
      <trkpt lat="52.475330" lon="13.120852">
        <ele>40.131071</ele>
        <time>2024-04-24T14:51:40.119Z</time>
      </trkpt>
      <trkpt lat="52.475320" lon="13.120772">
        <ele>40.073382</ele>
        <time>2024-04-24T14:51:41.067Z</time>
      </trkpt>
      <trkpt lat="52.475305" lon="13.120656">
        <ele>39.989615</ele>
        <time>2024-04-24T14:51:42.434Z</time>
      </trkpt>
      <trkpt lat="52.475290" lon="13.120536">
        <ele>39.903082</ele>
        <time>2024-04-24T14:51:43.763Z</time>
      </trkpt>
      <trkpt lat="52.475269" lon="13.120374">
        <ele>39.786085</ele>
        <time>2024-04-24T14:51:45.543Z</time>
      </trkpt>
      <trkpt lat="52.475196" lon="13.119870">
        <ele>39.420138</ele>
        <time>2024-04-24T14:51:51.415Z</time>
      </trkpt>
      <trkpt lat="52.475138" lon="13.119511">
        <ele>39.157775</ele>
        <time>2024-04-24T14:51:55.644Z</time>
      </trkpt>
      <trkpt lat="52.474962" lon="13.118447">
        <ele>38.218031</ele>
        <time>2024-04-24T14:52:07.879Z</time>
      </trkpt>
      <trkpt lat="52.474955" lon="13.118402">
        <ele>38.177676</ele>
        <time>2024-04-24T14:52:08.413Z</time>
      </trkpt>
      <trkpt lat="52.474886" lon="13.117954">
        <ele>37.776161</ele>
        <time>2024-04-24T14:52:13.601Z</time>
      </trkpt>
      <trkpt lat="52.474879" lon="13.117903">
        <ele>37.730736</ele>
        <time>2024-04-24T14:52:14.202Z</time>
      </trkpt>
      <trkpt lat="52.474808" lon="13.117466">
        <ele>37.337753</ele>
        <time>2024-04-24T14:52:19.256Z</time>
      </trkpt>
      <trkpt lat="52.474600" lon="13.116205">
        <ele>36.832709</ele>
        <time>2024-04-24T14:52:35.009Z</time>
      </trkpt>
      <trkpt lat="52.474468" lon="13.115639">
        <ele>37.376096</ele>
        <time>2024-04-24T14:52:44.249Z</time>
      </trkpt>
      <trkpt lat="52.474417" lon="13.115445">
        <ele>37.565540</ele>
        <time>2024-04-24T14:52:48.141Z</time>
      </trkpt>
      <trkpt lat="52.474229" lon="13.114730">
        <ele>38.263773</ele>
        <time>2024-04-24T14:53:02.631Z</time>
      </trkpt>
      <trkpt lat="52.474204" lon="13.114633">
        <ele>38.358206</ele>
        <time>2024-04-24T14:53:04.571Z</time>
      </trkpt>
      <trkpt lat="52.474182" lon="13.114560">
        <ele>38.431230</ele>
        <time>2024-04-24T14:53:06.053Z</time>
      </trkpt>
      <trkpt lat="52.474032" lon="13.113914">
        <ele>39.051081</ele>
        <time>2024-04-24T14:53:19.932Z</time>
      </trkpt>
      <trkpt lat="52.473900" lon="13.113352">
        <ele>39.639819</ele>
        <time>2024-04-24T14:53:32.074Z</time>
      </trkpt>
      <trkpt lat="52.473625" lon="13.112214">
        <ele>40.861538</ele>
        <time>2024-04-24T14:53:55.272Z</time>
      </trkpt>
      <trkpt lat="52.473519" lon="13.111725">
        <ele>41.379495</ele>
        <time>2024-04-24T14:54:04.293Z</time>
      </trkpt>
      <trkpt lat="52.473514" lon="13.111704">
        <ele>41.401995</ele>
        <time>2024-04-24T14:54:04.671Z</time>
      </trkpt>
      <trkpt lat="52.473471" lon="13.111434">
        <ele>41.680489</ele>
        <time>2024-04-24T14:54:08.963Z</time>
      </trkpt>
      <trkpt lat="52.473457" lon="13.111349">
        <ele>41.768357</ele>
        <time>2024-04-24T14:54:10.293Z</time>
      </trkpt>
      <trkpt lat="52.473237" lon="13.111181">
        <ele>42.071338</ele>
        <time>2024-04-24T14:54:16.135Z</time>
      </trkpt>
      <trkpt lat="52.473090" lon="13.111070">
        <ele>41.911729</ele>
        <time>2024-04-24T14:54:19.717Z</time>
      </trkpt>
      <trkpt lat="52.472806" lon="13.110853">
        <ele>41.602725</ele>
        <time>2024-04-24T14:54:26.259Z</time>
      </trkpt>
      <trkpt lat="52.472659" lon="13.110732">
        <ele>41.440514</ele>
        <time>2024-04-24T14:54:29.434Z</time>
      </trkpt>
      <trkpt lat="52.472375" lon="13.110479">
        <ele>41.121778</ele>
        <time>2024-04-24T14:54:35.390Z</time>
      </trkpt>
      <trkpt lat="52.471540" lon="13.109723">
        <ele>40.251983</ele>
        <time>2024-04-24T14:54:52.627Z</time>
      </trkpt>
      <trkpt lat="52.471422" lon="13.109615">
        <ele>40.181037</ele>
        <time>2024-04-24T14:54:55.080Z</time>
      </trkpt>
      <trkpt lat="52.471095" lon="13.109357">
        <ele>39.990515</ele>
        <time>2024-04-24T14:55:01.956Z</time>
      </trkpt>
      <trkpt lat="52.470858" lon="13.109188">
        <ele>39.854824</ele>
        <time>2024-04-24T14:55:07.088Z</time>
      </trkpt>
      <trkpt lat="52.470734" lon="13.109155">
        <ele>39.788858</ele>
        <time>2024-04-24T14:55:09.549Z</time>
      </trkpt>
      <trkpt lat="52.470470" lon="13.109084">
        <ele>39.648375</ele>
        <time>2024-04-24T14:55:15.250Z</time>
      </trkpt>
      <trkpt lat="52.470335" lon="13.109043">
        <ele>39.576279</ele>
        <time>2024-04-24T14:55:18.262Z</time>
      </trkpt>
      <trkpt lat="52.469586" lon="13.108815">
        <ele>39.895103</ele>
        <time>2024-04-24T14:55:37.241Z</time>
      </trkpt>
      <trkpt lat="52.469110" lon="13.108616">
        <ele>40.512418</ele>
        <time>2024-04-24T14:55:51.687Z</time>
      </trkpt>
      <trkpt lat="52.469044" lon="13.108591">
        <ele>40.597544</ele>
        <time>2024-04-24T14:55:53.695Z</time>
      </trkpt>
      <trkpt lat="52.468676" lon="13.108436">
        <ele>41.075014</ele>
        <time>2024-04-24T14:56:04.922Z</time>
      </trkpt>
      <trkpt lat="52.467846" lon="13.107863">
        <ele>41.770223</ele>
        <time>2024-04-24T14:56:29.346Z</time>
      </trkpt>
      <trkpt lat="52.466768" lon="13.107325">
        <ele>42.078917</ele>
        <time>2024-04-24T14:56:54.019Z</time>
      </trkpt>
      <trkpt lat="52.466451" lon="13.107183">
        <ele>42.138421</ele>
        <time>2024-04-24T14:57:01.147Z</time>
      </trkpt>
      <trkpt lat="52.466215" lon="13.107077">
        <ele>42.131310</ele>
        <time>2024-04-24T14:57:06.338Z</time>
      </trkpt>
      <trkpt lat="52.466075" lon="13.107019">
        <ele>42.127113</ele>
        <time>2024-04-24T14:57:09.272Z</time>
      </trkpt>
      <trkpt lat="52.466004" lon="13.106989">
        <ele>42.124982</ele>
        <time>2024-04-24T14:57:10.743Z</time>
      </trkpt>
      <trkpt lat="52.465441" lon="13.106742">
        <ele>42.108044</ele>
        <time>2024-04-24T14:57:23.400Z</time>
      </trkpt>
      <trkpt lat="52.464860" lon="13.106487">
        <ele>42.090565</ele>
        <time>2024-04-24T14:57:36.631Z</time>
      </trkpt>
      <trkpt lat="52.463924" lon="13.106277">
        <ele>42.759524</ele>
        <time>2024-04-24T14:58:00.778Z</time>
      </trkpt>
      <trkpt lat="52.463314" lon="13.106324">
        <ele>43.217835</ele>
        <time>2024-04-24T14:58:17.181Z</time>
      </trkpt>
      <trkpt lat="52.462789" lon="13.106365">
        <ele>43.400010</ele>
        <time>2024-04-24T14:58:30.330Z</time>
      </trkpt>
      <trkpt lat="52.462051" lon="13.106422">
        <ele>43.275417</ele>
        <time>2024-04-24T14:58:47.093Z</time>
      </trkpt>
      <trkpt lat="52.461626" lon="13.106452">
        <ele>43.203679</ele>
        <time>2024-04-24T14:58:56.046Z</time>
      </trkpt>
      <trkpt lat="52.461247" lon="13.106336">
        <ele>43.138663</ele>
        <time>2024-04-24T14:59:03.728Z</time>
      </trkpt>
      <trkpt lat="52.459040" lon="13.105606">
        <ele>40.008021</ele>
        <time>2024-04-24T14:59:44.347Z</time>
      </trkpt>
      <trkpt lat="52.458516" lon="13.105406">
        <ele>39.548544</ele>
        <time>2024-04-24T14:59:54.915Z</time>
      </trkpt>
      <trkpt lat="52.458421" lon="13.105376">
        <ele>39.465919</ele>
        <time>2024-04-24T14:59:56.927Z</time>
      </trkpt>
      <trkpt lat="52.458226" lon="13.105389">
        <ele>39.299238</ele>
        <time>2024-04-24T15:00:00.980Z</time>
      </trkpt>
      <trkpt lat="52.458045" lon="13.105465">
        <ele>39.139672</ele>
        <time>2024-04-24T15:00:04.921Z</time>
      </trkpt>
      <trkpt lat="52.457902" lon="13.105615">
        <ele>38.994723</ele>
        <time>2024-04-24T15:00:08.523Z</time>
      </trkpt>
      <trkpt lat="52.457778" lon="13.105864">
        <ele>38.829366</ele>
        <time>2024-04-24T15:00:12.702Z</time>
      </trkpt>
      <trkpt lat="52.457701" lon="13.106019">
        <ele>38.738439</ele>
        <time>2024-04-24T15:00:15.278Z</time>
      </trkpt>
      <trkpt lat="52.457327" lon="13.107046">
        <ele>38.194449</ele>
        <time>2024-04-24T15:00:30.594Z</time>
      </trkpt>
      <trkpt lat="52.457300" lon="13.107298">
        <ele>38.078112</ele>
        <time>2024-04-24T15:00:33.667Z</time>
      </trkpt>
      <trkpt lat="52.457239" lon="13.107745">
        <ele>37.869835</ele>
        <time>2024-04-24T15:00:39.018Z</time>
      </trkpt>
      <trkpt lat="52.457177" lon="13.108460">
        <ele>37.541463</ele>
        <time>2024-04-24T15:00:47.267Z</time>
      </trkpt>
      <trkpt lat="52.457097" lon="13.109023">
        <ele>37.214648</ele>
        <time>2024-04-24T15:00:53.905Z</time>
      </trkpt>
      <trkpt lat="52.457005" lon="13.109632">
        <ele>36.847353</ele>
        <time>2024-04-24T15:01:01.107Z</time>
      </trkpt>
      <trkpt lat="52.456823" lon="13.110726">
        <ele>36.183496</ele>
        <time>2024-04-24T15:01:14.312Z</time>
      </trkpt>
      <trkpt lat="52.456651" lon="13.110918">
        <ele>35.983657</ele>
        <time>2024-04-24T15:01:18.458Z</time>
      </trkpt>
      <trkpt lat="52.456257" lon="13.111375">
        <ele>35.831484</ele>
        <time>2024-04-24T15:01:28.368Z</time>
      </trkpt>
      <trkpt lat="52.456112" lon="13.111354">
        <ele>35.863694</ele>
        <time>2024-04-24T15:01:31.575Z</time>
      </trkpt>
      <trkpt lat="52.455683" lon="13.111239">
        <ele>35.959880</ele>
        <time>2024-04-24T15:01:41.631Z</time>
      </trkpt>
      <trkpt lat="52.454215" lon="13.110828">
        <ele>36.314858</ele>
        <time>2024-04-24T15:02:18.243Z</time>
      </trkpt>
      <trkpt lat="52.454022" lon="13.110790">
        <ele>36.367131</ele>
        <time>2024-04-24T15:02:22.906Z</time>
      </trkpt>
      <trkpt lat="52.453538" lon="13.110471">
        <ele>36.507392</ele>
        <time>2024-04-24T15:02:34.990Z</time>
      </trkpt>
      <trkpt lat="52.452178" lon="13.109390">
        <ele>36.429849</ele>
        <time>2024-04-24T15:03:08.021Z</time>
      </trkpt>
      <trkpt lat="52.451250" lon="13.108733">
        <ele>36.229699</ele>
        <time>2024-04-24T15:03:29.106Z</time>
      </trkpt>
      <trkpt lat="52.450730" lon="13.108256">
        <ele>36.213509</ele>
        <time>2024-04-24T15:03:41.755Z</time>
      </trkpt>
      <trkpt lat="52.449947" lon="13.109286">
        <ele>36.186236</ele>
        <time>2024-04-24T15:04:19.219Z</time>
      </trkpt>
      <trkpt lat="52.447922" lon="13.111849">
        <ele>38.416560</ele>
        <time>2024-04-24T15:06:01.967Z</time>
      </trkpt>
      <trkpt lat="52.447215" lon="13.112717">
        <ele>39.602814</ele>
        <time>2024-04-24T15:06:39.138Z</time>
      </trkpt>
      <trkpt lat="52.446906" lon="13.113073">
        <ele>40.608187</ele>
        <time>2024-04-24T15:06:55.978Z</time>
      </trkpt>
      <trkpt lat="52.446064" lon="13.114044">
        <ele>44.603921</ele>
        <time>2024-04-24T15:07:49.007Z</time>
      </trkpt>
      <trkpt lat="52.445679" lon="13.114489">
        <ele>46.432340</ele>
        <time>2024-04-24T15:08:09.771Z</time>
      </trkpt>
      <trkpt lat="52.445396" lon="13.115163">
        <ele>48.704816</ele>
        <time>2024-04-24T15:08:32.496Z</time>
      </trkpt>
      <trkpt lat="52.444967" lon="13.116239">
        <ele>52.410909</ele>
        <time>2024-04-24T15:09:07.949Z</time>
      </trkpt>
      <trkpt lat="52.444339" lon="13.117578">
        <ele>54.979329</ele>
        <time>2024-04-24T15:09:44.979Z</time>
      </trkpt>
      <trkpt lat="52.443957" lon="13.118289">
        <ele>54.479318</ele>
        <time>2024-04-24T15:09:56.504Z</time>
      </trkpt>
      <trkpt lat="52.443811" lon="13.118462">
        <ele>54.323439</ele>
        <time>2024-04-24T15:09:59.581Z</time>
      </trkpt>
      <trkpt lat="52.443466" lon="13.118512">
        <ele>54.023674</ele>
        <time>2024-04-24T15:10:05.245Z</time>
      </trkpt>
      <trkpt lat="52.442982" lon="13.118446">
        <ele>53.032463</ele>
        <time>2024-04-24T15:10:12.829Z</time>
      </trkpt>
      <trkpt lat="52.442847" lon="13.118464">
        <ele>52.533527</ele>
        <time>2024-04-24T15:10:14.895Z</time>
      </trkpt>
      <trkpt lat="52.442895" lon="13.118851">
        <ele>51.646753</ele>
        <time>2024-04-24T15:10:18.616Z</time>
      </trkpt>
      <trkpt lat="52.442907" lon="13.119054">
        <ele>51.188801</ele>
        <time>2024-04-24T15:10:20.499Z</time>
      </trkpt>
      <trkpt lat="52.442909" lon="13.119377">
        <ele>50.463503</ele>
        <time>2024-04-24T15:10:23.545Z</time>
      </trkpt>
      <trkpt lat="52.442858" lon="13.119692">
        <ele>49.731679</ele>
        <time>2024-04-24T15:10:26.608Z</time>
      </trkpt>
      <trkpt lat="52.442666" lon="13.120404">
        <ele>47.983498</ele>
        <time>2024-04-24T15:10:34.132Z</time>
      </trkpt>
      <trkpt lat="52.442605" lon="13.120762">
        <ele>47.152498</ele>
        <time>2024-04-24T15:10:37.885Z</time>
      </trkpt>
      <trkpt lat="52.442631" lon="13.121096">
        <ele>47.057297</ele>
        <time>2024-04-24T15:10:41.505Z</time>
      </trkpt>
      <trkpt lat="52.442674" lon="13.121299">
        <ele>46.996536</ele>
        <time>2024-04-24T15:10:43.819Z</time>
      </trkpt>
      <trkpt lat="52.442704" lon="13.121406">
        <ele>46.963236</ele>
        <time>2024-04-24T15:10:45.102Z</time>
      </trkpt>
      <trkpt lat="52.443342" lon="13.123448">
        <ele>46.324820</ele>
        <time>2024-04-24T15:11:17.398Z</time>
      </trkpt>
      <trkpt lat="52.443412" lon="13.123642">
        <ele>46.415329</ele>
        <time>2024-04-24T15:11:20.924Z</time>
      </trkpt>
      <trkpt lat="52.443416" lon="13.123654">
        <ele>46.420820</ele>
        <time>2024-04-24T15:11:21.137Z</time>
      </trkpt>
      <trkpt lat="52.443490" lon="13.123836">
        <ele>46.508653</ele>
        <time>2024-04-24T15:11:24.656Z</time>
      </trkpt>
      <trkpt lat="52.443605" lon="13.124053">
        <ele>46.624096</ele>
        <time>2024-04-24T15:11:29.048Z</time>
      </trkpt>
      <trkpt lat="52.443801" lon="13.124305">
        <ele>46.788111</ele>
        <time>2024-04-24T15:11:35.333Z</time>
      </trkpt>
      <trkpt lat="52.443981" lon="13.124490">
        <ele>46.928010</ele>
        <time>2024-04-24T15:11:40.596Z</time>
      </trkpt>
      <trkpt lat="52.444095" lon="13.124593">
        <ele>47.013729</ele>
        <time>2024-04-24T15:11:43.892Z</time>
      </trkpt>
      <trkpt lat="52.443917" lon="13.125034">
        <ele>47.226075</ele>
        <time>2024-04-24T15:11:52.068Z</time>
      </trkpt>
      <trkpt lat="52.443866" lon="13.125293">
        <ele>47.335347</ele>
        <time>2024-04-24T15:11:56.484Z</time>
      </trkpt>
      <trkpt lat="52.443857" lon="13.126027">
        <ele>47.501269</ele>
        <time>2024-04-24T15:12:07.782Z</time>
      </trkpt>
      <trkpt lat="52.443857" lon="13.126070">
        <ele>47.500976</ele>
        <time>2024-04-24T15:12:08.393Z</time>
      </trkpt>
      <trkpt lat="52.443856" lon="13.126546">
        <ele>47.497734</ele>
        <time>2024-04-24T15:12:15.357Z</time>
      </trkpt>
      <trkpt lat="52.444176" lon="13.127172">
        <ele>47.492169</ele>
        <time>2024-04-24T15:12:26.261Z</time>
      </trkpt>
      <trkpt lat="52.444240" lon="13.127212">
        <ele>47.491404</ele>
        <time>2024-04-24T15:12:27.843Z</time>
      </trkpt>
      <trkpt lat="52.444314" lon="13.127296">
        <ele>47.490399</ele>
        <time>2024-04-24T15:12:29.888Z</time>
      </trkpt>
      <trkpt lat="52.444799" lon="13.128239">
        <ele>47.220138</ele>
        <time>2024-04-24T15:12:45.502Z</time>
      </trkpt>
      <trkpt lat="52.445001" lon="13.128686">
        <ele>46.467211</ele>
        <time>2024-04-24T15:12:52.254Z</time>
      </trkpt>
      <trkpt lat="52.445109" lon="13.129219">
        <ele>45.707212</ele>
        <time>2024-04-24T15:12:58.627Z</time>
      </trkpt>
      <trkpt lat="52.445150" lon="13.129400">
        <ele>45.445939</ele>
        <time>2024-04-24T15:13:00.657Z</time>
      </trkpt>
      <trkpt lat="52.445277" lon="13.129962">
        <ele>44.634931</ele>
        <time>2024-04-24T15:13:06.753Z</time>
      </trkpt>
      <trkpt lat="52.445378" lon="13.130444">
        <ele>43.945286</ele>
        <time>2024-04-24T15:13:11.706Z</time>
      </trkpt>
      <trkpt lat="52.445536" lon="13.131200">
        <ele>42.440193</ele>
        <time>2024-04-24T15:13:19.305Z</time>
      </trkpt>
      <trkpt lat="52.445808" lon="13.131775">
        <ele>40.789412</ele>
        <time>2024-04-24T15:13:26.328Z</time>
      </trkpt>
      <trkpt lat="52.446092" lon="13.132340">
        <ele>39.128450</ele>
        <time>2024-04-24T15:13:33.351Z</time>
      </trkpt>
      <trkpt lat="52.446351" lon="13.132856">
        <ele>37.612417</ele>
        <time>2024-04-24T15:13:39.775Z</time>
      </trkpt>
      <trkpt lat="52.446821" lon="13.133792">
        <ele>35.603682</ele>
        <time>2024-04-24T15:13:51.811Z</time>
      </trkpt>
      <trkpt lat="52.446845" lon="13.133885">
        <ele>35.462398</ele>
        <time>2024-04-24T15:13:52.831Z</time>
      </trkpt>
      <trkpt lat="52.447004" lon="13.134515">
        <ele>34.508488</ele>
        <time>2024-04-24T15:13:59.910Z</time>
      </trkpt>
      <trkpt lat="52.447224" lon="13.135392">
        <ele>33.181761</ele>
        <time>2024-04-24T15:14:10.613Z</time>
      </trkpt>
      <trkpt lat="52.446777" lon="13.135638">
        <ele>32.440883</ele>
        <time>2024-04-24T15:14:25.799Z</time>
      </trkpt>
      <trkpt lat="52.446360" lon="13.137540">
        <ele>31.306934</ele>
        <time>2024-04-24T15:15:07.362Z</time>
      </trkpt>
      <trkpt lat="52.446340" lon="13.138008">
        <ele>31.043741</ele>
        <time>2024-04-24T15:15:17.429Z</time>
      </trkpt>
      <trkpt lat="52.446344" lon="13.141780">
        <ele>31.177660</ele>
        <time>2024-04-24T15:16:44.097Z</time>
      </trkpt>
      <trkpt lat="52.446319" lon="13.142014">
        <ele>31.198725</ele>
        <time>2024-04-24T15:16:49.447Z</time>
      </trkpt>
      <trkpt lat="52.446319" lon="13.142683">
        <ele>31.258045</ele>
        <time>2024-04-24T15:17:04.763Z</time>
      </trkpt>
      <trkpt lat="52.446369" lon="13.143036">
        <ele>31.290179</ele>
        <time>2024-04-24T15:17:13.145Z</time>
      </trkpt>
      <trkpt lat="52.446497" lon="13.143587">
        <ele>31.342464</ele>
        <time>2024-04-24T15:17:26.693Z</time>
      </trkpt>
      <trkpt lat="52.446681" lon="13.144079">
        <ele>31.425591</ele>
        <time>2024-04-24T15:17:39.949Z</time>
      </trkpt>
      <trkpt lat="52.446811" lon="13.144354">
        <ele>31.500458</ele>
        <time>2024-04-24T15:17:47.908Z</time>
      </trkpt>
      <trkpt lat="52.448113" lon="13.145368">
        <ele>32.007271</ele>
        <time>2024-04-24T15:18:43.731Z</time>
      </trkpt>
      <trkpt lat="52.448307" lon="13.145519">
        <ele>32.036734</ele>
        <time>2024-04-24T15:18:52.147Z</time>
      </trkpt>
      <trkpt lat="52.449354" lon="13.146050">
        <ele>32.187102</ele>
        <time>2024-04-24T15:19:34.532Z</time>
      </trkpt>
      <trkpt lat="52.450139" lon="13.146543">
        <ele>32.108592</ele>
        <time>2024-04-24T15:20:03.928Z</time>
      </trkpt>
      <trkpt lat="52.450635" lon="13.146941">
        <ele>31.888016</ele>
        <time>2024-04-24T15:20:23.102Z</time>
      </trkpt>
      <trkpt lat="52.450890" lon="13.147202">
        <ele>31.767950</ele>
        <time>2024-04-24T15:20:33.426Z</time>
      </trkpt>
      <trkpt lat="52.450901" lon="13.147213">
        <ele>31.762804</ele>
        <time>2024-04-24T15:20:33.669Z</time>
      </trkpt>
      <trkpt lat="52.451387" lon="13.147685">
        <ele>31.537189</ele>
        <time>2024-04-24T15:20:45.808Z</time>
      </trkpt>
      <trkpt lat="52.451574" lon="13.147861">
        <ele>31.534325</ele>
        <time>2024-04-24T15:20:51.211Z</time>
      </trkpt>
      <trkpt lat="52.452332" lon="13.148592">
        <ele>31.534325</ele>
        <time>2024-04-24T15:21:12.835Z</time>
      </trkpt>
      <trkpt lat="52.452600" lon="13.148848">
        <ele>31.534325</ele>
        <time>2024-04-24T15:21:21.451Z</time>
      </trkpt>
      <trkpt lat="52.452710" lon="13.148976">
        <ele>31.534325</ele>
        <time>2024-04-24T15:21:25.221Z</time>
      </trkpt>
      <trkpt lat="52.452974" lon="13.149697">
        <ele>31.534325</ele>
        <time>2024-04-24T15:21:39.874Z</time>
      </trkpt>
    </trkseg>
  </trk>
</gpx>